[[{"header":{"parameterUnit":"m.s-1","parameterCategory":1,"la1":30.6,"la2":28.766,"lo1":-90.7593,"lo2":-88.6598,"dx":0.0162,"dy":0.0183,"nx":116,"ny":114,"refTime":"2023-02-12T06:00:00:Z","depth":0,"parameterNumber":2,"parameterNumberName":"U-component_of_WINDS"},"data":[0.0,0.0,0.0,0.0,0.0,0.0,0.0,0.0,0.0,0.0,0.0,0.0,0.0,0.0,0.0,0.0,0.0,0.0,0.0,0.0,0.0,0.0,0.0,0.0,0.0,0.0,0.0,0.0,0.0,0.0,0.0,0.0,0.0,0.0,0.0,0.0,0.0,0.0,0.0,0.0,0.0,0.0,0.0,0.0,0.0,0.0,0.0,0.0,0.0,0.0,0.0,0.0,0.0,0.0,0.0,0.0,0.0,0.0,0.0,0.0,0.0,0.0,0.0,0.0,0.0,0.0,0.0,0.0,0.0,0.0,0.0,0.0,0.0,0.0,0.0,0.0,0.0,0.0,0.0,0.0,0.0,0.0,0.0,0.0,0.0,0.0,0.0,0.0,0.0,0.0,0.0,0.0,0.0,0.0,0.0,0.0,0.0,0.0,0.0,0.0,0.0,0.0,0.0,0.0,0.0,0.0,0.0,0.0,0.0,0.0,0.0,0.0,0.0,0.0,0.0,0.0,0.0,0.0,0.0,0.0,0.0,0.0,0.0,0.0,0.0,0.0,0.0,0.0,0.0,0.0,0.0,0.0,0.0,0.0,0.0,0.0,0.0,0.0,0.0,0.0,0.0,0.0,0.0,0.0,0.0,0.0,0.0,0.0,0.0,0.0,0.0,0.0,0.0,0.0,0.0,0.0,0.0,0.0,0.0,0.0,0.0,0.0,0.0,0.0,0.0,0.0,0.0,0.0,0.0,0.0,0.0,0.0,0.0,0.0,0.0,0.0,0.0,0.0,0.0,0.0,0.0,0.0,0.0,0.0,0.0,0.0,0.0,0.0,0.0,0.0,0.0,0.0,0.0,0.0,0.0,0.0,0.0,0.0,0.0,0.0,0.0,0.0,0.0,0.0,0.0,0.0,0.0,0.0,0.0,0.0,0.0,0.0,0.0,0.0,0.0,0.0,0.0,0.0,0.0,0.0,0.0,0.0,0.0,0.0,0.0,0.0,0.0,0.0,0.0,0.0,0.0,0.0,0.0,0.0,0.0,0.0,0.0,0.0,0.0,0.0,0.0,0.0,0.0,0.0,0.0,0.0,0.0,0.0,0.0,0.0,0.0,0.0,0.0,0.0,0.0,0.0,0.0,0.0,0.0,0.0,0.0,0.0,0.0,0.0,0.0,0.0,0.0,0.0,0.0,0.0,0.0,0.0,0.0,0.0,0.0,0.0,0.0,0.0,0.0,0.0,0.0,0.0,0.0,0.0,0.0,0.0,0.0,0.0,0.0,0.0,0.0,0.0,0.0,0.0,0.0,0.0,0.0,0.0,0.0,0.0,0.0,0.0,0.0,0.0,0.0,0.0,0.0,0.0,0.0,0.0,0.0,0.0,0.0,0.0,0.0,0.0,0.0,0.0,0.0,0.0,0.0,0.0,0.0,0.0,0.0,0.0,0.0,0.0,0.0,0.0,0.0,0.0,0.0,0.0,0.0,0.0,0.0,0.0,0.0,0.0,0.0,0.0,0.0,0.0,0.0,0.0,0.0,0.0,0.0,0.0,0.0,0.0,0.0,0.0,0.0,0.0,0.0,0.0,0.0,0.0,0.0,0.0,0.0,0.0,0.0,0.0,0.0,0.0,0.0,0.0,0.0,0.0,0.0,0.0,0.0,0.0,0.0,0.0,0.0,0.0,0.0,0.0,0.0,0.0,0.0,0.0,0.0,0.0,0.0,0.0,0.0,0.0,0.0,0.0,0.0,0.0,0.0,0.0,0.0,0.0,0.0,0.0,0.0,0.0,0.0,0.0,0.0,0.0,0.0,0.0,0.0,0.0,0.0,0.0,0.0,0.0,0.0,0.0,0.0,0.0,0.0,0.0,0.0,0.0,0.0,0.0,0.0,0.0,0.0,0.0,0.0,0.0,0.0,0.0,0.0,0.0,0.0,0.0,0.0,0.0,0.0,0.0,0.0,0.0,0.0,0.0,0.0,0.0,0.0,0.0,0.0,0.0,0.0,0.0,0.0,0.0,0.0,0.0,0.0,0.0,0.0,0.0,0.0,0.0,0.0,0.0,0.0,0.0,0.0,0.0,0.0,0.0,0.0,0.0,0.0,0.0,0.0,0.0,0.0,0.0,0.0,0.0,0.0,0.0,0.0,0.0,0.0,0.0,0.0,0.0,0.0,0.0,0.0,0.0,0.0,0.0,0.0,0.0,0.0,0.0,0.0,0.0,0.0,0.0,0.0,0.0,0.0,0.0,0.0,0.0,0.0,0.0,0.0,0.0,0.0,0.0,0.0,0.0,0.0,0.0,0.0,0.0,0.0,0.0,0.0,0.0,0.0,0.0,0.0,0.0,0.0,0.0,0.0,0.0,0.0,0.0,0.0,0.0,0.0,0.0,0.0,0.0,0.0,0.0,0.0,0.0,0.0,0.0,0.0,0.0,0.0,0.0,0.0,0.0,0.0,0.0,0.0,0.0,0.0,0.0,0.0,0.0,0.0,0.0,0.0,0.0,0.0,0.0,0.0,0.0,0.0,0.0,0.0,0.0,0.0,0.0,0.0,0.0,0.0,0.0,0.0,0.0,0.0,0.0,0.0,0.0,0.0,0.0,0.0,0.0,0.0,0.0,0.0,0.0,0.0,0.0,0.0,0.0,0.0,0.0,0.0,0.0,0.0,0.0,0.0,0.0,0.0,0.0,0.0,0.0,0.0,0.0,0.0,0.0,0.0,0.0,0.0,0.0,0.0,0.0,0.0,0.0,0.0,0.0,0.0,0.0,0.0,0.0,0.0,0.0,0.0,0.0,0.0,0.0,0.0,0.0,0.0,0.0,0.0,0.0,0.0,0.0,0.0,0.0,0.0,0.0,0.0,0.0,0.0,0.0,0.0,0.0,0.0,0.0,0.0,0.0,0.0,0.0,0.0,0.0,0.0,0.0,0.0,0.0,0.0,0.0,0.0,0.0,0.0,0.0,0.0,0.0,0.0,0.0,0.0,0.0,0.0,0.0,0.0,0.0,0.0,0.0,0.0,0.0,0.0,0.0,0.0,0.0,0.0,0.0,0.0,0.0,0.0,0.0,0.0,0.0,0.0,0.0,0.0,0.0,0.0,0.0,0.0,0.0,0.0,0.0,0.0,0.0,0.0,0.0,0.0,0.0,0.0,0.0,0.0,0.0,0.0,0.0,0.0,0.0,0.0,0.0,0.0,0.0,0.0,0.0,0.0,0.0,0.0,0.0,0.0,0.0,0.0,0.0,0.0,0.0,0.0,0.0,0.0,0.0,0.0,0.0,0.0,0.0,0.0,0.0,0.0,0.0,0.0,0.0,0.0,0.0,0.0,0.0,0.0,0.0,0.0,0.0,0.0,0.0,0.0,0.0,0.0,0.0,0.0,0.0,0.0,0.0,0.0,0.0,0.0,0.0,0.0,0.0,0.0,0.0,0.0,0.0,0.0,0.0,0.0,0.0,0.0,0.0,0.0,0.0,0.0,0.0,0.0,0.0,0.0,0.0,0.0,0.0,0.0,0.0,0.0,0.0,0.0,0.0,0.0,0.0,0.0,0.0,0.0,0.0,0.0,0.0,0.0,0.0,0.0,0.0,0.0,0.0,0.0,0.0,0.0,0.0,0.0,0.0,0.0,0.0,0.0,0.0,0.0,0.0,0.0,0.0,0.0,0.0,0.0,0.0,0.0,0.0,0.0,0.0,0.0,0.0,0.0,0.0,0.0,0.0,0.0,0.0,0.0,0.0,0.0,0.0,0.0,0.0,0.0,0.0,0.0,0.0,0.0,0.0,0.0,0.0,0.0,0.0,0.0,0.0,0.0,0.0,0.0,0.0,0.0,0.0,0.0,0.0,0.0,0.0,0.0,0.0,0.0,0.0,0.0,0.0,0.0,0.0,0.0,0.0,0.0,0.0,0.0,0.0,0.0,0.0,0.0,0.0,0.0,0.0,0.0,0.0,0.0,0.0,0.0,0.0,0.0,0.0,0.0,0.0,0.0,0.0,0.0,0.0,0.0,0.0,0.0,0.0,0.0,0.0,0.0,0.0,0.0,0.0,0.0,0.0,0.0,0.0,0.0,0.0,0.0,0.0,0.0,0.0,0.0,0.0,0.0,0.0,0.0,0.0,0.0,0.0,0.0,0.0,0.0,0.0,0.0,0.0,0.0,0.0,0.0,0.0,0.0,0.0,0.0,0.0,0.0,0.0,0.0,0.0,0.0,0.0,0.0,0.0,0.0,0.0,0.0,0.0,0.0,0.0,0.0,0.0,0.0,0.0,0.0,0.0,0.0,0.0,0.0,0.0,0.0,0.0,0.0,0.0,0.0,0.0,0.0,0.0,0.0,0.0,0.0,0.0,0.0,0.0,0.0,0.0,0.0,0.0,0.0,0.0,0.0,0.0,0.0,0.0,0.0,0.0,0.0,0.0,0.0,0.0,0.0,0.0,0.0,0.0,0.0,0.0,0.0,0.0,0.0,0.0,0.0,0.0,0.0,0.0,0.0,0.0,0.0,0.0,0.0,0.0,0.0,0.0,0.0,0.0,0.0,0.0,0.0,0.0,0.0,0.0,0.0,0.0,0.0,0.0,0.0,0.0,0.0,0.0,0.0,0.0,0.0,0.0,0.0,0.0,0.0,0.0,0.0,0.0,0.0,0.0,0.0,0.0,0.0,0.0,0.0,0.0,0.0,0.0,0.0,0.0,0.0,0.0,0.0,0.0,0.0,0.0,0.0,0.0,0.0,0.0,0.0,0.0,0.0,0.0,0.0,0.0,0.0,0.0,0.0,0.0,0.0,0.0,0.0,0.0,0.0,0.0,0.0,0.0,0.0,0.0,0.0,0.0,0.0,0.0,0.0,0.0,0.0,0.0,0.0,0.0,0.0,0.0,0.0,0.0,0.0,0.0,0.0,0.0,0.0,0.0,0.0,0.0,0.0,0.0,0.0,0.0,0.0,0.0,0.0,0.0,0.0,0.0,0.0,0.0,0.0,0.0,0.0,0.0,0.0,0.0,0.0,0.0,0.0,0.0,0.0,0.0,0.0,0.0,0.0,0.0,0.0,0.0,0.0,0.0,0.0,0.0,0.0,0.0,0.0,0.0,0.0,0.0,0.0,0.0,0.0,0.0,0.0,0.0,0.0,0.0,0.0,0.0,0.0,0.0,0.0,0.0,0.0,0.0,0.0,0.0,0.0,0.0,0.0,0.0,0.0,0.0,0.0,0.0,0.0,0.0,0.0,0.0,0.0,0.0,0.0,0.0,0.0,0.0,0.0,0.0,0.0,0.0,0.0,0.0,0.0,0.0,0.0,0.0,0.0,0.0,0.0,0.0,0.0,0.0,0.0,0.0,0.0,0.0,0.0,0.0,0.0,0.0,0.0,0.0,0.0,0.0,0.0,0.0,0.0,0.0,0.0,0.0,0.0,0.0,0.0,0.0,0.0,0.0,0.0,0.0,0.0,0.0,0.0,0.0,0.0,0.0,0.0,0.0,0.0,0.0,0.0,0.0,0.0,0.0,0.0,0.0,0.0,0.0,0.0,0.0,0.0,0.0,0.0,0.0,0.0,0.0,0.0,0.0,0.0,0.0,0.0,0.0,0.0,0.0,0.0,0.0,0.0,0.0,0.0,0.0,0.0,0.0,0.0,0.0,0.0,0.0,0.0,0.0,0.0,0.0,0.0,0.0,0.0,0.0,0.0,0.0,0.0,0.0,0.0,0.0,0.0,0.0,0.0,0.0,0.0,0.0,0.0,0.0,0.0,0.0,0.0,0.0,0.0,0.0,0.0,0.0,0.0,0.0,0.0,0.0,0.0,0.0,0.0,0.0,0.0,0.0,0.0,0.0,0.0,0.0,0.0,0.0,0.0,0.0,0.0,0.0,0.0,0.0,0.0,0.0,0.0,0.0,0.0,0.0,0.0,0.0,0.0,0.0,0.0,0.0,0.0,0.0,0.0,0.0,0.0,0.0,0.0,0.0,0.0,0.0,0.0,0.0,0.0,0.0,0.0,0.0,0.0,0.0,0.0,0.0,0.0,0.0,0.0,0.0,0.0,0.0,0.0,0.0,0.0,0.0,0.0,0.0,0.0,0.0,0.0,0.0,0.0,0.0,-6.3079,-6.3079,0.0,0.0,0.0,0.0,0.0,0.0,0.0,0.0,0.0,0.0,0.0,0.0,0.0,0.0,0.0,0.0,0.0,0.0,0.0,0.0,0.0,0.0,0.0,0.0,0.0,0.0,0.0,0.0,0.0,0.0,0.0,0.0,0.0,0.0,0.0,0.0,0.0,0.0,0.0,0.0,0.0,0.0,0.0,0.0,0.0,0.0,0.0,0.0,0.0,0.0,0.0,0.0,0.0,0.0,0.0,0.0,0.0,0.0,0.0,0.0,0.0,0.0,0.0,0.0,0.0,0.0,0.0,0.0,0.0,0.0,0.0,0.0,0.0,0.0,0.0,0.0,0.0,0.0,0.0,0.0,0.0,0.0,0.0,0.0,0.0,0.0,0.0,0.0,0.0,0.0,0.0,0.0,0.0,0.0,0.0,0.0,0.0,0.0,0.0,0.0,0.0,0.0,0.0,0.0,0.0,0.0,0.0,0.0,0.0,0.0,0.0,0.0,0.0,0.0,-6.3079,-6.3194,0.0,0.0,0.0,0.0,0.0,0.0,0.0,0.0,0.0,0.0,0.0,0.0,0.0,0.0,0.0,0.0,0.0,0.0,0.0,0.0,0.0,0.0,0.0,0.0,0.0,0.0,0.0,0.0,0.0,0.0,0.0,0.0,0.0,0.0,0.0,0.0,0.0,0.0,0.0,0.0,0.0,0.0,0.0,0.0,0.0,0.0,0.0,0.0,0.0,0.0,0.0,0.0,0.0,0.0,0.0,0.0,0.0,0.0,0.0,0.0,0.0,0.0,0.0,0.0,0.0,0.0,0.0,0.0,0.0,0.0,0.0,0.0,0.0,0.0,0.0,0.0,0.0,0.0,0.0,0.0,0.0,0.0,0.0,0.0,0.0,0.0,0.0,0.0,0.0,0.0,0.0,0.0,0.0,0.0,0.0,0.0,0.0,0.0,0.0,0.0,0.0,0.0,0.0,0.0,0.0,0.0,0.0,0.0,-6.1969,-6.2731,-6.2731,-6.2963,-6.3079,-6.3079,-6.3194,-6.3309,-6.3538,-6.3309,0.0,0.0,0.0,0.0,0.0,0.0,0.0,0.0,0.0,0.0,0.0,0.0,0.0,0.0,0.0,0.0,0.0,0.0,0.0,0.0,0.0,0.0,0.0,0.0,0.0,0.0,0.0,0.0,0.0,0.0,0.0,0.0,0.0,0.0,0.0,0.0,0.0,0.0,0.0,0.0,0.0,0.0,0.0,0.0,0.0,0.0,0.0,0.0,0.0,0.0,0.0,0.0,0.0,0.0,0.0,0.0,0.0,0.0,0.0,0.0,0.0,0.0,0.0,0.0,0.0,0.0,0.0,0.0,0.0,0.0,0.0,0.0,0.0,0.0,0.0,0.0,0.0,0.0,0.0,0.0,0.0,0.0,0.0,0.0,0.0,0.0,-4.8709,-4.9107,0.0,0.0,0.0,0.0,0.0,0.0,0.0,0.0,0.0,0.0,0.0,0.0,0.0,-5.8439,-5.9777,-6.1436,-6.2234,-6.2234,-6.2847,-6.3079,-6.3079,-6.3079,-6.3079,-6.3079,-6.3309,0.0,-6.3538,-6.3766,0.0,0.0,0.0,0.0,0.0,0.0,0.0,0.0,0.0,0.0,0.0,0.0,0.0,0.0,0.0,0.0,0.0,0.0,0.0,0.0,0.0,0.0,0.0,0.0,0.0,0.0,0.0,0.0,0.0,0.0,0.0,0.0,0.0,0.0,0.0,0.0,0.0,0.0,0.0,0.0,0.0,0.0,0.0,0.0,0.0,0.0,0.0,0.0,0.0,0.0,0.0,0.0,0.0,0.0,0.0,0.0,0.0,0.0,0.0,0.0,0.0,0.0,0.0,0.0,0.0,0.0,0.0,0.0,0.0,0.0,0.0,0.0,0.0,0.0,0.0,0.0,0.0,0.0,0.0,0.0,0.0,0.0,0.0,0.0,0.0,-4.6848,-4.8705,-5.0857,-5.1911,-5.2377,0.0,0.0,0.0,0.0,0.0,0.0,0.0,0.0,0.0,-5.7369,-5.8032,-5.9036,-6.0566,-6.2087,-6.2847,-6.2847,-6.3079,-6.3079,-6.3079,-6.3079,-6.3079,-6.3079,-6.3538,-6.3766,-6.3766,-6.3993,-6.4106,-6.4188,0.0,0.0,0.0,0.0,-6.6023,-6.6869,0.0,0.0,0.0,0.0,0.0,0.0,0.0,0.0,0.0,0.0,0.0,0.0,0.0,0.0,0.0,2.781,0.0,0.0,0.0,0.0,0.0,0.0,0.0,0.0,0.0,0.0,0.0,0.0,0.0,0.0,0.0,0.0,0.0,0.0,0.0,0.0,0.0,0.0,0.0,0.0,0.0,0.0,0.0,0.0,0.0,0.0,0.0,0.0,0.0,0.0,0.0,0.0,0.0,0.0,0.0,0.0,0.0,0.0,0.0,0.0,0.0,0.0,0.0,0.0,0.0,0.0,0.0,0.0,0.0,0.0,0.0,0.0,0.0,0.0,0.0,0.0,0.0,-4.7759,-4.9224,-5.2213,-5.2629,-5.2629,0.0,0.0,0.0,0.0,0.0,0.0,-5.5604,-5.4994,-5.5894,-5.8509,-5.8634,-5.9408,-6.1077,-6.2087,-6.2585,-6.2585,-6.2963,-6.3079,-6.3079,-6.3079,-6.3079,-6.3079,-6.3766,-6.3993,-6.3993,-6.4218,-6.43,-6.4524,-6.4604,-6.4715,-6.4936,-6.5592,-6.6448,-6.7317,0.0,0.0,0.0,0.0,0.0,0.0,0.0,0.0,0.0,0.0,0.0,0.0,0.0,0.0,2.8435,2.813,2.8099,2.7955,0.0,0.0,0.0,0.0,0.0,0.0,0.0,0.0,0.0,0.0,0.0,0.0,0.0,0.0,0.0,0.0,0.0,0.0,0.0,0.0,2.1357,2.3128,0.0,0.0,0.0,0.0,0.0,0.0,0.0,0.0,0.0,0.0,0.0,0.0,0.0,0.0,0.0,0.0,0.0,0.0,0.0,0.0,0.0,0.0,0.0,0.0,0.0,0.0,0.0,0.0,0.0,0.0,0.0,0.0,0.0,0.0,0.0,0.0,0.0,0.0,0.0,-5.2767,-5.3452,0.0,0.0,0.0,0.0,-5.3997,-5.3997,-5.4106,-5.4485,-5.5762,-5.7167,-5.9064,-5.9064,-5.9683,-6.1106,-6.1226,-6.1226,-6.1226,-6.2468,-6.3079,-6.3079,-6.3079,-6.3079,-6.3079,-6.3766,-6.3993,-6.3993,-6.4666,-6.4888,-6.4888,-6.5187,-6.5297,-6.5297,-6.5978,-6.6796,-6.7797,0.0,0.0,0.0,0.0,0.0,0.0,0.0,0.0,0.0,0.0,0.0,0.0,0.0,2.7939,2.6949,2.5945,2.575,2.5639,2.5345,0.0,0.0,0.0,0.0,0.0,0.0,0.0,0.0,0.0,0.0,0.0,0.0,0.0,0.0,0.0,0.0,0.0,0.0,2.1592,2.1806,2.3484,2.3229,2.405,0.0,0.0,0.0,0.0,0.0,0.0,0.0,0.0,0.0,0.0,0.0,0.0,0.0,0.0,0.0,0.0,0.0,0.0,0.0,0.0,0.0,0.0,0.0,0.0,0.0,0.0,0.0,0.0,0.0,0.0,0.0,0.0,0.0,0.0,0.0,0.0,0.0,-5.3179,-5.3725,0.0,-5.3478,-5.3997,-5.4376,-5.4376,-5.4537,-5.518,-5.6052,-5.5815,-5.634,-5.7834,-5.7834,-5.8467,-5.9834,-6.0716,-6.1584,-6.2438,-6.2817,-6.3079,-6.3079,-6.3079,-6.3079,-6.3079,-6.3766,-6.3993,-6.4106,-6.4666,-6.4888,-6.4888,-6.5187,-6.5406,-6.5592,-6.6374,-6.7285,-6.8101,0.0,0.0,0.0,0.0,0.0,0.0,0.0,0.0,0.0,0.0,0.0,2.9735,2.791,2.6951,2.6075,2.4935,2.4807,2.4486,2.4039,0.0,0.0,0.0,0.0,0.0,0.0,0.0,0.0,0.0,0.0,0.0,0.0,0.0,0.0,0.0,0.0,0.0,2.5803,2.366,2.3476,2.4614,2.4467,2.4945,2.5753,0.0,0.0,0.0,0.0,0.0,0.0,0.0,0.0,0.0,0.0,0.0,0.0,0.0,0.0,0.0,0.0,0.0,0.0,0.0,0.0,0.0,0.0,0.0,0.0,0.0,0.0,0.0,0.0,0.0,0.0,0.0,0.0,0.0,0.0,-5.0362,-5.1837,-5.3179,-5.3725,-5.3861,-5.3751,-5.4106,-5.4511,-5.4645,-5.4939,-5.5472,-5.634,-5.5973,-5.6209,-5.7092,-5.7092,-5.7578,-5.8439,-5.9711,-6.0837,-6.1821,-6.2701,-6.3079,-6.3079,-6.3079,-6.3079,-6.3079,-6.3766,-6.3993,-6.4106,-6.4666,-6.4888,-6.4888,-6.5297,-6.5483,-6.5808,-6.6764,-6.7593,-6.8301,0.0,0.0,0.0,0.0,0.0,0.0,0.0,0.0,0.0,0.0,3.0233,2.8896,2.7373,2.6543,2.5838,2.5558,2.5264,2.4789,2.4022,2.3604,0.0,0.0,0.0,0.0,0.0,0.0,0.0,0.0,0.0,0.0,0.0,0.0,0.0,0.0,2.5705,2.5959,2.5985,2.6266,2.6386,2.6386,2.6386,2.6228,2.5753,0.0,0.0,0.0,0.0,0.0,0.0,0.0,0.0,0.0,0.0,0.0,0.0,0.0,0.0,0.0,0.0,0.0,0.0,0.0,0.0,0.0,0.0,0.0,0.0,0.0,0.0,0.0,0.0,0.0,0.0,0.0,0.0,0.0,-5.0479,-5.123,-5.2,-5.2792,-5.3589,-5.3997,-5.3997,-5.4376,-5.4645,-5.5099,-5.5099,-5.5099,-5.5099,-5.634,-5.7092,-5.7092,-5.7092,-5.7092,-5.7092,-5.8439,-5.9064,-5.9189,-6.1821,-6.3079,-6.3079,-6.3079,-6.3079,-6.3079,-6.3766,-6.3993,-6.4106,-6.4666,-6.4888,-6.4998,-6.5483,-6.57,-6.5808,-6.6974,-6.7797,-6.8501,0.0,0.0,0.0,0.0,0.0,0.0,0.0,0.0,0.0,0.0,3.0573,2.9378,2.7688,2.668,2.5919,2.5838,2.5558,2.5152,2.4337,0.0,0.0,0.0,0.0,0.0,0.0,0.0,0.0,0.0,0.0,0.0,0.0,0.0,0.0,2.5718,2.5879,2.6079,2.6279,2.636,2.6386,2.6386,2.6386,2.6386,2.6228,0.0,0.0,0.0,0.0,0.0,0.0,0.0,0.0,0.0,0.0,0.0,0.0,0.0,0.0,0.0,0.0,0.0,0.0,0.0,0.0,0.0,0.0,0.0,0.0,0.0,0.0,0.0,0.0,0.0,0.0,0.0,-4.7881,-4.9344,-5.0668,-5.2391,-5.3427,-5.3341,-5.3997,-5.4241,-5.3997,-5.4537,-5.4965,-5.5099,-5.5099,-5.5099,-5.5099,-5.5472,-5.5604,-5.5604,-5.6601,-5.7092,-5.7092,-5.8439,-5.956,-6.0595,-6.1346,-6.2204,-6.3079,-6.3079,-6.3079,-6.3079,-6.3766,-6.3993,-6.4106,-6.4666,-6.4998,-6.5187,-6.5592,-6.57,-6.5915,-6.7388,-6.86,-6.9577,0.0,0.0,0.0,0.0,0.0,0.0,0.0,0.0,0.0,0.0,3.0438,2.9404,2.7395,2.6602,2.6132,2.6132,2.5604,2.498,2.4505,0.0,0.0,0.0,0.0,0.0,0.0,0.0,0.0,0.0,0.0,0.0,0.0,2.5384,2.5625,2.5959,2.6079,2.6226,2.6386,2.6386,2.6386,2.6386,2.6386,2.6386,2.6386,2.607,2.5911,2.5594,2.3496,2.1479,1.9413,1.7262,0.0,0.0,0.0,0.0,0.0,0.0,0.0,0.0,0.0,0.0,0.0,0.0,0.0,0.0,0.0,0.0,0.0,0.0,0.0,0.0,0.0,0.0,0.0,0.0,-4.9081,-5.0551,-5.1722,-5.3154,-5.3861,-5.3341,-5.3861,-5.4241,-5.3997,-5.4537,-5.4939,-5.5099,-5.5099,-5.5099,-5.5099,-5.5099,-5.5099,-5.5099,-5.5842,-5.6209,-5.6209,-5.8214,-5.9436,-6.0323,-6.1465,-6.2321,-6.3079,-6.3079,-6.3079,-6.3079,-6.3766,-6.3993,-6.4106,-6.4666,-6.5108,-6.5297,0.0,0.0,0.0,0.0,-6.9649,-7.0951,0.0,0.0,0.0,0.0,0.0,0.0,0.0,0.0,0.0,0.0,0.0,2.9012,2.6702,2.6386,2.6386,2.6386,2.5594,2.4816,0.0,0.0,0.0,0.0,0.0,0.0,0.0,0.0,0.0,0.0,0.0,0.0,2.5251,2.5825,2.5972,2.6012,2.6279,2.6386,2.6386,2.6386,2.6386,2.6386,2.6386,2.6386,2.6386,2.6386,2.6228,2.5581,2.3656,2.1574,1.9624,1.753,0.0,0.0,0.0,0.0,0.0,0.0,0.0,0.0,0.0,0.0,0.0,0.0,0.0,0.0,0.0,0.0,0.0,0.0,0.0,0.0,0.0,0.0,0.0,0.0,-5.0434,-5.2629,-5.2929,-5.3452,-5.3725,-5.2929,-5.3452,-5.3997,-5.3997,-5.4241,-5.4645,-5.5099,-5.5099,-5.5099,-5.5099,-5.5099,0.0,0.0,0.0,-5.5365,-5.5365,-5.7706,-5.9064,-5.9313,-6.1555,-6.2817,-6.3079,-6.3079,-6.3079,-6.3079,-6.3766,-6.3993,-6.4106,-6.4666,-6.5108,-6.5406,-6.5685,-6.6148,-6.6807,-6.8731,-7.0699,-7.2471,0.0,0.0,0.0,0.0,0.0,0.0,0.0,0.0,0.0,3.0253,2.8842,2.7605,2.6544,2.6386,2.6386,2.6386,2.5964,2.5335,0.0,0.0,0.0,0.0,0.0,0.0,0.0,0.0,0.0,0.0,0.0,2.3532,2.3803,2.5283,2.6079,2.6306,2.636,2.6386,2.6386,2.6386,2.6386,2.6386,2.6386,2.6386,2.6386,2.6386,2.6386,2.5898,2.2671,2.1351,2.031,1.6768,1.3951,1.1463,0.9577,0.6479,0.0,0.0,0.0,0.0,0.0,0.0,0.0,0.0,0.0,0.0,0.0,0.0,0.0,0.0,0.0,0.0,0.0,0.0,0.0,-4.7344,-4.9534,-5.1443,-5.2767,-5.3341,-5.3478,-5.2929,-5.3341,-5.3751,-5.3997,-5.4241,-5.4645,-5.5099,-5.5099,-5.5099,-5.5099,-5.5099,-5.5099,-5.5099,-5.6105,-5.6704,-5.6704,-5.7221,-5.8592,-6.0716,-6.0202,0.0,-6.3079,-6.3079,-6.3079,-6.3079,-6.3766,-6.3993,-6.4106,-6.4666,-6.5187,-6.5762,-6.6541,-6.762,-6.8834,-6.975,-7.1125,-7.2538,0.0,0.0,0.0,0.0,0.0,0.0,0.0,0.0,0.0,0.0,2.9012,2.7776,2.5911,2.5766,2.5766,2.5766,2.5464,0.0,0.0,0.0,0.0,0.0,0.0,0.0,0.0,0.0,0.0,2.1783,2.2721,2.3803,2.4888,2.5845,2.6253,2.6386,2.6386,2.6386,2.6386,2.6386,2.6386,2.6386,2.6386,2.6386,2.6386,2.6386,2.6386,2.5898,2.251,2.1222,2.0554,1.6897,1.3596,1.0941,0.9399,0.593,0.1818,0.0,0.0,0.0,0.0,0.0,0.0,0.0,0.0,0.0,0.0,0.0,0.0,0.0,0.0,-4.1404,-4.2524,0.0,-4.678,-4.7804,-5.0127,-5.205,-5.2792,-5.3067,-5.3067,-5.2929,-5.3589,-5.3997,-5.3997,-5.4537,-5.4939,-5.5099,-5.5099,-5.5099,-5.5099,-5.5099,-5.5099,-5.5099,-5.571,-5.6105,-5.6105,-5.7451,-5.8815,-6.0079,-6.0808,-6.1821,-6.3079,-6.3079,-6.3194,-6.3309,-6.3766,-6.4106,-6.43,-6.4967,-6.5515,-6.6148,-6.7723,-6.8956,-7.002,-7.0908,-7.2314,-7.3736,0.0,0.0,0.0,0.0,0.0,0.0,0.0,0.0,0.0,0.0,2.8871,2.7619,2.5289,2.513,2.513,0.0,0.0,0.0,0.0,0.0,0.0,0.0,0.0,0.0,0.0,0.0,2.0737,2.2519,2.2835,2.3903,2.5898,2.6228,2.6386,2.6386,2.6386,2.6386,2.6386,2.6386,2.6386,2.6386,2.6386,2.6386,2.6386,2.6386,2.6386,2.5898,2.251,2.1222,2.0565,1.6673,1.3204,1.0206,0.9036,0.536,0.084,-0.2181,-0.5363,0.0,0.0,0.0,0.0,0.0,0.0,0.0,0.0,-3.6121,-3.7878,-4.012,-4.1713,-4.2677,-4.3004,-4.5617,-4.7804,-4.8263,-5.0882,-5.2929,-5.2929,-5.2929,-5.3067,-5.3067,-5.3725,-5.4241,-5.3997,-5.4537,-5.4965,-5.5099,-5.5099,-5.5099,-5.5099,-5.5099,-5.5099,-5.5099,-5.5099,-5.5232,-5.5472,-5.7322,-5.8564,-5.9189,-6.1316,-6.2438,-6.2701,-6.2963,-6.3309,-6.3538,-6.3849,-6.43,-6.4604,-6.5375,-6.5947,-6.6456,-6.8744,-7.0026,-7.0572,-7.1966,-7.354,-7.4968,0.0,0.0,0.0,0.0,0.0,0.0,0.0,0.0,0.0,0.0,0.0,0.0,0.0,0.0,0.0,0.0,0.0,0.0,0.0,0.0,0.0,0.0,0.0,0.0,0.0,0.0,1.8885,1.9076,2.0695,2.2327,2.4136,2.574,2.6386,2.6386,2.6386,2.6386,2.6386,2.6386,2.6386,2.6386,2.6386,2.6386,2.6386,2.6386,2.6386,2.5898,2.251,2.1222,2.0403,1.4841,1.1535,0.9202,0.7038,0.3018,-0.1344,-0.3355,-0.67,-1.0372,-1.37,-1.9058,-2.4365,-2.7134,-3.0513,-3.3918,0.0,-3.8827,-4.0569,-4.281,-4.3289,-4.3462,-4.3462,-4.6085,-4.8263,-4.8263,-5.0882,-5.2929,-5.2929,-5.3204,-5.3478,-5.3478,-5.3478,-5.3725,-5.3997,-5.4376,-5.4671,-5.5099,-5.5099,-5.5099,-5.5099,-5.5099,-5.5099,-5.5099,-5.5099,-5.5736,-5.6834,-5.5973,-5.6704,-5.9064,-5.9436,-6.0202,-6.1346,-6.2585,-6.3309,-6.3538,-6.4075,-6.4746,-6.5187,-6.5592,-6.5947,-6.6425,-6.9166,-7.0371,-7.0636,-7.2489,-7.397,-7.4968,0.0,0.0,0.0,0.0,0.0,0.0,0.0,0.0,0.0,0.0,0.0,0.0,0.0,0.0,0.0,0.0,0.0,0.0,0.0,0.0,0.0,0.0,0.0,0.0,0.0,1.8472,1.7656,1.8626,2.0403,2.2028,2.3816,2.5581,2.6386,2.6386,2.6386,2.6386,2.6386,2.6386,2.6386,2.6386,2.6386,2.6386,2.6386,2.6386,2.574,2.4455,2.1856,2.0241,0.0,1.3851,1.087,0.8536,0.5694,0.2012,-0.1847,-0.4691,-0.8032,-1.221,-1.8238,-2.2233,-2.53,-2.8562,-3.1625,-3.4486,-3.6887,-3.8984,-4.1035,-4.3136,-4.3615,-4.3615,-4.3615,-4.6233,-4.8263,-4.8263,-5.0882,-5.2929,-5.3204,-5.3341,-5.3614,-5.3725,-5.3997,-5.4106,-5.4241,-5.4671,-5.4939,-5.5099,-5.5099,-5.5099,-5.5099,-5.5099,-5.5099,-5.5099,-5.5099,-5.5339,-5.5973,-5.6078,-5.7221,-5.9064,-5.9957,-6.0957,-6.2321,-6.2817,-6.3309,-6.388,-6.4412,-6.4967,-6.5483,-6.57,-6.6054,-6.6744,-6.9375,-7.0371,-7.074,-7.3102,-7.4473,-7.4968,0.0,0.0,0.0,0.0,0.0,0.0,0.0,0.0,0.0,0.0,0.0,0.0,0.0,0.0,0.0,0.0,0.0,0.0,0.0,0.0,0.0,0.0,0.0,0.0,2.0403,1.7501,1.6854,1.8626,2.0403,2.2028,2.3816,2.5581,2.6386,2.6386,2.6386,2.6386,2.6386,2.6386,2.6386,2.6386,2.6386,2.6386,2.6386,2.5898,2.4455,2.2671,2.12,1.943,1.7319,1.2688,1.0039,0.8036,0.4356,0.0839,-0.235,-0.6025,-0.9858,-1.4533,-2.1796,-2.422,-2.5804,-2.9592,-3.267,-3.5154,-3.6922,-3.9299,-4.1539,-4.3289,-4.3615,-4.3615,-4.3615,-4.6233,-4.8263,-4.8263,-5.0882,-5.3067,-5.3478,-5.3614,-5.3725,-5.4106,-5.4376,-5.4645,-5.4645,-5.4939,-5.5099,-5.5099,-5.5099,-5.5099,-5.5099,-5.5099,-5.5099,-5.5099,-5.5099,-5.5099,-5.5099,-5.6105,-5.7092,-5.7961,-5.9341,-6.0716,-6.2057,-6.2933,-6.3538,-6.3993,-6.4666,-6.5187,-6.57,-6.57,-6.613,-6.7028,-6.9478,-7.0474,-7.0945,-7.3741,-7.487,-7.5067,0.0,0.0,0.0,0.0,0.0,0.0,0.0,0.0,0.0,0.0,0.0,0.0,0.0,0.0,0.0,0.0,0.0,0.0,0.0,0.0,0.0,0.0,0.0,1.8626,1.8626,1.6854,1.6854,1.8626,2.0403,2.2028,2.3816,2.5581,2.6386,2.6386,2.6386,2.6386,2.6386,2.6386,2.6386,2.6386,2.6386,2.6386,2.6228,2.4455,2.251,2.0716,2.0554,1.943,1.6983,1.0859,0.8702,0.7702,0.2519,-0.084,-0.3353,-0.6853,-1.2014,-1.77,-2.2807,-2.4547,-2.5804,-2.9905,-3.3775,-3.6762,-3.7737,-4.0452,-4.3004,-4.3462,-4.3615,-4.3615,-4.3615,-4.6233,-4.8263,-4.8263,-5.0882,-5.3067,-5.3478,-5.3725,-5.4106,-5.4511,-5.4805,-5.5099,-5.5099,-5.5099,-5.5099,-5.5099,-5.5099,-5.5099,-5.5099,-5.5099,-5.5099,-5.5099,-5.5099,-5.5099,-5.5099,-5.5099,-5.5232,-5.5232,-5.6601,-5.7961,-5.9313,-6.2496,-6.3993,-6.3993,-6.4666,-6.5187,-6.57,-6.57,-6.6343,-6.7548,-6.9582,-7.068,-7.1453,-7.404,-7.4968,-7.5067,0.0,0.0,0.0,0.0,0.0,0.0,0.0,0.0,0.0,0.0,0.0,0.0,0.0,0.0,0.0,0.0,0.0,0.0,0.0,0.0,0.0,0.0,0.0,1.8626,1.8626,1.6854,1.6369,1.6854,1.9765,2.1545,2.2189,2.5092,2.6386,2.6386,2.6386,2.6386,2.6386,2.6386,2.6386,2.6386,2.6386,2.6386,2.6228,2.4123,2.2178,2.022,0.0,1.5147,1.3025,0.9373,0.653,0.3514,-0.0335,-0.3021,-0.5697,-1.0195,-1.5562,-2.0683,-2.3716,-2.564,-2.7423,-3.0238,-3.379,-3.6762,-3.6922,-3.9964,-4.2697,-4.3157,-4.3004,-4.2984,-4.3462,-4.5915,-4.7949,-4.8263,-5.1163,-5.3478,-5.3725,-5.4106,-5.4511,-5.4805,-5.4965,-5.5099,-5.5099,-5.5099,-5.5099,-5.5099,-5.5099,-5.5099,-5.5099,-5.5099,-5.5099,-5.5099,-5.5099,-5.5099,-5.5099,-5.5099,-5.5604,-5.6471,-5.8718,-6.0445,-6.1821,-6.3249,-6.3993,-6.3993,-6.4666,-6.5187,-6.57,-6.57,-6.6343,-6.7587,-6.9065,-7.0359,-7.1388,-7.3473,-7.4567,-7.5067,0.0,0.0,0.0,0.0,0.0,0.0,0.0,0.0,0.0,0.0,0.0,0.0,0.0,0.0,0.0,0.0,0.0,0.0,0.0,0.0,0.0,0.0,1.781,1.7328,1.7156,1.6361,1.6205,1.6689,1.9684,2.1413,2.2054,2.4837,2.6079,2.6079,2.6079,2.6079,2.6079,2.6079,2.5976,2.6069,2.5962,2.5557,2.4761,2.2556,2.0642,0.0,1.4482,1.1854,0.9878,0.7714,0.5028,0.1842,-0.1677,-0.536,-0.9373,-1.3424,-1.7991,-2.2135,-2.4294,-2.6351,-2.8247,-3.0231,-3.356,-3.6442,-3.6602,-3.9494,-4.2216,-4.2697,-4.2524,-4.2524,-4.331,-4.5617,-4.7781,-4.8263,-5.1163,-5.3478,-5.3997,-5.4241,-5.4511,-5.5099,-5.5099,-5.5099,-5.5099,-5.5099,-5.5099,-5.5099,-5.5099,-5.5099,-5.5099,-5.5099,-5.5099,-5.5099,-5.5099,-5.5099,-5.5099,-5.5099,-5.5472,-5.6471,-5.9093,-6.0957,-6.191,-6.3364,-6.4106,-6.4188,-6.4777,-6.5297,-6.57,-6.5839,-6.6554,-6.776,-6.8909,-7.0232,-7.1755,-7.3305,-7.443,-7.5131,0.0,0.0,0.0,0.0,0.0,0.0,0.0,0.0,0.0,0.0,0.0,0.0,0.0,0.0,0.0,0.0,0.0,0.0,0.0,0.0,0.0,1.4713,1.5051,1.5216,1.4713,1.5546,1.6525,1.7983,1.9875,2.1681,2.3406,2.4894,2.5558,2.5558,2.5558,2.5558,2.5558,2.5558,2.541,2.5322,2.5048,2.3984,2.2316,2.0314,1.8276,1.5983,1.2529,0.9711,0.7547,0.5873,0.4193,0.2011,-0.2013,-0.8032,-1.4073,-1.641,-1.9454,-2.2366,-2.4663,-2.6505,-2.8441,-3.0245,-3.3413,-3.6155,-3.6442,-3.9336,-4.1927,-4.2216,-4.237,-4.2524,-4.2851,-4.5468,-4.7636,-4.8263,-5.0882,-5.3179,-5.3861,-5.3997,-5.4267,-5.4965,-5.5099,-5.5099,-5.5099,-5.5099,-5.5099,-5.5099,-5.5099,-5.5099,-5.5099,-5.5099,-5.5099,-5.5099,-5.5099,-5.5099,-5.5099,-5.5099,-5.5099,-5.5232,-5.7834,-5.9313,-5.9655,-6.2612,-6.4188,-6.4382,-6.5077,-6.5483,-6.57,-6.6085,-6.7005,-6.8266,-6.8946,-7.0567,-7.2504,-7.3466,-7.4459,-7.5258,0.0,0.0,0.0,0.0,0.0,0.0,0.0,0.0,0.0,0.0,0.0,0.0,0.0,0.0,0.0,0.0,0.0,0.0,0.0,0.0,0.0,0.0,0.0,0.0,0.0,0.0,0.0,1.7501,1.9533,2.1607,2.3229,2.5242,2.6172,2.6172,2.6172,2.6002,2.5688,2.5688,2.5583,2.5174,2.5097,2.4013,2.2338,2.0169,1.7403,1.4145,1.02,0.771,0.587,0.436,-0.0167,-0.5685,-0.9286,-1.3023,-1.6576,-1.8588,-2.1609,-2.4627,-2.662,-2.8495,-3.0217,-3.0636,-3.3413,-3.5994,-3.6138,-3.8882,-4.1483,-4.1927,-4.1927,-4.2236,-4.2851,-4.4762,-4.678,-4.8384,-5.0857,-5.2854,-5.4241,-5.4671,-5.4831,-5.5099,-5.5099,-5.5099,-5.5099,-5.5099,-5.5099,-5.5099,-5.5099,-5.5099,-5.5099,-5.5099,-5.5099,-5.5099,-5.5099,-5.5099,-5.5099,-5.5099,-5.5604,-5.6601,-5.8313,-5.9777,-6.099,-6.3104,-6.4188,-6.4382,-6.5077,-6.5483,-6.5808,-6.648,-6.7285,-6.8201,-6.8795,-7.0107,-7.1675,-7.2696,-7.3687,-7.4551,0.0,0.0,0.0,0.0,0.0,0.0,0.0,0.0,0.0,0.0,0.0,0.0,0.0,0.0,0.0,0.0,0.0,0.0,0.0,0.0,0.0,0.0,0.0,0.0,0.0,0.0,0.0,0.0,0.0,2.1541,2.3964,2.527,2.5843,2.5374,2.5687,2.5531,2.5049,2.5049,2.5046,0.0,0.0,2.3211,2.0857,1.9608,1.6419,1.2272,0.9272,0.574,0.2029,-0.0847,-0.456,-0.8937,-1.2959,-1.5563,-1.7626,-2.0328,-2.3,-2.5502,-2.7482,-2.9341,-3.0984,-3.1798,-3.4066,-3.6155,-3.6957,-3.9216,-4.1327,-4.1483,-4.1618,-4.1927,-4.2697,-4.4461,-4.6507,-4.8529,-5.0551,-5.2554,-5.4216,-5.4645,-5.4939,-5.5099,-5.5099,-5.5099,-5.5099,-5.5099,-5.5099,-5.5099,-5.5099,-5.5099,-5.5099,-5.5099,-5.5099,-5.5099,-5.5099,-5.5099,-5.5099,-5.5099,-5.5472,-5.6209,-5.8214,-5.9655,-6.087,-6.2989,-6.4218,-6.4635,-6.5187,-6.5592,-6.5808,-6.6764,-6.7593,-6.8301,-6.8797,-7.0037,-7.1565,-7.2491,-7.3514,-7.4506,0.0,0.0,0.0,0.0,0.0,0.0,0.0,0.0,0.0,0.0,0.0,0.0,0.0,0.0,0.0,0.0,0.0,0.0,0.0,0.0,0.0,0.0,0.0,0.0,0.0,0.0,0.0,1.9267,1.9715,2.1545,2.4748,2.5127,2.5009,2.4379,2.4701,2.4701,2.4225,2.4263,2.4252,2.4357,2.3842,2.1882,1.9053,0.0,1.4944,1.0233,0.8025,0.3587,-0.2228,-0.7077,-0.8761,-0.9719,-1.4628,-1.7094,-1.8666,-2.1747,-2.4013,-2.5912,-2.7861,-2.9635,-3.115,-3.2936,-3.4717,-3.6477,-3.8231,-4.0021,-4.1172,-4.1172,-4.1618,-4.1927,-4.237,-4.4159,-4.6359,-4.8529,-5.0269,-5.2139,-5.4216,-5.4645,-5.4645,-5.5099,-5.5099,-5.5099,-5.5099,-5.5099,-5.5099,-5.5099,-5.5099,-5.5099,-5.5099,-5.5099,-5.5099,-5.5099,-5.5099,-5.5099,-5.5099,-5.5099,-5.5099,-5.5099,-5.7706,-5.9284,-6.0087,-6.2612,-6.4188,-6.4888,-6.5515,-6.57,-6.5808,-6.6974,-6.7797,-6.8301,-6.8896,-7.0067,-7.162,-7.2357,-7.3474,-7.4559,0.0,0.0,0.0,0.0,0.0,0.0,0.0,0.0,0.0,0.0,0.0,0.0,0.0,0.0,0.0,0.0,0.0,0.0,0.0,0.0,0.0,0.0,0.0,0.0,0.0,1.3569,1.5365,1.8789,1.9228,2.1157,2.4577,2.5003,2.5135,2.499,2.4977,2.4831,2.4527,2.4739,2.4566,2.4178,2.2849,2.0983,1.8903,1.5624,0.0,0.0,0.3633,0.0,0.0,0.0,-1.0929,-1.2417,-1.6191,-1.9163,-2.1927,-2.421,-2.6149,-2.803,-2.9788,-3.0484,-3.115,-3.2936,-3.4717,-3.6477,-3.8231,-4.0021,-4.1172,-4.1172,-4.1773,-4.237,-4.237,-4.3594,-4.549,-4.8627,-4.9819,-5.1394,-5.4537,-5.4965,-5.4965,-5.5099,-5.5099,-5.5099,-5.5099,-5.5099,-5.5099,-5.5099,-5.5099,-5.5099,-5.5099,-5.5099,-5.5099,-5.5099,-5.5099,-5.5099,-5.5099,-5.5099,-5.5099,-5.5099,-5.6963,-5.8662,-6.0087,-6.188,-6.3592,-6.4888,-6.5515,-6.57,-6.5808,-6.7356,-6.8101,-6.8301,-6.9285,-7.0054,-7.0817,-7.1587,-7.27,-7.3781,0.0,0.0,0.0,0.0,0.0,0.0,0.0,0.0,0.0,0.0,0.0,0.0,0.0,0.0,0.0,0.0,0.0,0.0,0.0,0.0,0.0,0.0,0.0,0.0,0.0,1.3403,1.4706,1.7311,0.0,2.0413,2.2854,2.432,2.4811,2.4492,2.4652,2.4566,2.438,2.4356,2.4353,2.4267,2.2422,2.066,1.8735,0.0,0.0,0.0,0.0,0.0,0.0,0.0,-1.2848,-1.5082,-1.8986,-2.1272,-2.3005,-2.6016,-2.7422,-2.8446,-3.0317,-3.1467,-3.2608,-3.4392,-3.5994,-3.7755,-3.955,-4.0529,-4.1327,-4.1483,-4.1927,-4.2524,-4.2697,-4.3615,-4.5063,-4.749,-4.9081,-5.0809,-5.3215,-5.4511,-5.5099,-5.5099,-5.5099,-5.5099,-5.5099,-5.5099,-5.5099,-5.5099,-5.5099,-5.5099,-5.5099,-5.5099,-5.5099,-5.5099,-5.5099,-5.5099,-5.5099,-5.5099,-5.5099,-5.5099,-5.6861,-5.8439,-6.0087,-6.1733,-6.3448,-6.5077,-6.5483,-6.5808,-6.6054,-6.7593,-6.8201,-6.8301,-6.9382,-7.0082,-7.0616,-7.1386,-7.2498,-7.3612,0.0,0.0,0.0,0.0,0.0,0.0,0.0,0.0,0.0,0.0,0.0,0.0,0.0,0.0,0.0,0.0,0.0,0.0,0.0,0.0,0.0,0.0,0.0,0.0,0.0,0.0,0.0,1.6008,1.8128,0.0,0.0,0.0,0.0,0.0,2.4172,2.4282,2.4142,2.3501,2.3504,0.0,0.0,1.959,1.7704,0.0,0.0,0.0,0.0,0.0,0.0,0.0,-1.4035,-1.723,-2.176,-2.3159,-2.3846,-2.7084,-2.8265,-2.895,-3.0484,-3.2128,-3.3756,-3.5511,-3.7277,-3.904,-4.0841,-4.1172,-4.1327,-4.1618,-4.2082,-4.2524,-4.2851,-4.3462,-4.4633,-4.6189,-4.8361,-5.0386,-5.1901,-5.3784,-5.4965,-5.5099,-5.5099,-5.5099,-5.5099,-5.5099,-5.5099,-5.5099,-5.5099,-5.5099,-5.5099,-5.5099,-5.5099,-5.5099,-5.5099,-5.5099,-5.5099,-5.5099,-5.5099,-5.5099,-5.6601,-5.8186,-6.0087,-6.1496,-6.3304,-6.5297,-6.5592,-6.5947,-6.6512,-6.7695,-6.8301,-6.8501,-6.9511,-7.0176,-7.0582,-7.1278,-7.2262,-7.3375,0.0,0.0,0.0,0.0,0.0,0.0,0.0,0.0,0.0,0.0,0.0,0.0,0.0,0.0,0.0,0.0,0.0,0.0,0.0,0.0,0.0,0.0,0.0,0.0,0.0,0.0,0.0,1.6008,1.7801,0.0,0.0,0.0,0.0,0.0,0.0,2.3852,2.3728,2.2307,0.0,0.0,0.0,0.0,0.0,0.0,0.0,0.0,0.0,-0.4886,-0.7552,-1.1412,-1.4304,-1.7397,-2.3298,-2.5203,-2.5385,-2.7096,-2.8964,-3.0651,-3.0817,-3.2128,-3.3756,-3.5511,-3.7277,-3.904,-4.0841,-4.1172,-4.1172,-4.1172,-4.1927,-4.237,-4.237,-4.3136,-4.4331,-4.6189,-4.7804,-4.9653,-5.1901,-5.3487,-5.4645,-5.5099,-5.5099,-5.5099,-5.5099,-5.5099,-5.5099,-5.5099,-5.5099,-5.5099,-5.5099,-5.5099,-5.5099,-5.5099,-5.5099,-5.5099,-5.5099,-5.5099,-5.5099,-5.5099,-5.5868,-5.7578,-5.9965,-6.075,-6.2668,-6.5297,-6.5592,-6.613,-6.7005,-6.7797,-6.8501,-6.8994,-6.9798,-7.027,-7.0515,-7.0892,-7.158,-7.2597,0.0,0.0,0.0,0.0,0.0,0.0,0.0,0.0,0.0,0.0,0.0,0.0,0.0,0.0,0.0,0.0,0.0,0.0,0.0,0.0,0.0,0.0,0.0,0.0,0.0,0.0,1.4225,1.4375,1.7156,0.0,0.0,0.0,0.0,0.0,0.0,2.3504,2.265,2.1938,0.0,0.0,0.0,0.0,0.0,0.0,0.0,0.0,0.0,0.0,-1.0872,-1.3153,-1.6727,-2.0722,-2.3652,-2.5714,-2.7422,-2.895,-3.015,-3.0984,-3.2128,-3.3576,-3.5349,-3.7117,-3.8901,-4.0353,-4.1016,-4.1172,-4.1327,-4.1773,-4.2216,-4.2524,-4.2984,-4.3462,-4.3898,-4.4612,-4.6189,-4.8072,-4.9937,-5.1648,-5.324,-5.4645,-5.4805,-5.4805,-5.5099,-5.5099,-5.5099,-5.5099,-5.5099,-5.5099,-5.5099,-5.5099,-5.5099,-5.5099,-5.5099,-5.5099,-5.5099,-5.5099,-5.5099,-5.5099,-5.6601,-5.8159,-6.0087,-6.1467,-6.3357,-6.5592,-6.57,-6.6236,-6.7317,-6.7899,-6.8501,-6.9091,-6.9893,-7.0363,-7.0515,-7.0825,-7.157,-7.2428,0.0,0.0,0.0,0.0,0.0,0.0,0.0,0.0,0.0,0.0,0.0,0.0,0.0,0.0,0.0,0.0,0.0,0.0,0.0,0.0,0.0,0.0,0.0,0.0,0.0,0.0,1.4066,1.3403,1.6828,1.8626,0.0,0.0,2.384,2.3852,0.0,0.0,0.0,0.0,0.0,0.0,0.0,0.0,0.0,0.0,0.0,0.0,0.0,0.0,0.0,0.0,0.0,-2.2557,-2.3984,0.0,0.0,-3.015,-3.0665,-3.115,-3.2936,-3.4717,-3.6477,-3.8231,-3.9864,-4.1172,-4.1172,-4.1172,-4.1327,-4.2062,-4.237,-4.2677,-4.331,-4.3462,-4.3615,-4.3615,-4.549,-4.7512,-4.8673,-5.0833,-5.2692,-5.4241,-5.4376,-5.4511,-5.4939,-5.5099,-5.5099,-5.5099,-5.5099,-5.5099,-5.5099,-5.5099,-5.5099,-5.5099,-5.5099,-5.5099,-5.5099,-5.5099,-5.5099,-5.5232,-5.7065,-5.8787,-6.0237,-6.2056,-6.3954,-6.57,-6.57,-6.6448,-6.7695,-6.8,-6.86,-6.9285,-6.9988,-7.0363,-7.0515,-7.0916,-7.1526,-7.2271,0.0,0.0,0.0,0.0,0.0,0.0,0.0,0.0,0.0,0.0,0.0,0.0,0.0,0.0,0.0,0.0,0.0,0.0,0.0,0.0,0.0,0.0,0.0,0.0,0.0,0.0,1.4225,1.3403,1.6828,1.8626,1.8626,2.2211,2.384,2.3692,0.0,0.0,0.0,0.0,0.0,0.0,0.0,0.0,0.0,0.0,0.0,0.0,0.0,0.0,0.0,0.0,0.0,0.0,0.0,0.0,0.0,0.0,-3.0499,-3.115,-3.2936,-3.4717,-3.6477,-3.8231,-3.9864,-4.1172,-4.1172,-4.1172,-4.1327,-4.1773,-4.2062,-4.2524,-4.2851,-4.331,-4.3615,-4.3615,-4.6233,-4.8407,-4.8673,-5.1443,-5.3614,-5.3997,-5.3997,-5.4106,-5.4511,-5.4805,-5.5099,-5.5099,-5.5099,-5.5099,-5.5099,-5.5099,-5.5099,-5.5099,-5.5099,-5.5099,-5.5099,-5.5099,-5.5232,-5.5604,-5.7194,-5.8912,-6.06,-6.2173,-6.3954,-6.57,-6.57,-6.6628,-6.8201,-6.8201,-6.8797,-6.9893,-7.033,-7.0515,-7.0515,-7.1131,-7.1457,-7.1702,0.0,0.0,0.0,0.0,0.0,0.0,0.0,0.0,0.0,0.0,0.0,0.0,0.0,0.0,0.0,0.0,0.0,0.0,0.0,0.0,0.0,0.0,0.0,0.0,0.0,1.4217,1.4225,1.3403,1.6828,1.8626,1.8626,2.2211,2.3281,2.2144,2.1882,2.0396,0.0,0.0,0.0,0.0,0.0,0.0,0.1359,0.0,0.0,0.0,0.0,0.0,0.0,0.0,0.0,0.0,0.0,0.0,0.0,0.0,0.0,-3.1467,-3.4392,-3.5511,-3.6637,-3.9707,-4.0841,-4.1172,-4.1172,-4.1172,-4.1327,-4.1773,-4.2082,-4.2524,-4.2851,-4.331,-4.3615,-4.3615,-4.5362,-4.7096,-4.8263,-5.041,-5.2416,-5.3835,-5.4402,-5.4805,-5.4939,-5.5099,-5.5099,-5.5099,-5.5099,-5.5099,-5.5099,-5.5099,-5.5099,-5.5099,-5.5099,-5.5099,-5.5099,-5.5099,-5.5232,-5.5604,-5.8159,-5.9749,-6.06,-6.3159,-6.4826,-6.57,-6.57,-6.6628,-6.8201,-6.8201,-6.8797,-6.9893,-7.033,-7.0515,-7.0515,-7.1131,-7.1457,-7.1634,0.0,0.0,0.0,0.0,0.0,0.0,0.0,0.0,0.0,0.0,0.0,0.0,0.0,0.0,0.0,0.0,0.0,0.0,0.0,0.0,0.0,0.0,0.0,0.0,1.3735,1.439,1.439,1.3735,1.6344,1.7973,1.8626,2.1556,2.2346,2.1434,2.0993,1.9354,0.0,0.0,0.0,0.0,0.0,0.0,-0.0344,0.0,0.0,0.0,0.0,0.0,0.0,0.0,0.0,0.0,0.0,0.0,0.0,0.0,0.0,-3.2443,-3.5187,-3.6477,-3.7614,-4.0529,-4.1172,-4.1172,-4.1172,-4.1172,-4.1327,-4.1773,-4.2082,-4.2524,-4.2851,-4.331,-4.3615,-4.3615,-4.5341,-4.7243,-4.8407,-5.0551,-5.2441,-5.3835,-5.4537,-5.4805,-5.4805,-5.4965,-5.5099,-5.5099,-5.5099,-5.5099,-5.5099,-5.5099,-5.5099,-5.5099,-5.5099,-5.5099,-5.5099,-5.5099,-5.5365,-5.5868,-5.8634,-6.0237,-6.0721,-6.3759,-6.5297,-6.57,-6.5839,-6.6764,0.0,-6.8201,-6.8896,-6.9988,-7.033,-7.0515,-7.0699,-7.1131,-7.1457,-7.1776,0.0,0.0,0.0,0.0,0.0,0.0,0.0,0.0,0.0,0.0,0.0,0.0,0.0,0.0,0.0,0.0,0.0,0.0,0.0,0.0,0.0,0.0,0.0,0.0,1.4232,1.4555,1.4555,1.4066,1.5358,1.682,1.8463,2.0262,2.1047,2.1126,1.9677,1.8014,1.6136,1.2307,0.8811,0.5467,0.3834,0.1215,0.0,0.0,0.0,0.0,0.0,0.0,0.0,0.0,0.0,0.0,0.0,0.0,0.0,0.0,0.0,0.0,0.0,-3.7277,-3.904,-4.0685,-4.1172,-4.1172,-4.1172,-4.1172,0.0,-4.1618,-4.2082,-4.2524,-4.2851,-4.331,-4.3615,-4.3746,-4.6233,-4.8263,-4.8817,-5.1583,-5.3751,-5.3997,-5.4376,-5.4511,-5.4511,-5.4805,-5.5099,-5.5099,-5.5099,-5.5099,-5.5099,-5.5099,-5.5099,-5.5099,-5.5099,-5.5099,-5.5099,-5.5099,-5.5498,-5.6132,-5.8787,-6.0359,-6.111,-6.3984,-6.5515,-6.57,-6.6085,-6.7005,-6.8201,-6.8201,-6.8994,-7.0176,-7.0423,-7.0608,-7.0916,-7.1222,-7.158,-7.1985,0.0,0.0,0.0,0.0,0.0,0.0,0.0,0.0,0.0,0.0,0.0,0.0,0.0,0.0,0.0,0.0,0.0,0.0,0.0,0.0,0.0,0.0,0.0,0.0,1.4555,1.5051,1.4886,1.4066,1.5695,1.65,1.6664,1.8458,1.881,1.7678,1.7349,1.5624,1.2449,0.855,0.5884,0.3917,0.2117,-0.0352,0.0,0.0,0.0,0.0,-1.2713,-1.537,0.0,0.0,0.0,0.0,0.0,0.0,0.0,0.0,-3.2936,0.0,0.0,0.0,-3.904,-4.0685,-4.1172,-4.1172,0.0,-4.1172,-4.1172,-4.1327,-4.1927,-4.237,-4.2524,-4.3136,-4.405,-4.5213,-4.5915,-4.7366,-5.0127,-5.2692,-5.4241,-5.4376,-5.4671,-5.4805,-5.4511,-5.4805,-5.5099,-5.5099,-5.5099,-5.5099,-5.5099,-5.5099,-5.5099,-5.5099,-5.5099,-5.5099,-5.5099,-5.5099,-5.5498,-5.6132,-5.8787,-6.0359,-6.111,-6.3984,-6.5515,-6.57,-6.648,-6.7317,-6.8201,-6.86,-6.9382,-7.0176,-7.0423,-7.0608,-7.0916,-7.1222,-7.158,-7.1985,0.0,0.0,0.0,0.0,0.0,0.0,0.0,0.0,0.0,0.0,0.0,0.0,0.0,0.0,0.0,0.0,0.0,0.0,0.0,0.0,0.0,0.0,0.0,1.5043,1.5043,1.5216,1.5051,1.439,1.5208,1.5695,1.6008,1.7016,1.7212,1.6398,1.4909,1.2243,0.8587,0.5904,0.3759,0.2147,-0.0356,0.0,0.0,0.0,0.0,0.0,-1.4154,-1.6835,0.0,-2.2521,-2.4899,-2.721,0.0,0.0,0.0,0.0,-3.4376,-3.7117,-3.7117,-3.8408,-4.0021,-4.0997,-4.1172,-4.1172,-4.1172,-4.1172,-4.1172,-4.1172,-4.1773,-4.237,-4.237,-4.3856,-4.4913,-4.4913,-4.6927,-4.951,-5.2114,-5.3538,-5.4376,-5.4511,-5.4645,-5.4805,-5.4805,-5.4965,-5.5099,-5.5099,-5.5099,-5.5099,-5.5099,-5.5099,-5.5099,-5.5099,-5.5099,-5.5099,-5.5099,-5.5099,-5.5498,-5.6132,-5.8787,-6.0359,-6.111,-6.4066,-6.5592,-6.5808,-6.6764,-6.7593,-6.8201,-6.8797,-6.9478,-7.0363,-7.0423,-7.0733,-7.1098,-7.1367,-7.1634,-7.1985,0.0,0.0,0.0,0.0,0.0,0.0,0.0,0.0,0.0,0.0,0.0,0.0,0.0,0.0,0.0,0.0,0.0,0.0,0.0,0.0,0.0,0.0,1.5381,1.5381,1.5546,1.5546,1.5216,1.4713,1.439,1.4728,1.5562,1.5735,1.5755,1.5615,1.2396,0.8943,0.5554,0.3938,0.2148,0.0179,-0.2867,0.0,0.0,0.0,0.0,0.0,0.0,0.0,0.0,-2.3087,-2.5434,-2.7776,-3.0064,0.0,0.0,0.0,0.0,0.0,-3.8566,-3.9864,-4.1172,-4.1172,-4.1172,-4.1172,-4.1172,-4.1172,-4.1172,-4.1172,-4.1773,-4.2524,-4.2677,-4.457,-4.5617,-4.4482,-4.8506,-5.2114,-5.3538,-5.3971,-5.4267,-5.4511,-5.4511,-5.4645,-5.4965,-5.5099,-5.5099,-5.5099,-5.5099,-5.5099,-5.5099,-5.5099,-5.5099,-5.5099,-5.5099,-5.5099,-5.5099,-5.5099,-5.5604,-5.6367,-5.8884,-6.048,-6.1348,-6.4401,-6.57,-6.5808,-6.6974,-6.7797,-6.8201,-6.8896,-6.967,-7.0515,-7.0515,-7.0825,-7.1312,-7.1512,-7.181,-7.1985,0.0,0.0,0.0,0.0,0.0,0.0,0.0,0.0,0.0,0.0,0.0,0.0,0.0,0.0,0.0,0.0,0.0,0.0,0.0,0.0,0.0,1.5883,1.5546,1.5546,1.5883,1.5883,1.5546,1.4713,1.4713,1.4456,1.393,1.4076,1.3428,1.209,0.9997,0.7874,0.5554,0.2509,0.0359,-0.1434,-0.4651,0.0,0.0,0.0,0.0,0.0,0.0,0.0,0.0,-2.498,-2.7258,-2.9244,-3.047,0.0,0.0,0.0,0.0,0.0,-3.8566,-3.9864,-4.1172,-4.1172,-4.1172,-4.1172,-4.1172,-4.1172,-4.1172,-4.1172,-4.1773,-4.281,-4.4138,-4.4159,-4.4762,-4.7243,-4.9961,-5.1812,-5.2341,-5.3945,-5.4805,-5.4511,-5.4805,-5.4939,-5.4645,-5.4939,-5.5099,-5.5099,-5.5099,-5.5099,-5.5099,-5.5099,-5.5099,-5.5099,-5.5099,-5.5099,-5.5099,-5.5365,-5.6209,-5.7679,-5.9503,-6.12,-6.2668,-6.4764,-6.57,-6.5808,-6.7388,-6.8101,-6.8301,-6.9285,-6.9955,-7.0515,-7.0515,-7.0825,-7.1312,-7.1512,-7.181,-7.2072,0.0,0.0,0.0,0.0,0.0,0.0,0.0,0.0,0.0,0.0,0.0,0.0,0.0,0.0,0.0,0.0,0.0,0.0,0.0,0.0,1.5853,1.5764,1.5594,1.5682,1.604,1.6048,1.5546,1.4713,1.4803,1.439,1.3634,1.2822,1.1445,0.9833,0.7874,0.5552,0.2867,0.0538,-0.1255,-0.2868,0.0,0.0,0.0,0.0,0.0,0.0,0.0,0.0,0.0,0.0,-2.8081,-3.0165,-3.1632,0.0,0.0,0.0,0.0,0.0,-4.0021,-4.0529,-4.1172,-4.1172,-4.1327,-4.1463,-4.1463,-4.1618,-4.1773,-4.1618,-4.2082,-4.3136,-4.444,-4.5617,-4.7512,-5.109,-5.1673,-5.209,-5.3351,-5.4081,-5.4537,-5.4511,-5.4645,-5.4805,-5.4805,-5.4965,-5.5099,-5.5099,-5.5099,-5.5099,-5.5099,-5.5099,-5.5099,-5.5099,-5.5099,-5.5099,-5.5099,-5.5604,-5.6601,-5.806,-5.9749,-6.1438,-6.3243,-6.4875,-6.5808,-6.6054,-6.7593,-6.8201,-6.8301,-6.9478,-7.0176,-7.0515,-7.0608,-7.0916,-7.1312,-7.1722,-7.2072,-7.2416,0.0,0.0,0.0,0.0,0.0,0.0,0.0,0.0,0.0,0.0,0.0,0.0,0.0,0.0,0.0,0.0,0.0,0.0,0.0,1.5715,1.565,1.552,1.5512,1.5642,1.5918,1.5755,1.5467,1.4713,1.4681,1.4126,1.3049,1.1726,1.0112,0.7874,0.6088,0.3583,0.0538,-0.1255,-0.2867,-0.4476,0.0,0.0,0.0,0.0,0.0,0.0,0.0,0.0,0.0,0.0,0.0,0.0,0.0,0.0,0.0,-3.8249,-3.9864,-4.1172,-4.1172,-4.1172,-4.1172,-4.1172,-4.1483,-4.1618,-4.1773,-4.2082,-4.237,-4.2524,-4.2984,-4.3877,-4.517,-4.722,-4.9819,-5.2779,-5.2504,-5.2504,-5.435,-5.4402,-5.4402,-5.4645,-5.4645,-5.4805,-5.5099,-5.5099,-5.5099,-5.5099,-5.5099,-5.5099,-5.5099,-5.5099,-5.5099,-5.5099,-5.5099,-5.5099,-5.5099,-5.5736,-5.6834,-5.8537,-5.9872,-6.1792,-6.3841,-6.5125,-6.5947,-6.6406,-6.7695,-6.8301,-6.8501,-6.9703,-7.0363,-7.0515,-7.0825,-7.1098,-7.1491,-7.1844,-7.2331,-7.2671,0.0,0.0,0.0,0.0,0.0,0.0,0.0,0.0,0.0,0.0,0.0,0.0,0.0,0.0,0.0,0.0,0.0,0.0,0.0,1.5536,1.5528,1.5512,1.5512,1.5528,1.5553,1.5233,1.49,1.4713,1.4405,1.3283,1.1412,1.1362,0.9473,0.5912,0.4472,0.2685,0.0538,-0.233,-0.4474,-0.643,-0.9819,0.0,0.0,0.0,0.0,0.0,0.0,0.0,0.0,0.0,0.0,0.0,0.0,0.0,-3.8408,-3.8566,-3.9864,-4.1172,-4.1172,-4.1172,-4.1172,-4.1172,-4.1172,-4.1327,-4.1773,-4.1773,-4.237,-4.4138,-4.4891,-4.5617,-4.7051,-4.824,-4.8961,-4.9629,-5.1041,-5.2779,-5.4805,-5.5099,-5.4965,-5.5099,-5.5099,-5.5099,-5.5099,-5.5099,-5.5099,-5.5099,-5.5099,-5.5099,-5.5099,-5.5099,-5.5099,-5.5099,-5.5099,-5.5099,-5.5099,-5.5736,-5.7322,-5.9872,-6.06,-6.2407,-6.5187,-6.5483,-6.613,-6.7005,-6.7797,-6.8501,-6.8994,-6.9893,-7.0363,-7.0515,-7.0825,-7.1367,-7.1898,-7.1985,-7.2331,-7.2671,0.0,0.0,0.0,0.0,0.0,0.0,0.0,0.0,0.0,0.0,0.0,0.0,0.0,0.0,0.0,0.0,0.0,0.0,0.0,1.5342,1.5293,1.5179,1.5171,1.5228,1.5342,1.5401,1.5093,1.4572,1.3023,1.195,1.1196,0.8926,0.6621,0.4295,0.2506,0.0358,-0.215,-0.4293,-0.6258,-0.8044,-1.1776,-1.3558,0.0,0.0,0.0,0.0,0.0,0.0,0.0,0.0,-3.1017,-3.2905,-3.4213,-3.6477,-3.8882,-3.9864,-4.0685,-4.1172,-4.1172,-4.1172,-4.1172,-4.1172,-4.1172,-4.1327,-4.2082,-4.239,-4.2697,-4.3116,-4.3725,-4.5063,-4.7512,-5.0245,-5.2114,-5.2253,-5.3215,-5.4241,-5.4965,-5.5099,-5.5099,-5.5099,-5.5099,-5.5099,-5.5099,-5.5099,-5.5099,-5.5099,-5.5099,-5.5099,-5.5099,-5.5099,-5.5099,-5.5099,-5.5099,-5.5099,-5.5099,-5.6601,-5.8159,-5.9965,-6.0721,-6.2639,-6.5592,-6.57,-6.6236,-6.7285,-6.7899,-6.8501,-6.9091,-6.9955,-7.0423,-7.0515,-7.1154,-7.1634,-7.1985,-7.2159,-7.2416,-7.2671,0.0,0.0,0.0,0.0,0.0,0.0,0.0,0.0,0.0,0.0,0.0,0.0,0.0,0.0,0.0,0.0,0.0,0.0,1.5163,1.5155,1.5122,1.5057,1.5049,1.5139,1.5325,1.5136,1.4822,1.4059,1.181,1.0344,0.961,0.6971,0.4657,0.2684,0.0896,-0.1613,-0.4653,-0.6436,-0.8397,-1.0717,-1.3198,-1.497,0.0,0.0,0.0,0.0,0.0,0.0,0.0,0.0,-3.1602,0.0,0.0,-3.7596,-3.9531,-4.0841,-4.1172,-4.1172,-4.1172,-4.1172,-4.1172,-4.1327,-4.1327,-4.1773,-4.2963,-4.3421,-4.3877,-4.472,-4.5041,-4.5937,-4.8552,-5.0974,-5.2692,-5.3128,-5.4267,-5.5099,-5.5099,-5.5099,-5.5099,-5.5099,-5.5099,-5.5099,-5.5099,-5.5099,-5.5099,-5.5099,-5.5099,-5.5099,-5.5099,-5.5099,-5.5099,-5.5099,-5.5099,-5.5099,-5.5232,-5.7065,-5.8787,-6.0237,-6.12,-6.3099,-6.57,-6.57,-6.6448,-6.7695,-6.8,-6.86,-6.9285,-7.0143,-7.0608,-7.0825,-7.1423,-7.1776,-7.1985,-7.2245,-7.2501,-7.2671,0.0,0.0,0.0,0.0,0.0,0.0,0.0,0.0,0.0,0.0,0.0,0.0,0.0,0.0,0.0,0.0,0.0,0.0,1.4976,1.4968,1.5049,1.5228,1.5244,1.5325,1.5512,1.4385,1.3561,1.3217,1.0907,0.8452,0.5646,0.5706,0.3941,0.0538,-0.0897,-0.3222,-0.643,-0.8044,-1.0895,-1.4265,-1.4265,-1.6545,-2.0047,0.0,0.0,0.0,0.0,0.0,0.0,0.0,0.0,0.0,0.0,-3.9059,-4.0666,-4.1016,-4.1172,-4.1172,-4.1172,-4.1172,-4.1327,-4.1618,-4.1773,-4.237,-4.4741,-4.5041,-4.5744,-4.97,-4.9415,-4.884,-5.0293,-4.9937,-4.9914,-5.1534,-5.3674,-5.5099,-5.5099,-5.5099,-5.5099,-5.5099,-5.5099,-5.5099,-5.5099,-5.5099,-5.5099,-5.5099,-5.5099,-5.5099,-5.5099,-5.5099,-5.5099,-5.5099,-5.5099,-5.5232,-5.5604,-5.7194,-5.8912,-6.06,-6.2523,-6.4178,-6.57,-6.57,-6.6628,-6.8201,-6.8201,-6.8797,-6.9893,-7.033,-7.0825,-7.1312,-7.1512,-7.181,-7.1985,-7.2245,-7.2501,-7.2671,0.0,0.0,0.0,0.0,0.0,0.0,0.0,0.0,0.0,0.0,0.0,0.0,0.0,0.0,0.0,0.0,0.0,0.0,1.4968,1.5082,1.5179,1.5236,1.5366,1.552,1.5691,1.3732,1.2222,1.1177,0.88,0.6996,0.5643,0.321,0.1075,-0.0897,-0.3757,-0.6079,-0.8222,-1.1245,-1.3198,-1.4618,-1.7247,-1.8994,-2.0221,0.0,0.0,0.0,0.0,0.0,0.0,0.0,0.0,0.0,0.0,0.0,-4.0666,-4.1016,-4.1172,-4.1172,-4.1172,-4.1483,-4.1618,-4.1773,-4.2082,-4.3116,-4.6189,-4.487,-4.3835,-4.6337,-4.824,-4.97,-5.0434,-5.1698,-5.2829,-5.3265,-5.4267,-5.5099,-5.5099,-5.5099,-5.5099,-5.5099,-5.5099,-5.5099,-5.5099,-5.5099,-5.5099,-5.5099,-5.5099,-5.5099,-5.5099,-5.5099,-5.5099,-5.5099,-5.5099,-5.571,-5.6909,-5.8634,-6.0209,-6.1792,-6.3841,-6.5016,-6.57,-6.5947,-6.6901,-6.8201,-6.8201,-6.8896,-7.0082,-7.0641,-7.1007,-7.1312,-7.1722,-7.1898,-7.2072,-7.2416,-7.2586,-7.2671,0.0,0.0,0.0,0.0,0.0,0.0,0.0,0.0,0.0,0.0,2.1036,1.9273,0.0,0.0,0.0,0.0,0.0,0.0,1.5074,1.5244,1.5382,1.5447,1.5561,1.5207,1.4393,1.2344,1.008,0.7615,0.6194,0.4884,0.3705,0.107,-0.1254,-0.3401,-0.5541,-0.8037,-1.1072,-1.3375,-1.4801,-1.5682,-1.8654,-2.0385,-2.1251,0.0,0.0,0.0,0.0,0.0,0.0,0.0,0.0,0.0,0.0,-3.9235,-4.0372,-4.1152,-4.1483,-4.1483,-4.1618,-4.1927,-4.2216,-4.2963,-4.34,-4.4289,-4.7051,-4.7051,-4.6927,-4.8095,-4.9391,-5.0551,-5.1303,-5.2441,-5.3265,-5.3835,-5.4671,-5.5099,-5.5099,-5.5099,-5.5099,-5.5099,-5.5099,-5.5099,-5.5099,-5.5099,-5.5099,-5.5099,-5.5099,-5.5099,-5.5099,-5.5099,-5.5099,-5.5099,-5.5099,-5.5947,-5.7651,-5.9228,-6.0812,-6.2668,-6.4543,-6.5483,-6.57,-6.6268,-6.7109,-6.8201,-6.8797,-6.9478,-7.0363,-7.0733,-7.1098,-7.1457,-7.181,-7.2072,-7.2159,-7.2586,-7.2671,-7.2671,0.0,0.0,0.0,0.0,0.0,0.0,0.0,0.0,0.0,0.0,2.3152,2.1642,0.0,0.0,0.0,0.0,0.0,0.0,0.0,1.5439,1.561,1.5764,1.5626,1.4393,1.205,1.0554,0.7714,0.3363,0.326,0.2264,0.0528,-0.1067,-0.3391,-0.6412,-0.6945,-0.9782,-1.4224,-1.459,-1.5835,-1.743,-1.9516,-2.1424,-2.3137,-2.4861,0.0,0.0,0.0,0.0,0.0,0.0,0.0,0.0,-3.9096,-3.9902,-4.0216,-4.1463,-4.1773,-4.1927,-4.2216,-4.237,-4.2963,-4.4891,-4.5468,-4.6189,-4.749,-5.0434,-5.2792,-5.2629,-5.1607,-5.1303,-5.2629,-5.2302,-5.2391,-5.37,-5.4671,-5.5099,-5.5099,-5.5099,-5.5099,-5.5099,-5.5099,-5.5099,-5.5099,-5.5099,-5.5099,-5.5099,-5.5099,-5.5099,-5.5099,-5.5099,-5.5099,-5.5099,-5.5232,-5.6209,-5.8159,-5.9503,-6.12,-6.3159,-6.4875,-6.57,-6.5808,-6.6691,-6.7491,-6.8301,-6.9703,-7.0363,-7.0515,-7.0825,-7.1188,-7.16,-7.1898,-7.2159,-7.2331,-7.2586,-7.2671,-7.2671,0.0,0.0,0.0,0.0,0.0,0.0,0.0,0.0,0.0,0.0,0.0,0.0,0.0,0.0,0.0,0.0,0.0,0.0,0.0,1.5618,1.5731,1.5772,1.4921,1.3184,1.056,0.8878,0.6395,0.3403,0.3418,0.1887,-0.086,-0.3821,-0.5406,-0.6274,-1.0264,-1.2699,-1.4098,-1.7148,-1.8777,-1.9312,-2.29,-2.452,-2.5032,-2.6927,-2.8628,0.0,0.0,0.0,0.0,0.0,0.0,0.0,-3.9588,-4.0059,-4.0509,-4.1172,-4.1618,-4.1773,-4.1927,-4.239,-4.3289,-4.4891,-4.7366,-4.9557,-4.9843,-5.1443,-5.2491,-5.0998,-5.1607,-5.2491,-5.2792,-5.3179,-5.3563,-5.3997,-5.4671,-5.5099,-5.5099,-5.5099,-5.5099,-5.5099,-5.5099,-5.5099,-5.5099,-5.5099,-5.5099,-5.5099,-5.5099,-5.5099,-5.5099,-5.5099,-5.5099,-5.5099,-5.6105,-5.7551,-5.9503,-6.087,-6.2668,-6.4826,-6.5375,-6.5839,-6.6085,-6.6901,-6.7899,-6.8896,-6.9955,-7.0423,-7.0515,-7.1007,-7.1367,-7.16,-7.1898,-7.2159,-7.2331,-7.2586,-7.2671,-7.2671,0.0,0.0,0.0,0.0,0.0,0.0,0.0,0.0,0.0,0.0,0.0,0.0,0.0,0.0,0.0,0.0,0.0,0.0,0.0,0.0,1.5575,1.4914,1.3177,1.1558,1.006,0.771,0.5043,0.237,0.1524,-0.0,-0.2412,-0.5531,-0.7619,-0.865,-1.2099,-1.4208,-1.5324,-1.8326,-1.9628,-2.0067,-2.3949,-2.5373,-2.5556,-2.7448,-2.93,-3.0788,-3.0788,0.0,0.0,0.0,0.0,0.0,0.0,0.0,-4.0372,-4.1308,-4.1618,-4.1927,-4.2236,-4.3289,-4.4762,-4.722,-4.9843,-5.1747,-5.1747,-5.2327,-5.2629,-5.1607,-5.2189,-5.2929,-5.2929,-5.3452,-5.3997,-5.3725,-5.4562,-5.5099,-5.4805,-5.4965,-5.5099,-5.5099,-5.5099,-5.5099,-5.5099,-5.5099,-5.5099,-5.5099,-5.5099,-5.5099,-5.5099,-5.5099,-5.5099,-5.5099,-5.5973,-5.7551,-5.9965,-6.087,-6.2668,-6.5297,-6.5592,-6.6236,-6.7213,-6.7593,-6.8401,-6.9382,-7.0143,-7.0515,-7.0515,-7.1098,-7.1457,-7.181,-7.1985,-7.2159,-7.2501,-7.2671,-7.2671,-7.2671,0.0,0.0,0.0,0.0,0.0,0.0,0.0,0.0,0.0,0.0,0.0,0.0,0.0,0.0,0.0,0.0,0.0,0.0,0.0,0.0,0.0,1.3383,1.122,0.9893,0.9221,0.6372,0.3692,0.1007,-0.1175,-0.2882,-0.4144,-0.7241,-0.9645,-1.1527,-1.3402,-1.5205,-1.727,-1.9163,-2.0314,-2.1028,-2.4496,-2.5896,-2.6066,-2.7954,-2.9802,-3.1271,-3.1602,-3.3724,-3.6494,-3.6494,0.0,0.0,0.0,0.0,-4.0216,-4.1308,-4.1773,-4.1927,-4.2544,-4.4159,-4.6485,-4.9843,-5.1747,-5.2929,-5.2929,-5.2929,-5.2929,-5.2929,-5.2929,-5.2929,-5.2929,-5.3452,-5.3861,-5.3614,-5.4293,-5.4805,-5.4511,-5.4805,-5.4965,-5.5099,-5.5099,-5.5099,-5.5099,-5.5099,-5.5099,-5.4965,-5.5099,-5.5099,-5.4965,-5.5099,-5.5099,-5.5099,-5.5842,-5.7423,-5.9965,-6.0721,-6.2639,-6.5406,-6.5808,-6.6733,-6.8201,-6.8301,-6.8896,-6.9893,-7.033,-7.0515,-7.0608,-7.1098,-7.1634,-7.1985,-7.2072,-7.2331,-7.2671,-7.2671,-7.2671,-7.2671,0.0,0.0,0.0,0.0,0.0,0.0,0.0,0.0,0.0,0.0,2.3295,2.1757,0.0,0.0,0.0,0.0,0.0,0.0,0.0,0.0,0.0,1.0726,1.0226,0.8887,0.6041,0.4027,0.1847,-0.0504,-0.4193,-0.6214,-0.6906,-0.9254,-1.1265,-1.3111,-1.4946,-1.6859,-1.8866,-2.0888,-2.2788,-2.4554,-2.6837,-2.7799,-2.7968,-2.9788,-3.1602,-3.3233,-3.4701,-3.6494,-3.8304,-3.8304,-3.864,0.0,0.0,0.0,-4.0509,-4.1172,-4.1463,-4.1773,-4.1927,-4.457,-4.7781,-4.9985,-5.1747,-5.2929,-5.2929,-5.2929,-5.2929,-5.2929,-5.2929,-5.2929,-5.2929,-5.3204,-5.3614,-5.3478,-5.3861,-5.4267,-5.4511,-5.4511,-5.4645,-5.5099,-5.5099,-5.5099,-5.5099,-5.5099,-5.4965,-5.4645,-5.4939,-5.4939,-5.4645,-5.4939,-5.5099,-5.5099,-5.7551,-5.9256,-5.9965,-6.2553,-6.4463,-6.57,-6.6659,-6.7491,-6.8201,-6.8699,-6.9382,-7.0176,-7.0456,-7.0608,-7.0916,-7.1334,-7.1722,-7.1985,-7.2159,-7.2416,-7.2671,-7.2671,-7.2671,-7.2671,0.0,0.0,0.0,0.0,0.0,0.0,0.0,0.0,0.0,0.0,0.0,2.1232,0.0,0.0,0.0,0.0,0.0,0.0,0.0,0.0,0.0,1.0226,0.8382,0.6878,0.5371,0.2686,-0.0,-0.218,-0.5198,-0.7877,-1.0377,-1.1712,-1.2714,-1.3549,-1.6452,-1.8265,-1.9461,-2.2521,-2.4291,-2.5398,-2.7396,-2.881,-2.9802,-3.0455,-3.2412,-3.5025,-3.5672,-3.7152,-3.864,-3.864,-3.8956,-3.943,-3.9745,0.0,0.0,0.0,-4.1327,-4.1907,-4.4117,-4.6167,-4.8217,-5.1163,-5.2352,-5.2929,-5.2929,-5.2929,-5.2929,-5.2929,-5.2929,-5.2929,-5.2929,-5.3204,-5.3478,-5.3204,-5.3589,-5.3997,-5.3997,-5.4241,-5.4511,-5.4537,-5.4671,-5.4671,-5.4537,-5.4537,-5.4537,-5.4511,-5.4645,-5.4805,-5.4805,-5.4965,-5.5445,-5.6417,-5.7906,-5.9503,-6.1319,-6.3014,-6.4574,-6.5947,-6.7285,-6.8,-6.8201,-6.9188,-6.9893,-7.0176,-7.0423,-7.0608,-7.0916,-7.1423,-7.1776,-7.1985,-7.2245,-7.2501,-7.2671,-7.2671,-7.2671,-7.2671,0.0,0.0,0.0,0.0,0.0,0.0,0.0,0.0,0.0,0.0,0.0,0.0,0.0,0.0,0.0,0.0,0.0,0.0,0.0,0.0,0.0,0.0,0.671,0.5036,0.4027,0.1343,-0.1342,-0.4019,-0.6366,-0.9207,-1.2714,-1.4031,-1.4698,-1.4863,-1.7844,-1.9717,-2.094,-2.3874,-2.5481,-2.6236,-2.8123,-2.9635,-3.0954,-3.1768,-3.3724,-3.5994,-3.6494,-3.749,-3.864,-3.864,-3.8798,-3.9272,-3.9745,-4.0059,0.0,0.0,0.0,-4.1907,-4.5276,-4.6441,-4.7636,-5.1303,-5.2189,-5.2327,-5.2792,-5.2929,-5.2929,-5.2929,-5.2929,-5.2929,-5.2929,-5.3204,-5.3204,-5.2929,-5.3316,-5.3725,-5.3478,-5.3997,-5.4106,-5.3997,-5.4241,-5.4241,-5.3997,-5.3997,-5.4106,-5.4376,-5.4511,-5.4645,-5.4939,-5.5099,-5.5815,-5.7496,-5.8159,-5.9749,-6.2407,-6.3471,-6.4764,-6.6406,-6.7593,-6.8301,-6.8401,-6.9703,-7.0176,-7.027,-7.0549,-7.0733,-7.1007,-7.1546,-7.181,-7.1985,-7.2331,-7.2501,-7.2671,-7.2671,-7.2671,-7.2671,0.0,0.0,0.0,0.0,0.0,0.0,0.0,0.0,0.0,0.0,0.0,0.0,1.6689,1.6048,1.6048,1.6048,0.0,0.0,0.0,0.0,0.0,0.0,0.0,0.0,0.0336,0.0168,-0.1846,-0.5867,-0.8202,-1.0367,-1.2701,-1.6483,-1.83,-1.8309,-1.8843,-2.1035,-2.4459,-2.489,-2.6167,-2.8136,-2.9955,-3.0788,-3.1105,-3.4538,-3.5833,-3.6155,-3.7827,-3.8481,-3.864,-3.864,-3.864,-3.8798,-3.9588,-3.9902,-4.0059,0.0,0.0,0.0,-4.3663,-4.4247,-4.5276,-4.9224,-5.0127,-5.0551,-5.2491,-5.2929,-5.2929,-5.2929,-5.2929,-5.2929,-5.2929,-5.2929,-5.2929,-5.2929,-5.2929,-5.3067,-5.3478,-5.3478,-5.3614,-5.3997,-5.3997,-5.3997,-5.3997,-5.3997,-5.3997,-5.3997,-5.4376,-5.4511,-5.4511,-5.4939,-5.5815,-5.7496,-5.9104,-6.0692,-6.2407,-6.4512,-6.6023,-6.7005,-6.7797,-6.8501,-6.8994,-6.9798,-7.027,-7.0515,-7.0733,-7.1007,-7.1312,-7.181,-7.1985,-7.2072,-7.2501,-7.2671,-7.2671,-7.2671,-7.2671,-7.2671,0.0,0.0,0.0,0.0,0.0,0.0,0.0,0.0,0.0,0.0,0.0,0.0,0.0,1.6689,1.5711,1.4713,1.2714,0.0,0.0,0.0,0.0,0.0,0.0,0.0,-0.0,-0.235,-0.4698,-0.7212,-0.9873,-1.2038,-1.4045,-1.7156,-1.9277,-2.0262,-2.196,-2.3515,-2.4802,-2.6427,-2.7525,-2.8305,-3.0136,-3.1437,-3.2741,-3.5025,-3.6654,-3.7809,-3.8322,-3.864,-3.864,-3.864,-3.8798,-3.9114,-3.943,-3.9902,-4.0372,-4.1016,-4.1172,-4.1618,-4.3511,-4.4247,-4.5148,-4.7781,-4.9391,-5.0576,-5.1303,-5.2189,-5.2929,-5.2929,-5.2929,-5.2929,-5.2929,-5.2929,-5.2929,-5.2929,-5.2929,-5.2929,-5.3067,-5.3341,-5.3478,-5.3316,-5.3452,-5.3614,-5.3316,-5.3478,-5.3725,-5.3997,-5.4376,-5.4645,-5.4805,-5.5232,-5.6574,-5.898,-5.9872,-6.1645,-6.4512,-6.5483,-6.648,-6.7285,-6.7899,-6.8501,-6.8994,-6.9955,-7.0423,-7.0515,-7.1007,-7.1278,-7.1546,-7.1898,-7.2072,-7.2245,-7.2586,-7.2671,-7.2671,-7.2671,-7.2671,-7.2755,0.0,0.0,0.0,0.0,0.0,0.0,0.0,0.0,0.0,2.3164,0.0,0.0,0.0,0.0,1.4548,1.2886,1.1059,0.9721,0.8549,0.6543,0.0,0.0,0.0,0.0,-0.1847,-0.418,-0.6516,-0.9216,-1.1647,-1.3795,-1.5859,-1.8942,-2.0931,-2.2335,-2.4571,-2.5602,-2.564,-2.7381,-2.8136,-2.8473,-3.0773,-3.2412,-3.3724,-3.6011,-3.7649,-3.864,-3.864,-3.864,-3.864,-3.864,-3.8798,-3.9114,-3.9272,-3.9883,-4.0666,-4.1016,-4.1172,-4.1463,-4.279,-4.338,-4.4138,-4.6189,-4.7781,-4.9105,-5.0269,-5.1443,-5.2327,-5.2767,-5.2929,-5.2929,-5.2929,-5.2929,-5.2929,-5.2929,-5.2929,-5.2929,-5.2929,-5.3067,-5.3204,-5.2929,-5.3204,-5.3204,-5.2929,-5.3204,-5.3614,-5.3997,-5.4376,-5.4645,-5.5099,-5.5842,-5.7679,-6.0692,-6.1674,-6.3213,-6.57,-6.6161,-6.6901,-6.7695,-6.8201,-6.8797,-6.9382,-7.0143,-7.0515,-7.0608,-7.1188,-7.1457,-7.16,-7.1898,-7.2159,-7.2331,-7.2586,-7.2671,-7.2671,-7.2671,-7.2671,-7.2755,0.0,0.0,0.0,0.0,0.0,0.0,0.0,0.0,2.3164,2.1383,0.0,0.0,0.0,0.0,0.0,1.0393,1.006,0.8716,0.5538,0.5371,0.0,0.0,0.0,0.0,-0.5371,-0.5316,-0.7297,-1.1374,-1.3513,-1.5634,-1.7983,-2.2028,-2.3949,-2.4214,-2.6307,-2.7268,-2.7321,-2.7896,-2.8305,-2.8642,-3.2083,-3.3397,-3.3887,-3.733,-3.864,-3.864,-3.864,-3.864,-3.864,-3.864,-3.864,-3.864,-3.9114,-3.9883,-4.0666,-4.1016,-4.1172,-4.1172,0.0,0.0,0.0,-4.4138,-4.502,-4.6337,-4.97,-5.0576,-5.1163,-5.2629,-5.2929,-5.2929,-5.2929,-5.2929,-5.2929,-5.2929,-5.2929,-5.2929,-5.2929,-5.2929,-5.2929,-5.2929,-5.2929,-5.2929,-5.2929,-5.3341,-5.3614,-5.3997,-5.4376,-5.4645,-5.5099,-5.678,-5.9076,-6.229,-6.432,-6.5406,-6.57,-6.6554,-6.7388,-6.8201,-6.8797,-6.9382,-7.0209,-7.0456,-7.0608,-7.0916,-7.1423,-7.16,-7.16,-7.1898,-7.2159,-7.2331,-7.2586,-7.2671,-7.2671,-7.2671,-7.2671,-7.2755,0.0,0.0,0.0,0.0,0.0,0.0,0.0,0.0,2.3164,0.0,0.0,0.0,1.6205,1.4045,1.1884,1.0226,0.8048,0.6376,0.5538,0.3021,0.1007,-0.0,-0.2518,-0.4363,-0.5371,-0.7857,-0.9687,-1.0887,-1.4303,-1.6605,-1.7647,-2.1545,-2.3627,-2.4214,-2.6307,-2.7375,-2.7602,-2.7976,-2.8964,-3.0289,-3.2577,-3.4213,-3.5511,-3.7809,-3.864,-3.864,-3.864,-3.864,-3.864,-3.864,-3.864,-3.8798,-3.943,-4.0059,-4.0666,-4.1016,-4.1172,-4.1172,-4.1172,0.0,0.0,0.0,0.0,0.0,-4.8696,-5.0717,-5.2327,-5.2792,-5.2929,-5.2929,-5.2929,-5.2929,-5.2929,-5.2929,-5.2929,-5.2929,-5.2929,-5.2929,-5.2929,-5.2929,-5.2929,-5.3067,-5.3341,-5.3589,-5.3997,-5.4376,-5.4671,-5.5445,-5.678,-5.9475,-6.1645,-6.3129,-6.4764,-6.5731,-6.6085,-6.6901,-6.7593,-6.8201,-6.8896,-6.9607,-7.0176,-7.0641,-7.0825,-7.0916,-7.1423,-7.1688,-7.1898,-7.2159,-7.2331,-7.2586,-7.2671,-7.2671,-7.2671,-7.2671,-7.2755,-7.2922,0.0,0.0,0.0,0.0,0.0,0.0,0.0,0.0,2.2028,0.0,0.0,0.0,1.4548,1.2554,1.0726,0.9392,0.6878,0.5036,0.4363,0.1511,-0.0672,-0.2182,-0.4195,-0.6038,-0.7543,-0.9506,-1.1328,-1.2866,-1.6082,-1.8207,-1.9267,-2.2624,-2.4454,-2.52,-2.6652,-2.7767,-2.9049,-2.923,-2.9802,-3.0954,-3.356,-3.5025,-3.6155,-3.7986,-3.864,-3.864,-3.864,-3.864,-3.864,-3.864,-3.8798,-3.8956,-3.9745,-4.0216,-4.0666,-4.1016,-4.1172,-4.1172,-4.1172,-4.1773,-4.237,-4.237,0.0,0.0,-4.8118,-5.0151,-5.2189,-5.2792,-5.2929,-5.2929,-5.2929,-5.2929,-5.2929,-5.2929,-5.2929,-5.2929,-5.2929,-5.2929,-5.2929,-5.2929,-5.3067,-5.3204,-5.3478,-5.3997,-5.4241,-5.4511,-5.4805,-5.6078,-5.8355,-6.1142,-6.3099,-6.4209,-6.5375,-6.6054,-6.6512,-6.7285,-6.8,-6.8501,-6.9382,-6.9988,-7.0363,-7.0733,-7.0916,-7.1098,-7.1546,-7.1898,-7.1985,-7.2331,-7.2586,-7.2671,-7.2671,-7.2671,-7.2671,-7.2755,-7.2922,-7.3088,0.0,0.0,0.0,0.0,0.0,0.0,0.0,0.0,0.0,0.0,1.7009,1.4878,1.2388,1.0893,0.9559,0.7893,0.6211,0.4363,0.2518,0.0504,-0.2014,-0.5203,0.0,0.0,-1.0554,-1.0941,-1.2736,-1.6008,-1.8096,-2.0196,-2.2028,-2.4417,-2.5852,-2.6613,-2.6913,-2.8356,-3.0788,-3.0954,-3.1286,-3.1602,-3.4701,-3.6155,-3.6494,-3.7986,-3.864,-3.864,-3.864,-3.864,-3.864,-3.864,-3.8956,-3.943,-3.9745,-4.0216,-4.0666,-4.1016,-4.1172,-4.1172,-4.1172,-4.1773,-4.237,-4.237,-4.4138,0.0,-4.7972,-4.9557,-5.1022,-5.2629,-5.2929,-5.2929,-5.2929,-5.2929,-5.2929,-5.2929,-5.2929,-5.2929,-5.2929,-5.2929,-5.2929,-5.2929,-5.3204,-5.3478,-5.3614,-5.4106,-5.4511,-5.4511,-5.518,-5.6936,-5.9965,-6.1997,-6.378,-6.5406,-6.5978,-6.6512,-6.7005,-6.7899,-6.8501,-6.9091,-6.9893,-7.0363,-7.0515,-7.0825,-7.1098,-7.1401,-7.1844,-7.1985,-7.2072,-7.2501,-7.2671,-7.2671,-7.2671,-7.2671,-7.2755,-7.2922,-7.3005,-7.3088,0.0,0.0,0.0,0.0,0.0,0.0,0.0,0.0,2.0565,1.8789,1.618,1.388,1.2222,1.0893,0.9054,0.6208,0.4195,0.2518,0.0672,-0.2517,-0.4698,-0.5371,0.0,0.0,0.0,-1.3501,-1.5311,-1.6008,-1.9219,-2.1329,-2.235,-2.4255,-2.5526,-2.6639,-2.6926,-2.819,-3.0426,-3.2083,-3.3724,-3.5025,-3.5672,-3.6815,-3.8145,-3.8481,-3.864,-3.864,-3.864,-3.864,-3.864,-3.864,-3.9114,-3.9745,-3.9902,-4.0372,-4.1016,-4.1172,-4.1172,-4.1172,-4.1172,-4.1773,-4.237,-4.237,-4.4138,0.0,-4.7972,-4.9557,-5.1022,-5.2629,-5.2929,-5.2929,-5.2929,-5.2929,-5.2929,-5.2929,-5.2929,-5.2929,-5.2929,-5.2929,-5.2929,-5.2929,-5.3204,-5.3614,-5.3861,-5.4241,-5.4645,-5.4939,-5.7551,-5.9503,-6.0692,-6.3327,-6.5156,-6.5978,-6.6617,-6.7005,-6.7317,-6.8301,-6.8994,-6.9285,-7.0049,-7.0549,-7.0825,-7.1131,-7.1367,-7.1512,-7.1898,-7.2072,-7.2245,-7.2586,-7.2671,-7.2671,-7.2671,-7.2671,-7.2755,-7.2922,-7.3088,-7.3334,0.0,0.0,0.0,0.0,0.0,0.0,0.0,0.0,2.0251,1.7656,1.4863,1.2554,1.1225,0.9049,0.7045,0.5538,0.2853,0.0503,-0.1174,-0.3858,-0.6208,-0.8048,0.0,0.0,0.0,0.0,-1.682,-1.8607,-2.0403,-2.1933,-2.3363,-2.4299,-2.588,-2.7797,-2.7609,-2.9313,-3.2412,-3.356,-3.488,-3.619,-3.6992,-3.7809,-3.864,-3.864,-3.864,-3.864,-3.864,-3.864,-3.864,-3.8798,-3.943,-3.9902,-4.0216,-4.0685,-4.1172,-4.1172,-4.1172,-4.1172,-4.1172,-4.1773,-4.237,-4.237,-4.4741,0.0,0.0,-5.0151,-5.1911,-5.2767,-5.2929,-5.2929,-5.2929,-5.2929,-5.2929,-5.2929,-5.2929,-5.2929,-5.2929,-5.2929,-5.2929,-5.3204,-5.3452,-5.3861,-5.4241,-5.4537,-5.4939,-5.5365,-5.8411,-6.0451,-6.0932,-6.3811,-6.5731,-6.6224,-6.6796,-6.7388,-6.7797,-6.86,-6.9285,-6.9798,-7.0236,-7.0608,-7.0916,-7.1278,-7.1512,-7.16,-7.1985,-7.2245,-7.2331,-7.2586,-7.2671,-7.2671,-7.2671,-7.2755,-7.2838,-7.3088,-7.3334,-7.3496,2.9619,0.0,0.0,0.0,0.0,0.0,0.0,0.0,1.944,1.6032,1.3549,1.1386,0.9721,0.7045,0.5033,0.3856,0.1174,-0.1509,-0.3515,-0.5363,-0.771,-1.0554,0.0,-1.2707,0.0,0.0,0.0,-2.1222,-2.1545,-2.2659,-2.4401,-2.4504,-2.6071,-2.8813,-2.8479,-3.0607,-3.4409,-3.4734,-3.5544,-3.6546,-3.7986,-3.8481,-3.8322,-3.8481,-3.864,-3.864,-3.864,-3.8798,-3.8798,-3.9114,-3.9588,-4.0059,-4.0353,-4.0685,-4.1172,-4.1172,-4.1172,-4.1172,-4.1172,-4.1773,-4.237,-4.237,-4.4891,-4.7535,0.0,0.0,0.0,-5.2792,-5.2929,-5.2929,-5.2929,-5.2929,-5.2854,-5.2653,-5.2779,-5.2854,-5.2628,-5.2804,-5.3204,-5.3478,-5.3861,-5.4241,-5.4511,-5.4939,-5.5472,-5.5973,-5.8912,-6.0841,-6.1408,-6.4259,-6.5947,-6.6406,-6.7213,-6.7797,-6.8301,-6.8896,-6.9607,-7.027,-7.0423,-7.0733,-7.1007,-7.1423,-7.16,-7.1688,-7.2159,-7.2331,-7.2416,-7.2586,-7.2671,-7.2671,-7.2671,-7.2838,-7.3005,-7.3252,-7.3496,-7.3772,3.1146,2.8544,0.0,0.0,0.0,0.0,0.0,0.0,1.781,1.4706,1.3052,1.1048,0.8036,0.6369,0.3521,-0.1339,-0.2177,-0.3852,-0.7208,-0.9049,-1.0221,-1.0721,-1.2229,-1.4045,-1.6008,0.0,0.0,0.0,-2.2694,-2.3973,-2.4901,-2.4668,-2.5753,-2.7861,-2.8785,-3.0578,-3.3085,-3.5025,-3.6351,-3.7348,-3.8163,-3.8163,-3.7685,-3.8322,-3.864,-3.864,-3.9114,-3.9272,-3.9272,-3.9272,-3.9726,-4.0353,-4.0059,-4.0529,-4.1172,-4.1172,-4.1172,-4.1172,-4.1172,-4.1773,-4.237,-4.237,-4.3289,-4.4913,-4.7681,0.0,-4.9581,-5.2352,0.0,-5.2929,-5.2929,0.0,0.0,-5.1624,-5.2277,-5.2578,-5.1599,-5.2573,-5.3478,-5.3478,-5.4132,-5.4511,-5.4511,-5.5206,-5.6105,-5.7551,-5.9598,-6.1645,-6.3327,-6.5125,-6.6512,-6.7213,-6.7797,-6.8401,-6.8896,-6.9703,-7.0176,-7.0423,-7.0733,-7.1007,-7.1222,-7.1512,-7.1688,-7.1985,-7.2245,-7.2416,-7.2671,-7.2671,-7.2671,-7.2671,-7.2671,-7.2838,-7.3005,-7.3252,-7.3496,-7.3772,3.1606,2.8997,2.6702,0.0,0.0,0.0,0.0,0.0,1.5193,1.3217,1.1724,0.9716,0.6536,0.4863,0.2011,-0.2344,-0.3686,-0.5697,-0.9383,-1.0221,-1.1225,-1.2229,-1.4045,-1.5679,-1.7474,0.0,0.0,0.0,-2.3663,-2.4202,-2.4796,-2.555,-2.731,-2.9575,-3.0851,-3.2577,-3.4734,-3.5706,-3.6046,-3.608,-3.7365,-3.7348,-3.6867,-3.8163,-3.864,-3.864,-3.8798,-3.9114,-3.9272,-3.9588,-4.004,-4.0509,-4.0685,-4.086,-4.1172,-4.1172,-4.1172,-4.1172,-4.1172,-4.1618,-4.2082,-4.2082,-4.3269,-4.5191,-4.7366,-4.8817,-5.0293,-5.2491,0.0,0.0,0.0,0.0,0.0,0.0,-5.2628,-5.2779,-5.2573,-5.3309,-5.3725,-5.3725,-5.4241,-5.4645,-5.5046,-5.5604,-5.6601,-5.8411,-6.0237,-6.2027,-6.3893,-6.5669,-6.6901,-6.7388,-6.8201,-6.8797,-6.8994,-6.9798,-7.027,-7.0515,-7.0825,-7.1098,-7.1457,-7.1722,-7.1985,-7.2159,-7.2416,-7.2586,-7.2671,-7.2671,-7.2671,-7.2671,-7.2838,-7.3005,-7.317,-7.3415,-7.3657,-7.3931,3.2201,2.9308,2.6716,2.6386,0.0,0.0,0.0,1.6336,1.3549,1.1724,1.0726,0.8716,0.5033,0.3524,0.0839,-0.3868,-0.5387,-0.7745,-1.1277,-1.1444,-1.226,-1.4052,-1.5358,-1.6983,-1.9267,-2.0565,0.0,0.0,-2.4106,-2.4371,-2.4637,-2.6223,-2.8149,-3.0426,-3.2083,-3.3919,-3.574,-3.6224,-3.6063,-3.5595,-3.7188,-3.7348,-3.6867,-3.8163,-3.864,-3.864,-3.8798,-3.9114,-3.9588,-3.9902,-4.0372,-4.0685,-4.0997,-4.1172,-4.1172,-4.1172,-4.1172,-4.1172,-4.1172,-4.1463,-4.1773,-4.1773,-4.3116,-4.502,-4.7198,-4.865,-5.041,-5.2491,-5.2929,0.0,0.0,0.0,-5.2829,-5.2528,0.0,-5.3103,-5.3047,-5.3656,-5.4106,-5.4106,-5.4511,-5.5046,-5.5604,-5.6,-5.7221,-5.938,-6.0841,-6.2609,-6.4813,-6.6311,-6.7285,-6.7797,-6.86,-6.9091,-6.9285,-6.9988,-7.0363,-7.0608,-7.0916,-7.1244,-7.16,-7.1985,-7.2159,-7.2331,-7.2586,-7.2671,-7.2671,-7.2671,-7.2755,-7.2838,-7.3005,-7.3252,-7.3415,-7.3612,-7.3852,-7.401,3.3112,2.9449,2.6386,2.6386,2.3644,1.9755,1.5028,1.4045,1.3052,1.056,1.006,0.8211,0.3355,0.2686,-0.0168,-0.7484,-0.8174,-0.9705,-1.3283,-1.3452,-1.4216,-1.5851,-1.6008,-1.7638,-2.105,-2.1222,-2.2039,-2.384,-2.4106,-2.4371,-2.4637,-2.6223,-2.7829,-2.9621,-3.1753,-3.3592,-3.4946,-3.6724,-3.7365,-3.7365,-3.8163,-3.8481,-3.8481,-3.864,-3.864,-3.864,-3.9588,-3.9902,-3.9902,-4.0353,-4.0841,-4.1172,-4.0666,-4.0841,-4.1172,-4.1172,-4.1172,-4.1172,-4.1172,-4.1463,-4.1773,-4.1773,-4.2236,-4.34,-4.6757,-4.7636,-4.865,-5.2189,-5.2929,-5.2929,-5.2929,-5.2929,-5.2578,-5.1498,-5.2497,0.0,0.0,-5.3413,-5.4511,-5.4511,-5.5046,-5.5604,-5.5604,-5.6263,-5.7861,-6.0572,-6.1527,-6.3411,-6.6764,-6.7181,-6.7899,-6.8896,-6.8994,-6.9382,-7.0176,-7.033,-7.0608,-7.0916,-7.1334,-7.16,-7.16,-7.2038,-7.2331,-7.2331,-7.2586,-7.2671,-7.2671,-7.2671,-7.2838,-7.3005,-7.3252,-7.3415,-7.3692,-7.3692,-7.3852,-7.401,3.13,2.9012,2.6689,2.5396,2.3632,2.0878,1.5687,1.4368,1.2701,0.8874,0.7714,0.5703,0.1343,0.084,-0.1515,-0.7827,-0.8348,-0.9909,-1.3416,-1.3682,-1.4484,-1.6357,-1.7286,-1.8846,-2.1459,-2.2452,-2.3269,-2.4106,-2.4359,-2.512,0.0,0.0,0.0,-3.0969,-3.3116,-3.4767,-3.574,-3.6224,-3.6867,-3.7365,-3.7685,-3.8163,-3.864,-3.864,-3.864,-3.864,-3.8956,-3.943,-3.9902,-4.0059,-4.0529,-4.1172,-4.0997,-4.1016,-4.1172,-4.1172,-4.1172,-4.1172,-4.1172,-4.2062,-4.2657,-4.1618,-4.3269,-4.5468,-4.661,-4.8095,-4.9866,-5.205,-5.2792,-5.2929,-5.2929,-5.2929,-5.2804,-5.2699,-5.3224,-5.3462,0.0,-5.4278,-5.4939,-5.5206,-5.5472,-5.5736,-5.5868,-5.735,-5.9161,-6.1408,-6.3009,-6.494,-6.7181,-6.8,-6.86,-6.8994,-6.9511,-6.9893,-7.0176,-7.0549,-7.0825,-7.0916,-7.1334,-7.1688,-7.1898,-7.2159,-7.2416,-7.2586,-7.2671,-7.2671,-7.2671,-7.2671,-7.2838,-7.3005,-7.3252,-7.3496,-7.3692,-7.3852,-7.3931,-7.408,3.0716,2.8856,2.6833,2.5238,2.2968,1.9725,1.5185,1.337,1.1208,0.7372,0.6208,0.4363,0.0504,-0.0504,-0.3035,-0.7874,-0.891,-1.0667,-1.374,-1.4515,-1.5655,-1.7383,-1.8985,-2.0724,-2.2707,-2.3551,-2.4202,-2.4371,-2.5133,-2.6007,-2.7017,0.0,0.0,0.0,-3.3476,-3.4929,-3.6063,-3.6063,-3.6707,-3.7845,-3.7845,-3.8163,-3.864,-3.864,-3.864,-3.864,-3.8798,-3.9272,-3.9902,-4.0059,-4.0529,-4.1172,-4.1172,-4.1172,-4.1172,-4.1172,-4.1172,-4.1172,-4.1172,-4.237,-4.3248,-4.2216,-4.4138,-4.6507,-4.722,-4.8552,-5.0316,-5.2074,-5.2654,-5.2929,-5.2929,-5.2929,-5.3067,-5.3478,-5.3614,-5.3861,0.0,-5.5072,-5.5365,-5.5604,-5.5736,-5.6105,-5.7092,-5.8088,-5.99,-6.2463,-6.3802,-6.5513,-6.7593,-6.8501,-6.9091,-6.9285,-6.9893,-7.027,-7.027,-7.0733,-7.0916,-7.1007,-7.1546,-7.181,-7.1985,-7.2331,-7.2501,-7.2671,-7.2671,-7.2671,-7.2671,-7.2671,-7.2838,-7.317,-7.3252,-7.3496,-7.3852,-7.3931,-7.401,-7.408,3.1178,2.8856,2.6517,2.5568,2.1179,1.6794,1.337,1.122,0.9054,0.6211,0.5538,0.386,0.0336,-0.1844,-0.4391,-0.8125,-1.0214,-1.1997,-1.3894,-1.579,-1.7596,-1.9119,-2.094,-2.2788,-2.4649,-2.4637,-2.4637,-2.4649,-2.6223,-2.703,-2.721,0.0,0.0,0.0,-3.2983,-3.4458,-3.6063,-3.6063,-3.7028,-3.864,-3.864,-3.864,-3.864,-3.864,-3.864,-3.864,-3.9114,-3.9588,-3.9902,-4.0353,-4.0841,-4.1172,-4.1172,-4.1172,-4.1172,-4.1172,-4.1172,-4.1172,-4.1172,-4.235,-4.3532,-4.3532,-4.487,-4.6655,-4.843,-4.9295,-5.0009,-5.2074,-5.2654,-5.2929,-5.2929,-5.2929,-5.3067,-5.3478,-5.3861,-5.4267,-5.4965,-5.5365,-5.5604,-5.5604,-5.6,-5.6963,-5.8787,-5.862,-5.9929,-6.3863,-6.4056,-6.5157,-6.8068,-6.8797,-6.9285,-6.9798,-7.0082,-7.0363,-7.0515,-7.0825,-7.1007,-7.1312,-7.1722,-7.1985,-7.1985,-7.2501,-7.2671,-7.2671,-7.2671,-7.2671,-7.2671,-7.2671,-7.2922,-7.3334,-7.3334,-7.3577,-7.401,-7.401,-7.401,-7.401,2.8544,2.603,2.3472,2.119,1.8933,1.6828,1.4848,1.2014,0.8523,0.4526,0.3357,0.1512,-0.1681,-0.4029,-0.6262,-0.8301,-1.0214,-1.2038,-1.4048,-1.5859,-1.7716,-1.9703,-2.1114,-2.2866,-2.4927,-2.4733,-2.4733,-2.4939,-2.6325,-2.7622,-2.884,0.0,0.0,0.0,-3.3312,-3.4458,-3.6063,-3.6063,-3.7028,-3.864,-3.864,-3.864,-3.864,-3.864,-3.864,-3.864,-3.8798,-3.9272,-3.9902,-4.0059,-4.0529,-4.1172,-4.1172,-4.1172,-4.1172,-4.1172,-4.1172,-4.1172,-4.1172,-4.3248,-4.502,-4.3835,-4.6507,-4.9342,-4.9008,-5.0032,-5.1352,-5.2213,-5.2654,-5.2929,-5.2929,-5.2929,-5.3067,-5.3725,-5.4402,-5.4965,-5.5365,-5.5604,-5.5736,-5.642,-5.7478,-5.8186,-5.8016,-5.9806,-6.1763,-6.372,-6.5835,-6.7497,-6.8699,-6.9478,-6.9988,-7.0082,-7.0456,-7.0733,-7.0825,-7.1007,-7.1278,-7.1512,-7.181,-7.2072,-7.2245,-7.2586,-7.2671,-7.2671,-7.2671,-7.2671,-7.2671,-7.2838,-7.3088,-7.3334,-7.3496,-7.3737,-7.401,-7.401,-7.401,-7.401,2.7462,2.4933,2.2361,1.942,1.7638,1.6008,1.4196,1.1374,0.8373,0.503,0.2686,0.0504,-0.2018,-0.5227,-0.7484,-0.8477,-1.095,-1.2991,-1.4285,-1.6824,-1.8712,-1.9864,-2.2225,-2.4024,-2.5216,-2.5059,-2.5059,-2.5216,-2.72,-2.8618,-2.9621,0.0,0.0,0.0,-3.3492,-3.4294,-3.5578,-3.6385,-3.7188,-3.8163,-3.8481,-3.864,0.0,-3.864,-3.864,-3.864,-3.864,-3.9114,-3.9588,-3.9902,-4.0372,-4.0997,-4.1172,-4.1172,-4.1172,-4.1172,-4.1172,-4.1172,-4.1172,-4.3553,-4.5617,-4.4741,-4.7704,-5.0554,-5.0056,-5.093,-5.196,-5.2377,-5.2654,-5.2929,-5.2929,-5.3067,-5.3316,-5.4106,-5.4671,-5.5232,-5.5604,-5.5736,-5.6,-5.6682,-5.8214,-5.9161,-5.8996,-6.12,-6.3267,-6.4641,-6.671,-6.8236,-6.8994,-6.9798,-7.0176,-7.0176,-7.0641,-7.0916,-7.0916,-7.1278,-7.1457,-7.16,-7.1985,-7.2159,-7.2331,-7.2586,-7.2671,-7.2671,-7.2671,-7.2755,-7.2838,-7.2922,-7.317,-7.3496,-7.3772,-7.3931,-7.401,-7.401,-7.401,-7.401,2.6991,2.4442,2.1706,1.8789,1.682,1.4863,1.2235,1.008,0.8072,0.6382,0.2855,-0.0336,-0.2018,-0.5761,-0.8386,-0.8654,-1.2062,-1.4136,-1.4639,-1.7964,-2.0047,-2.0221,-2.3525,-2.5433,-2.5433,-2.5433,-2.5433,-2.5433,-2.811,-2.9453,-2.9621,0.0,0.0,0.0,0.0,-3.3968,-3.5109,-3.6707,-3.7525,-3.7685,-3.8322,-3.864,-3.864,-3.864,-3.864,-3.864,-3.864,-3.8956,-3.943,-3.9745,-4.0216,-4.0509,-4.1016,-4.1172,-4.1172,-4.1172,-4.1172,-4.1172,-4.1172,-4.3553,-4.5915,-4.5915,-4.8308,-5.0837,-5.1236,-5.1516,-5.196,-5.2377,-5.2654,-5.2929,-5.2929,-5.3341,-5.3861,-5.4511,-5.4939,-5.5365,-5.5842,-5.6236,-5.6758,-5.7275,-5.894,0.0,-6.0779,-6.2579,-6.442,-6.6004,-6.7022,-6.8072,-6.9091,-6.9893,-7.027,-7.027,-7.0733,-7.0916,-7.0916,-7.1334,-7.16,-7.1688,-7.2038,-7.2331,-7.2331,-7.2586,-7.2671,-7.2671,-7.2671,-7.2838,-7.3005,-7.3005,-7.3334,-7.3772,-7.3931,-7.401,-7.401,-7.401,-7.401,-7.401,2.5885,2.2178,1.8779,1.682,1.502,1.3224,1.1254,0.8566,0.6553,0.5717,0.1177,-0.2694,-0.4542,-0.6277,-0.8049,-1.0032,-1.2241,-1.4472,-1.6553,-1.8654,-2.0568,-2.2136,-2.4224,-2.5433,-2.5433,-2.5433,-2.5433,-2.5433,-2.811,-2.9453,-2.9621,-3.2309,0.0,0.0,0.0,-3.4458,-3.5901,-3.7028,-3.7845,-3.8322,-3.8481,-3.864,-3.864,-3.864,-3.864,-3.864,-3.864,-3.8956,-3.943,-3.9745,-4.0216,-4.0509,-4.1016,-4.1172,-4.1172,-4.1172,-4.1172,-4.1172,-4.1172,-4.3553,-4.5915,-4.5915,-4.8308,-5.0837,-5.1541,-5.182,-5.196,-5.2654,-5.2929,-5.3067,-5.3341,-5.3861,-5.4511,-5.4965,-5.5365,-5.6105,-5.7861,-5.8313,-5.9036,-6.0537,-6.2261,-6.3183,-6.2553,-6.3441,-6.4861,-6.6501,-6.7497,-6.8666,-6.9893,-7.027,-7.0515,-7.0733,-7.1131,-7.1222,-7.1222,-7.1457,-7.1688,-7.1898,-7.2159,-7.2416,-7.2586,-7.2671,-7.2671,-7.2671,-7.2671,-7.2838,-7.3005,-7.317,-7.3496,-7.3931,-7.401,-7.401,-7.401,-7.401,-7.401,-7.401,2.5422,2.1534,1.7973,1.6336,1.4533,1.2733,1.0942,0.7901,0.6385,0.7921,0.2692,-0.2362,-0.5256,-0.6843,-0.8465,-1.0468,-1.2342,-1.4562,-1.6912,-1.8828,-2.0742,-2.2654,-2.4395,-2.5433,-2.5433,-2.5433,-2.5775,-2.6443,-2.8446,-2.9788,-3.0636,-3.2639,-3.3492,-3.3476,0.0,-3.4621,-3.5578,-3.6867,-3.7401,-3.7697,-3.8171,-3.8199,-3.8016,-3.8016,-3.8016,-3.8016,-3.8016,-3.8154,-3.8539,-3.9594,-4.0059,-4.0372,-4.1016,-4.1172,-4.1172,-4.1172,-4.1172,-4.1327,-4.2216,-4.4138,-4.6063,-4.6971,-4.891,-5.0837,-5.1681,-5.182,-5.196,-5.2792,-5.3067,-5.3341,-5.3861,-5.4241,-5.4645,-5.5206,-5.5472,-5.634,-5.8564,-5.8912,-5.9626,-6.1438,-6.3183,-6.4087,-6.3944,-6.5111,-6.611,-6.671,-6.8236,-6.9382,-7.0176,-7.0363,-7.0608,-7.0916,-7.1131,-7.1401,-7.1457,-7.1722,-7.1898,-7.2159,-7.2416,-7.2586,-7.2671,-7.2671,-7.2671,-7.2671,-7.2838,-7.3005,-7.317,-7.3496,-7.3817,-7.401,-7.401,-7.401,-7.401,-7.401,-7.401,-7.401,2.4786,2.105,1.7638,1.6172,1.4203,1.2407,1.0953,0.7733,0.605,0.8097,0.3537,-0.1521,-0.529,-0.7589,-0.9581,-1.0904,-1.2443,-1.4639,-1.743,-1.9003,-2.0915,-2.317,-2.4566,-2.5433,-2.5433,-2.5433,-2.6078,-2.7343,-2.8687,-3.0022,-3.1377,-3.271,-3.3365,-3.3365,-3.4343,-3.478,-3.4875,-3.6463,-3.708,-3.697,-3.7576,-3.7704,-3.7429,-3.7429,-3.7429,-3.7429,-3.7429,-3.7429,-3.7675,-3.9118,-3.9694,-3.9945,-4.0821,-4.1172,-4.1172,-4.1172,-4.1172,-4.1463,-4.3096,-4.4741,-4.6211,-4.7872,-4.9509,-5.0837,-5.1681,-5.182,-5.196,-5.2792,-5.3341,-5.3725,-5.4376,-5.4645,-5.4913,-5.5604,-5.5973,-5.6963,-5.9256,-5.9626,-6.048,-6.2609,-6.3863,-6.4861,-6.5482,-6.6878,-6.7561,-6.726,-6.8732,-6.9893,-7.027,-7.0456,-7.0733,-7.1007,-7.1188,-7.1457,-7.16,-7.1898,-7.2159,-7.2331,-7.2586,-7.2671,-7.2671,-7.2671,-7.2671,-7.2671,-7.2922,-7.317,-7.3415,-7.3852,-7.401,-7.401,-7.401,-7.401,-7.401,-7.401,-7.4088,-7.4132,2.3656,1.9592,1.6172,1.6008,1.3211,1.0915,1.0786,0.7733,0.4367,0.1346,0.0337,-0.1521,-0.5285,-0.8981,-1.1351,-1.1789,-1.262,-1.4625,-1.8811,-1.9516,-2.1435,-2.4909,-2.5263,-2.5433,-2.5433,-2.5433,-2.5979,-2.6877,-2.8386,-2.9707,-3.1018,-3.2336,-3.3,-3.3,-3.3951,-3.4568,-3.5018,-3.5799,-3.6731,-3.733,-3.7484,-3.7448,-3.7429,-3.7429,-3.7429,-3.7429,-3.7429,-3.7429,-3.7448,-3.8001,-3.8723,-3.9546,-4.088,-4.1172,-4.1172,-4.1172,-4.1172,-4.1463,-4.3096,-4.4741,-4.6211,-4.7872,-4.9509,-5.0837,-5.1681,-5.182,-5.196,-5.2792,-5.3452,-5.4132,-5.4376,-5.5046,-5.5604,-5.6,-5.7377,-5.8968,-6.1019,-6.1733,-6.3014,-6.5483,-6.5853,-6.6142,-6.7046,-6.8169,-6.8797,-6.8797,-6.9188,-6.9765,-7.0423,-7.0733,-7.1007,-7.1222,-7.1457,-7.16,-7.16,-7.2038,-7.2331,-7.2331,-7.2586,-7.2671,-7.2671,-7.2671,-7.2671,-7.2671,-7.2922,-7.3252,-7.3692,-7.3931,-7.401,-7.401,-7.401,-7.401,-7.401,-7.401,-7.4245,-7.4593,2.3496,1.9258,1.6008,1.6008,1.3045,1.0748,1.0618,0.7733,0.4029,0.0505,-0.4066,-0.6662,-0.5851,-0.9234,-1.1631,-1.2079,-1.3192,-1.533,-1.8985,-2.0221,-2.2136,-2.5263,-2.5433,-2.5433,-2.5433,-2.5433,-2.6381,-2.8424,-2.8758,-2.9992,-3.2127,-3.2569,-3.2634,-3.2634,-3.405,-3.4739,-3.4915,-3.6332,-3.6976,-3.7081,-3.7081,-3.6916,-3.6696,-3.6696,-3.6696,-3.6696,-3.6696,-3.6696,-3.6732,-3.7444,-3.827,-3.9141,-4.0105,-4.0628,-4.0841,-4.1172,-4.1172,-4.1773,-4.4289,-4.5468,-4.6529,-4.9054,-5.0246,-5.0837,-5.1681,-5.182,-5.196,-5.2792,-5.3452,-5.4267,-5.5072,-5.5339,-5.5736,-5.6394,-5.7834,-5.9532,-6.1438,-6.2754,-6.4259,-6.6161,-6.6659,-6.7149,-6.7797,-6.86,-6.9091,-6.9511,-6.9607,-6.986,-7.0423,-7.0608,-7.0825,-7.1312,-7.1546,-7.1688,-7.181,-7.2159,-7.2416,-7.2501,-7.2671,-7.2671,-7.2671,-7.2671,-7.2838,-7.3088,-7.3334,-7.3612,-7.3931,-7.401,-7.401,-7.401,-7.401,-7.401,-7.401,-7.4287,-7.4441,-7.4669,2.2361,1.8617,1.5843,1.535,1.272,1.0753,1.0618,0.8584,0.5219,0.0677,-0.5637,-0.9149,-0.763,-0.9816,-1.1698,-1.1976,-1.3401,-1.5682,-1.8811,-2.0395,-2.2492,-2.5263,-2.5433,-2.5433,-2.5433,-2.5433,-2.6732,-2.9313,-2.9103,-3.0276,-3.2793,-3.2539,-3.2507,-3.2726,-3.4138,-3.4848,-3.5054,-3.6435,-3.6897,-3.6659,-3.6659,-3.6476,-3.6201,-3.6201,-3.6201,-3.6201,-3.6201,-3.6201,-3.6256,-3.6849,-3.7574,-3.834,-3.9356,-3.9932,-4.0356,-4.0802,-4.1016,-4.1927,-4.5041,-4.5915,-4.6655,-4.9961,-5.0837,-5.0978,-5.1681,-5.196,-5.2213,-5.3042,-5.3725,-5.4376,-5.5472,-5.5736,-5.6132,-5.7146,-5.869,-6.0359,-6.2261,-6.3555,-6.4954,-6.6691,-6.7078,-6.7561,-6.8401,-6.8994,-6.9511,-6.9893,-6.9988,-7.0143,-7.0515,-7.0699,-7.0973,-7.1367,-7.1688,-7.1864,-7.2072,-7.2331,-7.2501,-7.2671,-7.2671,-7.2671,-7.2671,-7.2755,-7.3005,-7.3334,-7.3577,-7.3852,-7.401,-7.401,-7.401,-7.401,-7.401,-7.4088,-7.4245,-7.4553,-7.4784,-7.519,1.943,1.7147,1.5514,1.3714,1.1908,1.077,1.0624,1.064,0.813,0.0855,-0.3447,-0.7284,-1.0972,-1.1417,-1.1522,-1.1444,-1.3224,-1.5499,-1.827,-2.0211,-2.2492,-2.5263,-2.5433,-2.5433,-2.5433,-2.5433,-2.6474,-2.884,-2.884,-3.0144,-3.2412,-3.2412,-3.271,-3.3149,-3.3906,-3.462,-3.5025,-3.5921,-3.6219,-3.6219,-3.6219,-3.6219,-3.6201,-3.6201,-3.6201,-3.6201,-3.6201,-3.6201,-3.6201,-3.6219,-3.6494,-3.7141,-3.8839,-3.9586,-3.9971,-4.0394,-4.0841,-4.1927,-4.5041,-4.5915,-4.6655,-4.9961,-5.0954,-5.1352,-5.1681,-5.2099,-5.2629,-5.3725,-5.4241,-5.4779,-5.5472,-5.5868,-5.6628,-5.8368,-6.0173,-6.1969,-6.3585,-6.429,-6.5452,-6.7181,-6.7014,-6.7362,-6.8896,-6.9703,-7.0209,-7.0176,-7.0363,-7.0515,-7.0515,-7.1154,-7.16,-7.16,-7.2038,-7.2331,-7.2331,-7.2586,-7.2671,-7.2671,-7.2671,-7.2671,-7.2671,-7.2922,-7.3088,-7.3334,-7.3577,-7.3852,-7.401,-7.401,-7.401,-7.401,-7.401,-7.4209,-7.4593,-7.4593,-7.5371,-7.6396,1.9277,1.7147,1.5514,1.3714,1.1914,0.9918,0.7394,0.9105,0.6255,-0.6157,-0.6557,-0.7129,-1.1068,-1.1522,-1.1417,-1.1455,-1.3748,-1.5858,-1.7413,-2.0568,-2.2848,-2.4407,-2.5092,-2.5433,-2.5433,-2.5433,-2.6732,-2.9313,-2.9103,-3.0042,-3.2078,-3.2078,-3.2044,-3.2017,-3.3381,-3.4057,-3.4255,-3.5605,-3.6201,-3.6201,-3.6201,-3.6201,-3.6201,-3.6201,-3.6201,-3.6237,-3.6531,-3.6641,-3.6677,-3.6952,-3.6952,-3.6934,-3.7755,-3.8434,-3.9198,-4.0238,-4.0666,-4.1424,-4.502,-4.5915,-4.6655,-4.9961,-5.0954,-5.1376,-5.1681,-5.2515,-5.3341,-5.3861,-5.4241,-5.4779,-5.571,-5.6,-5.6731,-5.894,-6.06,-6.2261,-6.3893,-6.5498,-6.6764,-6.7285,-6.7967,-6.8436,-6.8994,-6.9703,-7.0176,-7.0176,-7.0549,-7.0825,-7.0825,-7.1188,-7.1423,-7.16,-7.2038,-7.2331,-7.2331,-7.2586,-7.2671,-7.2671,-7.2671,-7.2755,-7.2922,-7.3088,-7.3334,-7.3577,-7.3852,-7.3931,-7.401,-7.401,-7.401,-7.401,-7.401,-7.4245,-7.4593,-7.4858,-7.5584,-7.6396,1.8291,1.6828,1.5185,1.2886,1.1421,0.9421,0.5876,0.6078,0.2379,-0.9831,-0.9394,-0.8769,-1.118,-1.1422,-1.1455,-1.1455,-1.4102,-1.6034,-1.7071,-2.0578,-2.3204,-2.4064,-2.4921,-2.5433,-2.5433,-2.5433,-2.677,-2.9453,-3.0137,-3.1088,-3.2301,-3.2046,-3.1948,-3.2033,-3.3264,-3.3954,-3.4406,-3.5605,-3.6201,-3.6201,-3.6201,-3.6201,-3.6201,-3.6201,-3.6311,-3.6476,-3.6751,-3.6934,-3.7099,-3.7338,-3.7264,-3.7099,-3.7338,-3.7859,-3.8695,-3.9736,-4.0666,-4.2002,-4.502,-4.6381,-4.7411,-5.0222,-5.1095,-5.1516,-5.2099,-5.2904,-5.3725,-5.3997,-5.4511,-5.518,-5.5973,-5.6601,-5.7706,-5.99,-6.1556,-6.3213,-6.4734,-6.6385,-6.7491,-6.7695,-6.8501,-6.9091,-6.9382,-6.9988,-7.0363,-7.0456,-7.0825,-7.1007,-7.1007,-7.1367,-7.1634,-7.1776,-7.2245,-7.2416,-7.2416,-7.2586,-7.2671,-7.2671,-7.2671,-7.2838,-7.3005,-7.3252,-7.3415,-7.3692,-7.3931,-7.401,-7.401,-7.401,-7.401,-7.401,-7.4167,-7.4441,-7.4858,-7.519,-7.5963,-7.6909,1.6983,1.6008,1.4856,1.1397,1.077,0.9603,0.6221,0.2547,-0.275,-1.0111,-1.127,-1.1544,-1.1471,-1.1465,-1.1455,-1.1632,-1.4102,-1.6034,-1.6896,-2.0578,-2.3031,-2.3892,-2.4921,-2.5263,-2.5433,-2.5433,-2.694,-2.9621,-3.1987,-3.2984,-3.2936,-3.2301,-3.242,-3.2977,-3.3551,-3.4273,-3.5007,-3.5903,-3.6201,-3.6201,-3.6201,-3.6201,-3.6201,-3.6201,-3.6476,-3.6842,-3.6861,-3.7136,-3.7466,-3.7503,-3.7484,-3.7466,-3.7429,-3.7704,-3.8172,-3.8949,-4.0896,-4.3359,-4.5319,-4.7118,-4.8743,-5.0765,-5.1516,-5.2099,-5.2792,-5.3452,-5.3997,-5.3997,-5.4939,-5.5736,-5.6105,-5.7478,-5.9313,-6.1377,-6.2899,-6.4401,-6.6085,-6.7005,-6.7695,-6.8201,-6.8699,-6.9382,-7.0082,-7.0363,-7.0608,-7.0916,-7.1131,-7.1312,-7.1312,-7.1722,-7.1985,-7.1985,-7.2416,-7.2671,-7.2671,-7.2671,-7.2671,-7.2671,-7.2671,-7.2838,-7.3005,-7.3252,-7.3496,-7.3772,-7.3931,-7.401,-7.401,-7.401,-7.401,-7.4088,-7.4441,-7.4784,-7.519,-7.5549,-7.6563,-7.771,1.6828,1.6008,1.4856,1.1248,1.0775,1.0488,0.9554,0.4101,-0.1722,-0.6485,-0.9703,-1.1539,-1.1455,-1.146,-1.1988,-1.304,-1.4632,-1.5858,-1.6034,-1.9544,-2.1995,-2.3031,-2.3892,-2.4749,-2.5433,-2.6443,-2.8278,-3.0984,-3.2561,-3.3222,-3.2952,-3.2793,-3.2586,-3.2216,-3.3513,-3.4229,-3.4255,-3.5605,-3.6201,-3.6201,-3.6201,-3.6201,-3.6201,-3.6201,-3.6476,-3.6879,-3.7173,-3.7539,-3.7924,-3.8255,-3.8144,-3.7814,-3.7521,-3.7704,-3.8172,-3.8657,-4.0607,-4.2902,-4.4849,-4.6802,-4.8743,-5.0765,-5.1796,-5.2515,-5.3204,-5.3725,-5.4132,-5.4376,-5.5072,-5.5973,-5.7322,-5.8285,-5.9872,-6.2754,-6.378,-6.4813,-6.6869,-6.7593,-6.8201,-6.8797,-6.9285,-6.9798,-7.0176,-7.0363,-7.0608,-7.0916,-7.1131,-7.1401,-7.1512,-7.181,-7.1985,-7.1985,-7.2416,-7.2671,-7.2671,-7.2671,-7.2671,-7.2671,-7.2838,-7.3005,-7.3252,-7.3496,-7.3737,-7.3931,-7.401,-7.401,-7.401,-7.401,-7.4167,-7.4441,-7.4517,-7.5006,-7.5549,-7.569,-7.6563,-7.771,1.6664,1.6008,1.4886,1.1333,0.9324,0.8857,1.0366,0.1557,-0.5404,-0.563,-0.9039,-1.1411,-1.1449,-1.1455,-1.1982,-1.3394,-1.4808,-1.6042,-1.6569,-1.9544,-2.1649,-2.2686,-2.3548,-2.4578,-2.5433,-2.677,-2.8783,-3.1482,-3.2819,-3.3381,-3.319,-3.3031,-3.2761,-3.2539,-3.3748,-3.4248,-3.4042,-3.5528,-3.6201,-3.6201,-3.6201,-3.6201,-3.6201,-3.6201,-3.6586,-3.7136,-3.7356,-3.7796,-3.8346,-3.8566,-3.8365,-3.7943,-3.7558,-3.7704,-3.8135,-3.9165,-4.133,-4.3642,-4.5148,-4.7411,-4.9795,-5.1095,-5.2074,-5.2792,-5.3341,-5.3725,-5.4132,-5.4671,-5.5339,-5.6367,-5.7961,-5.9284,-6.0961,-6.3357,-6.4512,-6.5638,-6.7181,-6.7899,-6.8401,-6.8896,-6.9607,-7.0082,-7.0363,-7.0549,-7.0825,-7.1007,-7.1222,-7.1401,-7.16,-7.1898,-7.2072,-7.2159,-7.2501,-7.2671,-7.2671,-7.2671,-7.2671,-7.2671,-7.2922,-7.3088,-7.3334,-7.3577,-7.3852,-7.401,-7.401,-7.401,-7.401,-7.4245,-7.4364,-7.4593,-7.4933,-7.5478,-7.6068,-7.6203,-7.7009,-7.7997,1.6706,1.5883,1.4622,1.1283,0.7704,0.6188,0.8722,-0.2632,-1.0278,-0.7068,-0.9446,-1.1476,-1.1455,-1.1455,-1.216,-1.3748,-1.4985,-1.6217,-1.763,-1.9902,-2.1649,-2.2686,-2.3548,-2.4407,-2.5433,-2.694,-2.9118,-3.1813,-3.2983,-3.3492,-3.3476,-3.3174,-3.3015,-3.3097,-3.4049,-3.447,-3.435,-3.5689,-3.6274,-3.6201,-3.6201,-3.6201,-3.6219,-3.6274,-3.6769,-3.7429,-3.7503,-3.7998,-3.864,-3.8566,-3.8346,-3.8034,-3.7576,-3.7741,-3.8483,-4.0151,-4.2529,-4.4998,-4.5915,-4.8453,-5.0978,-5.1681,-5.2515,-5.3067,-5.3478,-5.3861,-5.4267,-5.4965,-5.5604,-5.6731,-5.8592,-6.0387,-6.2173,-6.3841,-6.5452,-6.6617,-6.7388,-6.8,-6.8501,-6.9091,-6.9798,-7.027,-7.0515,-7.0733,-7.1007,-7.1312,-7.1312,-7.1457,-7.1688,-7.1898,-7.2159,-7.2331,-7.2586,-7.2671,-7.2671,-7.2671,-7.2671,-7.2671,-7.2922,-7.317,-7.3334,-7.3577,-7.3852,-7.401,-7.401,-7.401,-7.401,-7.4441,-7.4593,-7.4744,-7.5407,-7.6,-7.6563,-7.6856,-7.7592,-7.8383,1.6568,1.4899,1.3283,1.1085,0.7799,0.4518,0.2112,-0.5828,-1.1207,-1.0743,-1.112,-1.1476,-1.1455,-1.1455,-1.2514,-1.5161,-1.5513,-1.6217,-1.763,-1.9214,-2.0955,-2.2686,-2.2859,-2.372,-2.5433,-2.7941,-3.0455,-3.3148,-3.3312,-3.3492,-3.3492,-3.3429,-3.3238,-3.3113,-3.4585,-3.4967,-3.4368,-3.5995,-3.6531,-3.6201,-3.6201,-3.6201,-3.6237,-3.6604,-3.7026,-3.7466,-3.7796,-3.8236,-3.8585,-3.8236,-3.831,-3.842,-3.7668,-3.8254,-3.9381,-4.1059,-4.3206,-4.5574,-4.7073,-4.9462,-5.1681,-5.2238,-5.2929,-5.3478,-5.3861,-5.4106,-5.4645,-5.5339,-5.5868,-5.6963,-5.9965,-6.1319,-6.2724,-6.5375,-6.6586,-6.742,-6.8,-6.8501,-6.9188,-6.9893,-7.0082,-7.0363,-7.0825,-7.0916,-7.1007,-7.1312,-7.1457,-7.1722,-7.1898,-7.2159,-7.2416,-7.2586,-7.2671,-7.2671,-7.2671,-7.2671,-7.2671,-7.2671,-7.3088,-7.3252,-7.3334,-7.3737,-7.401,-7.401,-7.401,-7.401,-7.401,-7.4441,-7.4819,-7.508,-7.5549,-7.6203,-7.692,-7.7019,-7.7592,-7.8383,1.675,1.5086,1.3462,1.1215,0.9481,0.6335,0.089,-0.4809,-0.9108,-1.1141,-1.1487,-1.1465,-1.1455,-1.216,-1.3394,-1.5513,-1.6393,-1.7447,-1.8864,-1.9563,-2.0443,-2.1822,-2.2514,-2.4212,-2.7617,-2.8783,-3.0788,-3.3492,-3.3492,-3.3492,-3.3492,-3.3492,-3.3397,-3.3385,-3.4802,-3.5309,-3.495,-3.6246,-3.6732,-3.6531,-3.6292,-3.6201,-3.6237,-3.6421,-3.6751,-3.7136,-3.7319,-3.7649,-3.7998,-3.8016,-3.7998,-3.7961,-3.7796,-3.8892,-4.053,-4.2399,-4.4909,-4.7243,-4.9151,-5.0624,-5.196,-5.2377,-5.2929,-5.3614,-5.3861,-5.4402,-5.5072,-5.5736,-5.6731,-5.8214,-6.075,-6.2144,-6.3698,-6.5839,-6.6901,-6.7593,-6.8101,-6.8699,-6.9285,-7.0082,-7.027,-7.0549,-7.0825,-7.1007,-7.1188,-7.1457,-7.1512,-7.1776,-7.2159,-7.2245,-7.2416,-7.2671,-7.2671,-7.2671,-7.2671,-7.2671,-7.2755,-7.2838,-7.317,-7.3415,-7.3496,-7.3852,-7.401,-7.401,-7.401,-7.4167,-7.4364,-7.4709,-7.508,-7.5478,-7.6135,-7.6793,-7.7413,-7.7651,-7.8165,-7.8738,1.6771,1.5101,1.2935,1.0264,1.0485,0.8373,0.1076,-0.3225,-0.7163,-1.0962,-1.1476,-1.1455,-1.1455,-1.2692,-1.4102,-1.5513,-1.692,-1.8331,-1.9746,-1.9921,-2.0434,-2.1649,-2.2686,-2.5227,-2.9453,-2.9453,-3.0788,-3.3492,-3.3492,-3.3492,-3.3492,-3.3492,-3.3492,-3.364,-3.497,-3.5583,-3.5622,-3.6605,-3.7007,-3.6806,-3.6476,-3.6292,-3.6219,-3.6311,-3.6549,-3.6861,-3.7044,-3.7301,-3.7613,-3.7906,-3.7888,-3.7741,-3.8545,-3.9875,-4.1746,-4.4272,-4.6928,-4.9318,-5.093,-5.1516,-5.196,-5.2515,-5.3204,-5.3751,-5.4132,-5.4805,-5.5365,-5.6132,-5.7606,-5.9313,-6.1229,-6.2869,-6.4512,-6.6161,-6.7109,-6.7797,-6.8301,-6.8896,-6.9478,-7.0176,-7.0456,-7.0733,-7.1007,-7.1222,-7.1367,-7.16,-7.1688,-7.1864,-7.2331,-7.2331,-7.2501,-7.2671,-7.2671,-7.2671,-7.2671,-7.2671,-7.2838,-7.3005,-7.3252,-7.3415,-7.3692,-7.3931,-7.401,-7.401,-7.401,-7.4245,-7.4593,-7.5006,-7.5407,-7.5931,-7.6664,-7.7353,-7.7883,-7.8275,-7.8686,-7.9116,1.6787,1.3874,1.0254,0.6783,0.8973,0.8807,0.1256,-0.3225,-0.7163,-1.0962,-1.1476,-1.1455,-1.1455,-1.2692,-1.4102,-1.5513,-1.692,-1.8331,-1.9746,-1.9921,-2.0781,-2.2514,-2.4235,-2.6601,-2.9453,-2.9453,-3.0788,-3.3492,-3.3492,-3.3492,-3.3492,-3.3492,-3.3492,-3.364,-3.5221,-3.5823,-3.5656,-3.7162,-3.7503,-3.6824,-3.6806,-3.6549,-3.6256,-3.6641,-3.6806,-3.6934,-3.7668,-3.7943,-3.7979,-3.7998,-3.8255,-3.879,-4.0374,-4.145,-4.2841,-4.6419,-4.9105,-5.1071,-5.1681,-5.182,-5.2099,-5.3204,-5.3725,-5.4132,-5.4831,-5.5365,-5.5736,-5.6551,-5.7834,-5.9626,-6.1527,-6.3183,-6.4892,-6.6974,-6.7797,-6.8301,-6.8896,-6.9607,-7.0176,-7.0423,-7.0733,-7.1007,-7.1222,-7.1312,-7.1367,-7.16,-7.181,-7.2072,-7.2331,-7.2501,-7.2671,-7.2671,-7.2671,-7.2671,-7.2671,-7.2671,-7.2838,-7.3005,-7.3252,-7.3415,-7.3692,-7.3931,-7.401,-7.401,-7.401,-7.4245,-7.4593,-7.5006,-7.5548,-7.6396,-7.6856,-7.7533,-7.8329,-7.8383,-7.8686,-7.9116,1.6974,1.4035,1.018,0.6439,0.502,0.1794,-0.5926,-0.6276,-0.7163,-1.0952,-1.1471,-1.1455,-1.1455,-1.3571,-1.5161,-1.569,-1.7805,-1.9388,-1.9921,-1.9921,-2.0781,-2.2686,-2.3892,-2.575,-2.811,-2.9118,-3.0455,-3.2324,-3.3148,-3.3492,-3.3492,-3.3492,-3.3492,-3.3476,-3.4783,-3.5511,-3.5983,-3.6869,-3.7239,-3.7173,-3.6934,-3.6586,-3.6219,-3.6384,-3.6604,-3.6879,-3.7173,-3.7448,-3.7686,-3.7924,-3.8126,-3.8568,-4.0781,-4.2586,-4.4527,-4.8696,-5.0482,-5.1352,-5.1935,-5.2352,-5.2629,-5.3341,-5.3861,-5.4376,-5.4965,-5.5472,-5.6236,-5.7633,-5.9313,-6.111,-6.2754,-6.4401,-6.5884,-6.7181,-6.7899,-6.8401,-6.8896,-6.9703,-7.027,-7.0515,-7.0733,-7.1007,-7.1312,-7.1367,-7.1634,-7.181,-7.2072,-7.2331,-7.2501,-7.2671,-7.2671,-7.2671,-7.2671,-7.2671,-7.2671,-7.2838,-7.3005,-7.317,-7.3415,-7.3657,-7.3931,-7.401,-7.401,-7.401,-7.4209,-7.4593,-7.4933,-7.5335,-7.6,-7.6856,-7.7292,-7.7826,-7.8437,-7.8738,-7.8929,-7.9116,1.637,1.3597,1.0238,0.6445,0.2509,-0.2513,-1.0267,-0.916,-0.8425,-1.112,-1.1465,-1.1632,-1.216,-1.4278,-1.5866,-1.6393,-1.8506,-1.9921,-1.9921,-2.0434,-2.1302,-2.2686,-2.4224,-2.6091,-2.7941,-2.9453,-3.0803,-3.2144,-3.2983,-3.3492,-3.3492,-3.3492,-3.3492,-3.3476,-3.4458,-3.5109,-3.5723,-3.6268,-3.6656,-3.6932,-3.6354,-3.6225,-3.6201,-3.5903,-3.6176,-3.6861,-3.6971,-3.7283,-3.7668,-3.8071,-3.8513,-3.9174,-4.1882,-4.4527,-4.722,-5.0316,-5.1211,-5.1516,-5.2352,-5.2904,-5.3291,-5.3589,-5.4132,-5.4805,-5.5339,-5.5868,-5.6758,-5.8467,-6.0387,-6.2056,-6.3668,-6.5313,-6.6796,-6.7491,-6.8101,-6.8699,-6.9285,-6.9893,-7.0363,-7.0608,-7.0825,-7.1131,-7.1312,-7.1457,-7.1688,-7.1985,-7.2159,-7.2416,-7.2671,-7.2671,-7.2671,-7.2671,-7.2671,-7.2755,-7.2755,-7.2922,-7.3088,-7.3334,-7.3577,-7.3852,-7.401,-7.401,-7.401,-7.401,-7.4476,-7.4784,-7.5118,-7.5549,-7.627,-7.7231,-7.7592,-7.8053,-7.8633,-7.8979,-7.9116,-7.9116,1.4618,1.2716,1.0238,0.6445,0.2509,-0.2513,-1.0267,-1.152,-1.1504,-1.1487,-1.1465,-1.1988,-1.3394,-1.4808,-1.6217,-1.7622,-1.9039,-1.9921,-1.9921,-2.1649,-2.2686,-2.2686,-2.5738,-2.811,-2.9453,-3.0803,-3.2144,-3.3492,-3.3476,-3.3492,-3.3492,-3.3492,-3.3492,-3.3476,-3.4458,-3.4783,-3.4783,-3.574,-3.6095,-3.6005,-3.5228,-3.5392,-3.6052,-3.5306,-3.5707,-3.6897,-3.7283,-3.7686,-3.8089,-3.8493,-3.9411,-4.0958,-4.3794,-4.7535,-5.0837,-5.1095,-5.1516,-5.196,-5.2742,-5.3427,-5.3997,-5.3997,-5.4537,-5.5232,-5.6,-5.6394,-5.7275,-5.9161,-6.0841,-6.2347,-6.3975,-6.5929,-6.7593,-6.8101,-6.8699,-6.9285,-7.0082,-7.0363,-7.0608,-7.0825,-7.1131,-7.1312,-7.1312,-7.1457,-7.1688,-7.1985,-7.2159,-7.2416,-7.2671,-7.2671,-7.2671,-7.2671,-7.2671,-7.2755,-7.3005,-7.3005,-7.3088,-7.3334,-7.3577,-7.3852,-7.401,-7.401,-7.401,-7.401,-7.4441,-7.4784,-7.5118,-7.5549,-7.6498,-7.771,-7.771,-7.8275,-7.9116,-7.9116,-7.9116,-7.9116,1.5183,1.309,1.1152,0.989,0.4307,-0.1614,-0.6633,-0.9697,-1.1498,-1.1465,-1.146,-1.1988,-1.3394,-1.4808,-1.6217,-1.7622,-1.9039,-1.9921,-1.9921,-2.1649,-2.2686,-2.2686,-2.5738,-2.7604,-2.7941,-3.0303,-3.1647,-3.2144,-3.2983,-3.3492,-3.3492,-3.3492,-3.3492,-3.3476,-3.3804,-3.4294,-3.4783,-3.5109,-3.5139,-3.5228,-3.5072,-3.4778,-3.4591,-3.455,-3.5357,-3.6379,-3.6773,-3.7638,-3.8632,-3.9531,-4.0197,-4.1113,-4.4849,-4.8286,-5.1095,-5.1516,-5.196,-5.2352,-5.3042,-5.3589,-5.4132,-5.4241,-5.4939,-5.5604,-5.6,-5.6785,-5.8016,-6.0416,-6.1821,-6.3327,-6.5745,-6.6837,-6.7695,-6.86,-6.8896,-6.9285,-7.0082,-7.0363,-7.0608,-7.0825,-7.1131,-7.1312,-7.1312,-7.1634,-7.1898,-7.1985,-7.2331,-7.2586,-7.2671,-7.2671,-7.2671,-7.2671,-7.2671,-7.2755,-7.3005,-7.317,-7.3334,-7.3577,-7.3817,-7.3931,-7.401,-7.401,-7.401,-7.401,-7.4633,-7.5006,-7.5118,-7.5865,-7.6728,-7.771,-7.771,-7.8275,-7.9116,-7.9116,-7.9116,-7.9116,1.4135,1.1293,0.9697,1.1173,0.269,-0.4845,-0.5549,-0.8964,-1.1487,-1.146,-1.1988,-1.2869,-1.4278,-1.569,-1.7096,-1.8506,-1.9388,-1.9921,-1.9921,-2.1649,-2.2686,-2.2686,-2.5738,-2.7604,-2.8278,-3.0969,-3.2309,-3.2309,-3.3148,-3.3492,-3.3492,-3.3492,-3.3492,-3.3492,-3.3492,-3.3804,-3.4294,-3.4148,-3.4222,-3.4289,-3.3825,-3.3735,-3.3837,-3.4231,-3.5071,-3.623,-3.6934,-3.7819,-3.8798,-4.004,-4.1559,-4.3359,-4.6655,-4.9318,-5.1211,-5.1656,-5.2213,-5.2767,-5.3452,-5.3997,-5.4376,-5.4779,-5.5339,-5.5868,-5.6263,-5.7377,-5.8968,-6.1229,-6.2639,-6.4148,-6.6659,-6.7491,-6.8,-6.8896,-6.9285,-6.967,-7.027,-7.0549,-7.0733,-7.1007,-7.1222,-7.1312,-7.1367,-7.1722,-7.2072,-7.2245,-7.2501,-7.2671,-7.2671,-7.2671,-7.2671,-7.2671,-7.2755,-7.2922,-7.3088,-7.3334,-7.3496,-7.3692,-7.3931,-7.401,-7.401,-7.401,-7.4088,-7.4287,-7.4858,-7.519,-7.5407,-7.6072,-7.6829,-7.771,-7.771,-7.8275,-7.9116,-7.9116,-7.9116,-7.9116,1.2188,0.8421,0.663,0.9899,-0.1791,-1.0257,-0.6806,-0.9139,-1.1476,-1.146,-1.2692,-1.4102,-1.5513,-1.692,-1.8331,-1.9746,-1.9921,-1.9921,-1.9921,-2.1649,-2.2686,-2.2686,-2.5738,-2.811,-2.9453,-3.1963,-3.3312,-3.3492,-3.3492,-3.3492,-3.3492,-3.3492,-3.3492,-3.3492,-3.3492,-3.3492,-3.346,-3.3111,-3.3226,-3.3346,-3.236,-3.2642,-3.3736,-3.4128,-3.5123,-3.6284,-3.7457,-3.831,-3.8956,-4.049,-4.3511,-4.7118,-4.891,-5.0364,-5.1352,-5.1681,-5.2352,-5.3154,-5.3861,-5.4241,-5.4779,-5.5472,-5.5868,-5.6263,-5.6785,-5.834,-6.0116,-6.1763,-6.3297,-6.5001,-6.7046,-6.7899,-6.8401,-6.8994,-6.9703,-7.027,-7.0423,-7.0733,-7.1007,-7.1312,-7.1312,-7.1367,-7.16,-7.1898,-7.2245,-7.2671,-7.2671,-7.2671,-7.2671,-7.2671,-7.2671,-7.2755,-7.2922,-7.3088,-7.3334,-7.3577,-7.3692,-7.3772,-7.3931,-7.401,-7.401,-7.401,-7.4245,-7.4593,-7.4933,-7.5335,-7.576,-7.614,-7.6829,-7.771,-7.771,-7.8275,-7.9116,-7.9116,-7.9116,-7.9116,1.2028,0.8425,0.5015,0.2871,-0.5206,-1.1167,-1.0421,-1.0952,-1.1476,-1.146,-1.2692,-1.4102,-1.5513,-1.692,-1.8331,-1.9746,-1.9921,-1.9921,-1.9921,-2.1649,-2.2686,-2.2686,-2.5738,-2.811,-2.9453,-3.1135,-3.2489,-3.3492,-3.3492,-3.3492,-3.3492,-3.3492,-3.3492,-3.3492,-3.3492,-3.3492,-3.346,-3.3111,-3.2906,-3.2539,-3.2046,-3.2028,-3.2446,-3.343,-3.4581,-3.5746,-3.7082,-3.8706,-4.049,-4.3359,-4.6359,-4.891,-4.9795,-5.0813,-5.1796,-5.2099,-5.2767,-5.3452,-5.3861,-5.4537,-5.5072,-5.5868,-5.6263,-5.6888,-5.8186,-5.9408,-6.0961,-6.3183,-6.4782,-6.611,-6.7765,-6.8501,-6.8994,-6.9511,-6.9988,-7.027,-7.0423,-7.0733,-7.1007,-7.1312,-7.1457,-7.1512,-7.16,-7.1951,-7.2331,-7.2671,-7.2671,-7.2671,-7.2671,-7.2671,-7.2755,-7.2922,-7.3005,-7.317,-7.3577,-7.3692,-7.3772,-7.3931,-7.401,-7.401,-7.401,-7.401,-7.4245,-7.4593,-7.4933,-7.5335,-7.576,-7.614,-7.6829,-7.771,-7.771,-7.8275,-7.9116,-7.9116,-7.9116,-7.9116,1.1855,0.8429,0.4476,0.0718,-0.4843,-0.9339,-1.1146,-1.1487,-1.1465,-1.1455,-1.3394,-1.4808,-1.569,-1.763,-1.9039,-1.9921,-1.9921,-2.0095,-2.0607,-2.1995,-2.2859,-2.3376,-2.5908,-2.811,-2.9453,-3.0803,-3.2144,-3.3492,-3.3492,-3.3492,-3.3492,-3.3492,-3.3492,-3.3492,-3.3492,-3.3397,-3.3206,-3.2841,-3.2491,-3.2142,-3.1808,-3.2071,-3.2716,-3.3859,-3.4998,-3.6342,-3.7542,-3.9688,-4.2309,-4.502,-4.7558,-4.9938,-5.053,-5.1236,-5.2099,-5.2491,-5.3179,-5.3861,-5.4106,-5.4805,-5.5498,-5.6,-5.6655,-5.7505,-5.8912,-6.0237,-6.1792,-6.375,-6.5467,-6.7014,-6.8,-6.86,-6.9188,-6.9893,-7.0176,-7.0456,-7.0641,-7.0916,-7.1131,-7.1312,-7.1367,-7.1546,-7.181,-7.2245,-7.2586,-7.2671,-7.2671,-7.2671,-7.2671,-7.2671,-7.2755,-7.3005,-7.3088,-7.3334,-7.3692,-7.3772,-7.3931,-7.401,-7.401,-7.401,-7.401,-7.401,-7.4287,-7.4858,-7.4971,-7.5407,-7.6036,-7.6439,-7.7082,-7.771,-7.794,-7.8474,-7.9116,-7.9116,-7.9116,-7.9116,1.1861,0.8973,0.4836,-0.0897,-0.412,-0.6984,-1.0957,-1.1476,-1.1455,-1.1455,-1.3925,-1.569,-1.569,-1.8156,-1.9921,-1.9921,-1.9921,-2.0269,-2.1302,-2.2168,-2.3204,-2.4064,-2.6261,-2.811,-2.9453,-3.0803,-3.2144,-3.3492,-3.3492,-3.3492,-3.3492,-3.3492,-3.3492,-3.3492,-3.3492,-3.3286,-3.2936,-3.2571,-3.2221,-3.1887,-3.1601,-3.2146,-3.342,-3.4569,-3.5887,-3.7062,-3.8511,-4.1074,-4.4247,-4.6359,-4.8453,-5.0388,-5.1071,-5.1796,-5.2491,-5.2904,-5.3563,-5.4106,-5.4511,-5.518,-5.5736,-5.6132,-5.7017,-5.8115,-5.9532,-6.1081,-6.2609,-6.434,-6.6248,-6.7695,-6.8201,-6.8797,-6.9382,-7.0082,-7.0363,-7.0608,-7.0825,-7.1131,-7.1312,-7.1401,-7.1401,-7.1668,-7.2072,-7.2501,-7.2671,-7.2671,-7.2671,-7.2671,-7.2671,-7.2755,-7.2838,-7.3088,-7.3252,-7.3496,-7.3772,-7.3931,-7.401,-7.401,-7.401,-7.401,-7.401,-7.4088,-7.4517,-7.5118,-7.519,-7.569,-7.6475,-7.6829,-7.7292,-7.7883,-7.822,-7.8686,-7.9116,-7.9116,-7.9116,-7.9116,1.1504,1.1157,0.6281,-0.7545,-0.7535,-0.6981,-1.0942,-1.1471,-1.1455,-1.1455,-1.3925,-1.569,-1.569,-1.8156,-1.9921,-1.9921,-1.9921,-2.0269,-2.1302,-2.2168,-2.3204,-2.4064,-2.6261,-2.811,-2.9453,-3.0803,-3.2144,-3.3492,-3.3492,-3.3492,-3.3492,-3.3492,-3.3492,-3.3492,-3.3492,-3.3286,-3.2936,-3.2571,-3.2221,-3.1919,-3.1872,-3.2517,-3.3802,-3.4959,-3.6147,-3.7596,-3.955,-4.2749,-4.6359,-4.8453,-4.9938,-5.1071,-5.1516,-5.2213,-5.2879,-5.3316,-5.3861,-5.4511,-5.4939,-5.5472,-5.6132,-5.6524,-5.7431,-5.8774,-6.1081,-6.2173,-6.3555,-6.6385,-6.7561,-6.8301,-6.8797,-6.9285,-6.9798,-7.0176,-7.0363,-7.0608,-7.0825,-7.1131,-7.1401,-7.1512,-7.1898,-7.2245,-7.2586,-7.2671,-7.2671,-7.2671,-7.2671,-7.2671,-7.2671,-7.2838,-7.3088,-7.3252,-7.3496,-7.3772,-7.3931,-7.401,-7.401,-7.401,-7.401,-7.401,-7.401,-7.4364,-7.4709,-7.5118,-7.5478,-7.6068,-7.6893,-7.6983,-7.7533,-7.8329,-7.8383,-7.8686,-7.9116,-7.9116,-7.9116,-7.9116,0.8607,1.0068,0.6643,-0.8811,-1.0068,-0.9505,-1.1303,-1.1465,-1.181,-1.2514,-1.4455,-1.6042,-1.6745,-1.8681,-1.9921,-1.9921,-2.0434,-2.1128,-2.1995,-2.3031,-2.4224,-2.5921,-2.7604,-2.9286,-3.0636,-3.1978,-3.2983,-3.3492,-3.3492,-3.3492,-3.3492,-3.3492,-3.3492,-3.3492,-3.3492,-3.3174,-3.2634,-3.2475,-3.211,-3.1649,-3.184,-3.2895,-3.4497,-3.5202,-3.6535,-3.8463,-4.1229,-4.4117,-4.6824,-4.9054,-5.053,-5.1656,-5.196,-5.2629,-5.3316,-5.3725,-5.4267,-5.4939,-5.5206,-5.5868,-5.6524,-5.7174,-5.8396,-5.9957,-6.2056,-6.3555,-6.5142,-6.7046,-6.7797,-6.8401,-6.8896,-6.9607,-7.0082,-7.0363,-7.0549,-7.0825,-7.1131,-7.1222,-7.1367,-7.16,-7.2038,-7.2331,-7.2501,-7.2586,-7.2671,-7.2671,-7.2671,-7.2671,-7.2671,-7.2922,-7.3088,-7.3334,-7.3577,-7.3772,-7.401,-7.401,-7.401,-7.401,-7.401,-7.401,-7.401,-7.4399,-7.4784,-7.5118,-7.5549,-7.6203,-7.7019,-7.7292,-7.7826,-7.8437,-7.8686,-7.8929,-7.9116,-7.9116,-7.9116,-7.9116]},{"header":{"parameterUnit":"m.s-1","parameterCategory":1,"la1":30.6,"la2":28.766,"lo1":-90.7593,"lo2":-88.6598,"dx":0.0162,"dy":0.0183,"nx":116,"ny":114,"refTime":"2023-02-12T06:00:00:Z","depth":0,"parameterNumber":3,"parameterNumberName":"V-component_of_WINDS"},"data":[0.0,0.0,0.0,0.0,0.0,0.0,0.0,0.0,0.0,0.0,0.0,0.0,0.0,0.0,0.0,0.0,0.0,0.0,0.0,0.0,0.0,0.0,0.0,0.0,0.0,0.0,0.0,0.0,0.0,0.0,0.0,0.0,0.0,0.0,0.0,0.0,0.0,0.0,0.0,0.0,0.0,0.0,0.0,0.0,0.0,0.0,0.0,0.0,0.0,0.0,0.0,0.0,0.0,0.0,0.0,0.0,0.0,0.0,0.0,0.0,0.0,0.0,0.0,0.0,0.0,0.0,0.0,0.0,0.0,0.0,0.0,0.0,0.0,0.0,0.0,0.0,0.0,0.0,0.0,0.0,0.0,0.0,0.0,0.0,0.0,0.0,0.0,0.0,0.0,0.0,0.0,0.0,0.0,0.0,0.0,0.0,0.0,0.0,0.0,0.0,0.0,0.0,0.0,0.0,0.0,0.0,0.0,0.0,0.0,0.0,0.0,0.0,0.0,0.0,0.0,0.0,0.0,0.0,0.0,0.0,0.0,0.0,0.0,0.0,0.0,0.0,0.0,0.0,0.0,0.0,0.0,0.0,0.0,0.0,0.0,0.0,0.0,0.0,0.0,0.0,0.0,0.0,0.0,0.0,0.0,0.0,0.0,0.0,0.0,0.0,0.0,0.0,0.0,0.0,0.0,0.0,0.0,0.0,0.0,0.0,0.0,0.0,0.0,0.0,0.0,0.0,0.0,0.0,0.0,0.0,0.0,0.0,0.0,0.0,0.0,0.0,0.0,0.0,0.0,0.0,0.0,0.0,0.0,0.0,0.0,0.0,0.0,0.0,0.0,0.0,0.0,0.0,0.0,0.0,0.0,0.0,0.0,0.0,0.0,0.0,0.0,0.0,0.0,0.0,0.0,0.0,0.0,0.0,0.0,0.0,0.0,0.0,0.0,0.0,0.0,0.0,0.0,0.0,0.0,0.0,0.0,0.0,0.0,0.0,0.0,0.0,0.0,0.0,0.0,0.0,0.0,0.0,0.0,0.0,0.0,0.0,0.0,0.0,0.0,0.0,0.0,0.0,0.0,0.0,0.0,0.0,0.0,0.0,0.0,0.0,0.0,0.0,0.0,0.0,0.0,0.0,0.0,0.0,0.0,0.0,0.0,0.0,0.0,0.0,0.0,0.0,0.0,0.0,0.0,0.0,0.0,0.0,0.0,0.0,0.0,0.0,0.0,0.0,0.0,0.0,0.0,0.0,0.0,0.0,0.0,0.0,0.0,0.0,0.0,0.0,0.0,0.0,0.0,0.0,0.0,0.0,0.0,0.0,0.0,0.0,0.0,0.0,0.0,0.0,0.0,0.0,0.0,0.0,0.0,0.0,0.0,0.0,0.0,0.0,0.0,0.0,0.0,0.0,0.0,0.0,0.0,0.0,0.0,0.0,0.0,0.0,0.0,0.0,0.0,0.0,0.0,0.0,0.0,0.0,0.0,0.0,0.0,0.0,0.0,0.0,0.0,0.0,0.0,0.0,0.0,0.0,0.0,0.0,0.0,0.0,0.0,0.0,0.0,0.0,0.0,0.0,0.0,0.0,0.0,0.0,0.0,0.0,0.0,0.0,0.0,0.0,0.0,0.0,0.0,0.0,0.0,0.0,0.0,0.0,0.0,0.0,0.0,0.0,0.0,0.0,0.0,0.0,0.0,0.0,0.0,0.0,0.0,0.0,0.0,0.0,0.0,0.0,0.0,0.0,0.0,0.0,0.0,0.0,0.0,0.0,0.0,0.0,0.0,0.0,0.0,0.0,0.0,0.0,0.0,0.0,0.0,0.0,0.0,0.0,0.0,0.0,0.0,0.0,0.0,0.0,0.0,0.0,0.0,0.0,0.0,0.0,0.0,0.0,0.0,0.0,0.0,0.0,0.0,0.0,0.0,0.0,0.0,0.0,0.0,0.0,0.0,0.0,0.0,0.0,0.0,0.0,0.0,0.0,0.0,0.0,0.0,0.0,0.0,0.0,0.0,0.0,0.0,0.0,0.0,0.0,0.0,0.0,0.0,0.0,0.0,0.0,0.0,0.0,0.0,0.0,0.0,0.0,0.0,0.0,0.0,0.0,0.0,0.0,0.0,0.0,0.0,0.0,0.0,0.0,0.0,0.0,0.0,0.0,0.0,0.0,0.0,0.0,0.0,0.0,0.0,0.0,0.0,0.0,0.0,0.0,0.0,0.0,0.0,0.0,0.0,0.0,0.0,0.0,0.0,0.0,0.0,0.0,0.0,0.0,0.0,0.0,0.0,0.0,0.0,0.0,0.0,0.0,0.0,0.0,0.0,0.0,0.0,0.0,0.0,0.0,0.0,0.0,0.0,0.0,0.0,0.0,0.0,0.0,0.0,0.0,0.0,0.0,0.0,0.0,0.0,0.0,0.0,0.0,0.0,0.0,0.0,0.0,0.0,0.0,0.0,0.0,0.0,0.0,0.0,0.0,0.0,0.0,0.0,0.0,0.0,0.0,0.0,0.0,0.0,0.0,0.0,0.0,0.0,0.0,0.0,0.0,0.0,0.0,0.0,0.0,0.0,0.0,0.0,0.0,0.0,0.0,0.0,0.0,0.0,0.0,0.0,0.0,0.0,0.0,0.0,0.0,0.0,0.0,0.0,0.0,0.0,0.0,0.0,0.0,0.0,0.0,0.0,0.0,0.0,0.0,0.0,0.0,0.0,0.0,0.0,0.0,0.0,0.0,0.0,0.0,0.0,0.0,0.0,0.0,0.0,0.0,0.0,0.0,0.0,0.0,0.0,0.0,0.0,0.0,0.0,0.0,0.0,0.0,0.0,0.0,0.0,0.0,0.0,0.0,0.0,0.0,0.0,0.0,0.0,0.0,0.0,0.0,0.0,0.0,0.0,0.0,0.0,0.0,0.0,0.0,0.0,0.0,0.0,0.0,0.0,0.0,0.0,0.0,0.0,0.0,0.0,0.0,0.0,0.0,0.0,0.0,0.0,0.0,0.0,0.0,0.0,0.0,0.0,0.0,0.0,0.0,0.0,0.0,0.0,0.0,0.0,0.0,0.0,0.0,0.0,0.0,0.0,0.0,0.0,0.0,0.0,0.0,0.0,0.0,0.0,0.0,0.0,0.0,0.0,0.0,0.0,0.0,0.0,0.0,0.0,0.0,0.0,0.0,0.0,0.0,0.0,0.0,0.0,0.0,0.0,0.0,0.0,0.0,0.0,0.0,0.0,0.0,0.0,0.0,0.0,0.0,0.0,0.0,0.0,0.0,0.0,0.0,0.0,0.0,0.0,0.0,0.0,0.0,0.0,0.0,0.0,0.0,0.0,0.0,0.0,0.0,0.0,0.0,0.0,0.0,0.0,0.0,0.0,0.0,0.0,0.0,0.0,0.0,0.0,0.0,0.0,0.0,0.0,0.0,0.0,0.0,0.0,0.0,0.0,0.0,0.0,0.0,0.0,0.0,0.0,0.0,0.0,0.0,0.0,0.0,0.0,0.0,0.0,0.0,0.0,0.0,0.0,0.0,0.0,0.0,0.0,0.0,0.0,0.0,0.0,0.0,0.0,0.0,0.0,0.0,0.0,0.0,0.0,0.0,0.0,0.0,0.0,0.0,0.0,0.0,0.0,0.0,0.0,0.0,0.0,0.0,0.0,0.0,0.0,0.0,0.0,0.0,0.0,0.0,0.0,0.0,0.0,0.0,0.0,0.0,0.0,0.0,0.0,0.0,0.0,0.0,0.0,0.0,0.0,0.0,0.0,0.0,0.0,0.0,0.0,0.0,0.0,0.0,0.0,0.0,0.0,0.0,0.0,0.0,0.0,0.0,0.0,0.0,0.0,0.0,0.0,0.0,0.0,0.0,0.0,0.0,0.0,0.0,0.0,0.0,0.0,0.0,0.0,0.0,0.0,0.0,0.0,0.0,0.0,0.0,0.0,0.0,0.0,0.0,0.0,0.0,0.0,0.0,0.0,0.0,0.0,0.0,0.0,0.0,0.0,0.0,0.0,0.0,0.0,0.0,0.0,0.0,0.0,0.0,0.0,0.0,0.0,0.0,0.0,0.0,0.0,0.0,0.0,0.0,0.0,0.0,0.0,0.0,0.0,0.0,0.0,0.0,0.0,0.0,0.0,0.0,0.0,0.0,0.0,0.0,0.0,0.0,0.0,0.0,0.0,0.0,0.0,0.0,0.0,0.0,0.0,0.0,0.0,0.0,0.0,0.0,0.0,0.0,0.0,0.0,0.0,0.0,0.0,0.0,0.0,0.0,0.0,0.0,0.0,0.0,0.0,0.0,0.0,0.0,0.0,0.0,0.0,0.0,0.0,0.0,0.0,0.0,0.0,0.0,0.0,0.0,0.0,0.0,0.0,0.0,0.0,0.0,0.0,0.0,0.0,0.0,0.0,0.0,0.0,0.0,0.0,0.0,0.0,0.0,0.0,0.0,0.0,0.0,0.0,0.0,0.0,0.0,0.0,0.0,0.0,0.0,0.0,0.0,0.0,0.0,0.0,0.0,0.0,0.0,0.0,0.0,0.0,0.0,0.0,0.0,0.0,0.0,0.0,0.0,0.0,0.0,0.0,0.0,0.0,0.0,0.0,0.0,0.0,0.0,0.0,0.0,0.0,0.0,0.0,0.0,0.0,0.0,0.0,0.0,0.0,0.0,0.0,0.0,0.0,0.0,0.0,0.0,0.0,0.0,0.0,0.0,0.0,0.0,0.0,0.0,0.0,0.0,0.0,0.0,0.0,0.0,0.0,0.0,0.0,0.0,0.0,0.0,0.0,0.0,0.0,0.0,0.0,0.0,0.0,0.0,0.0,0.0,0.0,0.0,0.0,0.0,0.0,0.0,0.0,0.0,0.0,0.0,0.0,0.0,0.0,0.0,0.0,0.0,0.0,0.0,0.0,0.0,0.0,0.0,0.0,0.0,0.0,0.0,0.0,0.0,0.0,0.0,0.0,0.0,0.0,0.0,0.0,0.0,0.0,0.0,0.0,0.0,0.0,0.0,0.0,0.0,0.0,0.0,0.0,0.0,0.0,0.0,0.0,0.0,0.0,0.0,0.0,0.0,0.0,0.0,0.0,0.0,0.0,0.0,0.0,0.0,0.0,0.0,0.0,0.0,0.0,0.0,0.0,0.0,0.0,0.0,0.0,0.0,0.0,0.0,0.0,0.0,0.0,0.0,0.0,0.0,0.0,0.0,0.0,0.0,0.0,0.0,0.0,0.0,0.0,0.0,0.0,0.0,0.0,0.0,0.0,0.0,0.0,0.0,0.0,0.0,0.0,0.0,0.0,0.0,0.0,0.0,0.0,0.0,0.0,0.0,0.0,0.0,0.0,0.0,0.0,0.0,0.0,0.0,0.0,0.0,0.0,0.0,0.0,0.0,0.0,0.0,0.0,0.0,0.0,0.0,0.0,0.0,0.0,0.0,0.0,0.0,0.0,0.0,0.0,0.0,0.0,0.0,0.0,0.0,0.0,0.0,0.0,0.0,0.0,0.0,0.0,0.0,0.0,0.0,0.0,0.0,0.0,0.0,0.0,0.0,0.0,0.0,0.0,0.0,0.0,0.0,0.0,0.0,0.0,0.0,0.0,0.0,0.0,0.0,0.0,0.0,0.0,0.0,0.0,0.0,0.0,0.0,0.0,0.0,0.0,0.0,0.0,0.0,0.0,0.0,0.0,0.0,0.0,0.0,0.0,0.0,0.0,0.0,0.0,0.0,0.0,0.0,0.0,0.0,0.0,0.0,0.0,0.0,0.0,0.0,0.0,0.0,0.0,0.0,0.0,0.0,0.0,0.0,0.0,0.0,0.0,0.0,0.0,0.0,0.0,0.0,0.0,0.0,0.0,0.0,0.0,0.0,0.0,0.0,0.0,0.0,0.0,0.0,0.0,0.0,0.0,0.0,0.0,0.0,0.0,0.0,0.0,0.0,0.0,0.0,0.0,0.0,0.0,0.0,0.0,0.0,0.0,0.0,0.0,0.0,0.0,0.0,0.0,0.0,0.0,0.0,0.0,0.0,0.0,0.0,0.0,0.0,0.0,0.0,0.0,0.0,0.0,0.0,0.0,0.0,0.0,0.0,0.0,0.0,-5.2929,-5.2929,0.0,0.0,0.0,0.0,0.0,0.0,0.0,0.0,0.0,0.0,0.0,0.0,0.0,0.0,0.0,0.0,0.0,0.0,0.0,0.0,0.0,0.0,0.0,0.0,0.0,0.0,0.0,0.0,0.0,0.0,0.0,0.0,0.0,0.0,0.0,0.0,0.0,0.0,0.0,0.0,0.0,0.0,0.0,0.0,0.0,0.0,0.0,0.0,0.0,0.0,0.0,0.0,0.0,0.0,0.0,0.0,0.0,0.0,0.0,0.0,0.0,0.0,0.0,0.0,0.0,0.0,0.0,0.0,0.0,0.0,0.0,0.0,0.0,0.0,0.0,0.0,0.0,0.0,0.0,0.0,0.0,0.0,0.0,0.0,0.0,0.0,0.0,0.0,0.0,0.0,0.0,0.0,0.0,0.0,0.0,0.0,0.0,0.0,0.0,0.0,0.0,0.0,0.0,0.0,0.0,0.0,0.0,0.0,0.0,0.0,0.0,0.0,0.0,0.0,-5.2929,-5.2792,0.0,0.0,0.0,0.0,0.0,0.0,0.0,0.0,0.0,0.0,0.0,0.0,0.0,0.0,0.0,0.0,0.0,0.0,0.0,0.0,0.0,0.0,0.0,0.0,0.0,0.0,0.0,0.0,0.0,0.0,0.0,0.0,0.0,0.0,0.0,0.0,0.0,0.0,0.0,0.0,0.0,0.0,0.0,0.0,0.0,0.0,0.0,0.0,0.0,0.0,0.0,0.0,0.0,0.0,0.0,0.0,0.0,0.0,0.0,0.0,0.0,0.0,0.0,0.0,0.0,0.0,0.0,0.0,0.0,0.0,0.0,0.0,0.0,0.0,0.0,0.0,0.0,0.0,0.0,0.0,0.0,0.0,0.0,0.0,0.0,0.0,0.0,0.0,0.0,0.0,0.0,0.0,0.0,0.0,0.0,0.0,0.0,0.0,0.0,0.0,0.0,0.0,0.0,0.0,0.0,0.0,0.0,0.0,-5.4106,-5.3341,-5.3341,-5.3067,-5.2929,-5.2929,-5.2792,-5.2654,-5.2377,-5.2654,0.0,0.0,0.0,0.0,0.0,0.0,0.0,0.0,0.0,0.0,0.0,0.0,0.0,0.0,0.0,0.0,0.0,0.0,0.0,0.0,0.0,0.0,0.0,0.0,0.0,0.0,0.0,0.0,0.0,0.0,0.0,0.0,0.0,0.0,0.0,0.0,0.0,0.0,0.0,0.0,0.0,0.0,0.0,0.0,0.0,0.0,0.0,0.0,0.0,0.0,0.0,0.0,0.0,0.0,0.0,0.0,0.0,0.0,0.0,0.0,0.0,0.0,0.0,0.0,0.0,0.0,0.0,0.0,0.0,0.0,0.0,0.0,0.0,0.0,0.0,0.0,0.0,0.0,0.0,0.0,0.0,0.0,0.0,0.0,0.0,0.0,-6.4639,-6.5464,0.0,0.0,0.0,0.0,0.0,0.0,0.0,0.0,0.0,0.0,0.0,0.0,0.0,-5.7679,-5.6233,-5.4593,-5.3861,-5.3861,-5.3204,-5.2929,-5.2929,-5.2929,-5.2929,-5.2929,-5.2654,0.0,-5.2377,-5.2099,0.0,0.0,0.0,0.0,0.0,0.0,0.0,0.0,0.0,0.0,0.0,0.0,0.0,0.0,0.0,0.0,0.0,0.0,0.0,0.0,0.0,0.0,0.0,0.0,0.0,0.0,0.0,0.0,0.0,0.0,0.0,0.0,0.0,0.0,0.0,0.0,0.0,0.0,0.0,0.0,0.0,0.0,0.0,0.0,0.0,0.0,0.0,0.0,0.0,0.0,0.0,0.0,0.0,0.0,0.0,0.0,0.0,0.0,0.0,0.0,0.0,0.0,0.0,0.0,0.0,0.0,0.0,0.0,0.0,0.0,0.0,0.0,0.0,0.0,0.0,0.0,0.0,0.0,0.0,0.0,0.0,0.0,0.0,0.0,0.0,-6.6288,-6.5521,-6.4512,-6.3819,-6.3538,0.0,0.0,0.0,0.0,0.0,0.0,0.0,0.0,0.0,-5.8634,-5.8032,-5.7011,-5.5499,-5.3971,-5.3204,-5.3204,-5.2929,-5.2929,-5.2929,-5.2929,-5.2929,-5.2929,-5.2377,-5.2099,-5.2099,-5.182,-5.1681,-5.1516,0.0,0.0,0.0,0.0,-4.9078,-4.7918,0.0,0.0,0.0,0.0,0.0,0.0,0.0,0.0,0.0,0.0,0.0,0.0,0.0,0.0,0.0,-6.6319,0.0,0.0,0.0,0.0,0.0,0.0,0.0,0.0,0.0,0.0,0.0,0.0,0.0,0.0,0.0,0.0,0.0,0.0,0.0,0.0,0.0,0.0,0.0,0.0,0.0,0.0,0.0,0.0,0.0,0.0,0.0,0.0,0.0,0.0,0.0,0.0,0.0,0.0,0.0,0.0,0.0,0.0,0.0,0.0,0.0,0.0,0.0,0.0,0.0,0.0,0.0,0.0,0.0,0.0,0.0,0.0,0.0,0.0,0.0,0.0,0.0,-6.6647,-6.562,-6.3622,-6.3279,-6.3279,0.0,0.0,0.0,0.0,0.0,0.0,-6.0416,-6.1077,-6.0202,-5.7496,-5.7369,-5.6623,-5.4994,-5.3971,-5.3452,-5.3452,-5.3067,-5.2929,-5.2929,-5.2929,-5.2929,-5.2929,-5.2099,-5.182,-5.182,-5.1541,-5.1376,-5.1095,-5.093,-5.0789,-5.0506,-4.9652,-4.8499,-4.7355,0.0,0.0,0.0,0.0,0.0,0.0,0.0,0.0,0.0,0.0,0.0,0.0,0.0,0.0,-6.6988,-6.6269,-6.6197,-6.6258,0.0,0.0,0.0,0.0,0.0,0.0,0.0,0.0,0.0,0.0,0.0,0.0,0.0,0.0,0.0,0.0,0.0,0.0,0.0,0.0,-7.1528,-7.3354,0.0,0.0,0.0,0.0,0.0,0.0,0.0,0.0,0.0,0.0,0.0,0.0,0.0,0.0,0.0,0.0,0.0,0.0,0.0,0.0,0.0,0.0,0.0,0.0,0.0,0.0,0.0,0.0,0.0,0.0,0.0,0.0,0.0,0.0,0.0,0.0,0.0,0.0,0.0,-6.3164,-6.2585,0.0,0.0,0.0,0.0,-6.2116,-6.2116,-6.1969,-6.1584,-6.0323,-5.894,-5.7038,-5.7038,-5.639,-5.502,-5.4887,-5.4887,-5.4887,-5.3589,-5.2929,-5.2929,-5.2929,-5.2929,-5.2929,-5.2099,-5.182,-5.182,-5.0978,-5.0696,-5.0696,-5.0246,-5.0104,-5.0104,-4.9268,-4.8086,-4.6596,0.0,0.0,0.0,0.0,0.0,0.0,0.0,0.0,0.0,0.0,0.0,0.0,0.0,-6.745,-6.7978,-6.8033,-6.7522,-6.723,-6.7341,0.0,0.0,0.0,0.0,0.0,0.0,0.0,0.0,0.0,0.0,0.0,0.0,0.0,0.0,0.0,0.0,0.0,0.0,-7.1743,-7.2454,-7.3364,-7.3117,-7.2934,0.0,0.0,0.0,0.0,0.0,0.0,0.0,0.0,0.0,0.0,0.0,0.0,0.0,0.0,0.0,0.0,0.0,0.0,0.0,0.0,0.0,0.0,0.0,0.0,0.0,0.0,0.0,0.0,0.0,0.0,0.0,0.0,0.0,0.0,0.0,0.0,0.0,-6.2817,-6.2351,0.0,-6.2615,-6.2116,-6.1732,-6.1732,-6.1642,-6.1015,-6.0108,-6.0381,-5.9891,-5.834,-5.834,-5.7706,-5.6287,-5.5393,-5.4485,-5.3563,-5.3179,-5.2929,-5.2929,-5.2929,-5.2929,-5.2929,-5.2099,-5.182,-5.1681,-5.0978,-5.0696,-5.0696,-5.0246,-4.9961,-4.9652,-4.8667,-4.7332,-4.6151,0.0,0.0,0.0,0.0,0.0,0.0,0.0,0.0,0.0,0.0,0.0,-6.8385,-6.8222,-6.8859,-6.9279,-6.9448,-6.8622,-6.8198,-6.8357,0.0,0.0,0.0,0.0,0.0,0.0,0.0,0.0,0.0,0.0,0.0,0.0,0.0,0.0,0.0,0.0,0.0,-7.1377,-7.2281,-7.2792,-7.3034,-7.3124,-7.2963,-7.2723,0.0,0.0,0.0,0.0,0.0,0.0,0.0,0.0,0.0,0.0,0.0,0.0,0.0,0.0,0.0,0.0,0.0,0.0,0.0,0.0,0.0,0.0,0.0,0.0,0.0,0.0,0.0,0.0,0.0,0.0,0.0,0.0,0.0,0.0,-6.4751,-6.3728,-6.2817,-6.2351,-6.2234,-6.2381,-6.1969,-6.1613,-6.1494,-6.1284,-6.0802,-5.9891,-6.0287,-6.0014,-5.9121,-5.9121,-5.8592,-5.7679,-5.6417,-5.526,-5.4216,-5.3316,-5.2929,-5.2929,-5.2929,-5.2929,-5.2929,-5.2099,-5.182,-5.1681,-5.0978,-5.0696,-5.0696,-5.0104,-4.9795,-4.9365,-4.8064,-4.6891,-4.5853,0.0,0.0,0.0,0.0,0.0,0.0,0.0,0.0,0.0,0.0,-6.9532,-6.976,-6.949,-7.0522,-7.0991,-7.022,-6.9412,-6.9044,-6.9273,-6.855,0.0,0.0,0.0,0.0,0.0,0.0,0.0,0.0,0.0,0.0,0.0,0.0,0.0,0.0,-7.0624,-7.1321,-7.1394,-7.2165,-7.2496,-7.2496,-7.2496,-7.2553,-7.2723,0.0,0.0,0.0,0.0,0.0,0.0,0.0,0.0,0.0,0.0,0.0,0.0,0.0,0.0,0.0,0.0,0.0,0.0,0.0,0.0,0.0,0.0,0.0,0.0,0.0,0.0,0.0,0.0,0.0,0.0,0.0,0.0,0.0,-6.4611,-6.4117,-6.3645,-6.3194,-6.2468,-6.2116,-6.2116,-6.1732,-6.1494,-6.1193,-6.1193,-6.1193,-6.1193,-5.9891,-5.9121,-5.9121,-5.9121,-5.9121,-5.9121,-5.7679,-5.7038,-5.6909,-5.4216,-5.2929,-5.2929,-5.2929,-5.2929,-5.2929,-5.2099,-5.182,-5.1681,-5.0978,-5.0696,-5.0554,-4.9795,-4.9509,-4.9365,-4.7772,-4.6596,-4.5555,0.0,0.0,0.0,0.0,0.0,0.0,0.0,0.0,0.0,0.0,-6.9895,-7.049,-7.029,-7.0887,-7.1211,-7.0991,-7.022,-6.9577,-6.9205,0.0,0.0,0.0,0.0,0.0,0.0,0.0,0.0,0.0,0.0,0.0,0.0,0.0,0.0,-7.066,-7.1101,-7.1651,-7.2202,-7.2422,-7.2496,-7.2496,-7.2496,-7.2496,-7.2553,0.0,0.0,0.0,0.0,0.0,0.0,0.0,0.0,0.0,0.0,0.0,0.0,0.0,0.0,0.0,0.0,0.0,0.0,0.0,0.0,0.0,0.0,0.0,0.0,0.0,0.0,0.0,0.0,0.0,0.0,0.0,-6.6511,-6.5482,-6.4562,-6.3273,-6.2555,-6.2731,-6.2116,-6.185,-6.2116,-6.1642,-6.1313,-6.1193,-6.1193,-6.1193,-6.1193,-6.0802,-6.0681,-6.0681,-5.9645,-5.9121,-5.9121,-5.7679,-5.652,-5.5525,-5.4753,-5.3835,-5.2929,-5.2929,-5.2929,-5.2929,-5.2099,-5.182,-5.1681,-5.0978,-5.0554,-5.0246,-4.9652,-4.9509,-4.9221,-4.7186,-4.5405,-4.4112,0.0,0.0,0.0,0.0,0.0,0.0,0.0,0.0,0.0,0.0,-7.0422,-7.0987,-7.1368,-7.1626,-7.1798,-7.1798,-7.0826,-7.0054,-6.9684,0.0,0.0,0.0,0.0,0.0,0.0,0.0,0.0,0.0,0.0,0.0,0.0,-6.9743,-7.0403,-7.1321,-7.1651,-7.2055,-7.2496,-7.2496,-7.2496,-7.2496,-7.2496,-7.2496,-7.2496,-7.261,-7.2667,-7.2779,-7.3401,-7.3691,-7.3737,-7.3307,0.0,0.0,0.0,0.0,0.0,0.0,0.0,0.0,0.0,0.0,0.0,0.0,0.0,0.0,0.0,0.0,0.0,0.0,0.0,0.0,0.0,0.0,0.0,0.0,-6.5728,-6.4703,-6.3872,-6.2788,-6.2234,-6.2731,-6.2234,-6.185,-6.2116,-6.1642,-6.1284,-6.1193,-6.1193,-6.1193,-6.1193,-6.1193,-6.1193,-6.1193,-6.0409,-6.0014,-6.0014,-5.7961,-5.665,-5.5762,-5.4619,-5.37,-5.2929,-5.2929,-5.2929,-5.2929,-5.2099,-5.182,-5.1681,-5.0978,-5.0412,-5.0104,0.0,0.0,0.0,0.0,-4.523,-4.3906,0.0,0.0,0.0,0.0,0.0,0.0,0.0,0.0,0.0,0.0,0.0,-7.1359,-7.238,-7.2496,-7.2496,-7.2496,-7.1287,-7.0568,0.0,0.0,0.0,0.0,0.0,0.0,0.0,0.0,0.0,0.0,0.0,0.0,-7.0331,-7.0954,-7.1358,-7.1468,-7.2202,-7.2496,-7.2496,-7.2496,-7.2496,-7.2496,-7.2496,-7.2496,-7.2496,-7.2496,-7.2553,-7.2742,-7.335,-7.3419,-7.3237,-7.3726,0.0,0.0,0.0,0.0,0.0,0.0,0.0,0.0,0.0,0.0,0.0,0.0,0.0,0.0,0.0,0.0,0.0,0.0,0.0,0.0,0.0,0.0,0.0,0.0,-6.4844,-6.3279,-6.3079,-6.2585,-6.2351,-6.3079,-6.2585,-6.2116,-6.2116,-6.185,-6.1494,-6.1193,-6.1193,-6.1193,-6.1193,-6.1193,0.0,0.0,0.0,-6.0952,-6.0952,-5.8467,-5.7038,-5.678,-5.4459,-5.3179,-5.2929,-5.2929,-5.2929,-5.2929,-5.2099,-5.182,-5.1681,-5.0978,-5.0412,-4.9961,-4.9723,-4.9171,-4.8538,-4.7237,-4.5693,-4.4193,0.0,0.0,0.0,0.0,0.0,0.0,0.0,0.0,0.0,-7.0842,-7.1386,-7.1915,-7.2438,-7.2496,-7.2496,-7.2496,-7.2316,-7.2042,0.0,0.0,0.0,0.0,0.0,0.0,0.0,0.0,0.0,0.0,0.0,-7.0842,-7.1658,-7.1398,-7.1651,-7.2275,-7.2422,-7.2496,-7.2496,-7.2496,-7.2496,-7.2496,-7.2496,-7.2496,-7.2496,-7.2496,-7.2496,-7.263,-7.3579,-7.385,-7.386,-7.4103,-7.4367,-7.4474,-7.3992,-7.4053,0.0,0.0,0.0,0.0,0.0,0.0,0.0,0.0,0.0,0.0,0.0,0.0,0.0,0.0,0.0,0.0,0.0,0.0,0.0,-6.699,-6.5436,-6.4097,-6.3164,-6.2731,-6.2615,-6.3079,-6.2731,-6.2381,-6.2116,-6.185,-6.1494,-6.1193,-6.1193,-6.1193,-6.1193,-6.1193,-6.1193,-6.1193,-6.0165,-5.9493,-5.9493,-5.8996,-5.7578,-5.5393,-5.5894,0.0,-5.2929,-5.2929,-5.2929,-5.2929,-5.2099,-5.182,-5.1681,-5.0978,-5.0246,-4.9556,-4.9689,-4.868,-4.7087,-4.7269,-4.5969,-4.4234,0.0,0.0,0.0,0.0,0.0,0.0,0.0,0.0,0.0,0.0,-7.1359,-7.1891,-7.2667,-7.276,-7.276,-7.276,-7.2411,0.0,0.0,0.0,0.0,0.0,0.0,0.0,0.0,0.0,0.0,-7.1808,-7.1516,-7.1658,-7.228,-7.1985,-7.2129,-7.2496,-7.2496,-7.2496,-7.2496,-7.2496,-7.2496,-7.2496,-7.2496,-7.2496,-7.2496,-7.2496,-7.2496,-7.263,-7.3628,-7.4009,-7.4117,-7.4674,-7.5187,-7.5461,-7.5196,-7.5353,-7.572,0.0,0.0,0.0,0.0,0.0,0.0,0.0,0.0,0.0,0.0,0.0,0.0,0.0,0.0,-7.0996,-7.0423,0.0,-6.7433,-6.671,-6.5032,-6.3706,-6.3194,-6.2963,-6.2963,-6.3079,-6.2468,-6.2116,-6.2116,-6.1642,-6.1284,-6.1193,-6.1193,-6.1193,-6.1193,-6.1193,-6.1193,-6.1193,-6.0531,-6.0165,-6.0165,-5.8718,-5.7295,-5.6025,-5.5234,-5.4216,-5.2929,-5.2929,-5.2792,-5.2654,-5.2099,-5.1681,-5.1376,-5.053,-4.9818,-4.9171,-4.9204,-4.8283,-4.7007,-4.7156,-4.6069,-4.4744,0.0,0.0,0.0,0.0,0.0,0.0,0.0,0.0,0.0,0.0,-7.1458,-7.1951,-7.2927,-7.2982,-7.2982,0.0,0.0,0.0,0.0,0.0,0.0,0.0,0.0,0.0,0.0,0.0,-7.232,-7.2522,-7.2423,-7.2489,-7.263,-7.2553,-7.2496,-7.2496,-7.2496,-7.2496,-7.2496,-7.2496,-7.2496,-7.2496,-7.2496,-7.2496,-7.2496,-7.2496,-7.2496,-7.263,-7.3628,-7.4009,-7.4154,-7.5205,-7.5851,-7.6234,-7.6342,-7.6649,-7.6987,-7.6883,-7.6688,0.0,0.0,0.0,0.0,0.0,0.0,0.0,0.0,-7.365,-7.2762,-7.164,-7.0815,-7.033,-7.0176,-6.8271,-6.671,-6.6428,-6.4543,-6.3079,-6.3079,-6.3079,-6.2963,-6.2963,-6.2351,-6.185,-6.2116,-6.1642,-6.1313,-6.1193,-6.1193,-6.1193,-6.1193,-6.1193,-6.1193,-6.1193,-6.1193,-6.1073,-6.0802,-5.8843,-5.7551,-5.6909,-5.4727,-5.3563,-5.3316,-5.3067,-5.2654,-5.2377,-5.1935,-5.1376,-5.093,-4.9938,-4.9245,-4.8951,-4.8584,-4.7903,-4.7377,-4.7183,-4.6176,-4.5046,0.0,0.0,0.0,0.0,0.0,0.0,0.0,0.0,0.0,0.0,0.0,0.0,0.0,0.0,0.0,0.0,0.0,0.0,0.0,0.0,0.0,0.0,0.0,0.0,0.0,0.0,-7.4358,-7.443,-7.3996,-7.3602,-7.3193,-7.2686,-7.2496,-7.2496,-7.2496,-7.2496,-7.2496,-7.2496,-7.2496,-7.2496,-7.2496,-7.2496,-7.2496,-7.2496,-7.2496,-7.263,-7.3628,-7.4009,-7.4199,-7.5469,-7.6044,-7.6322,-7.6591,-7.6816,-7.698,-7.6841,-7.6582,-7.6211,-7.5763,-7.5039,-7.4434,-7.4551,-7.4121,-7.3574,0.0,-7.226,-7.1342,-7.0203,-6.9955,-6.9893,-6.9893,-6.8004,-6.6428,-6.6428,-6.4543,-6.3079,-6.3079,-6.2847,-6.2615,-6.2615,-6.2615,-6.2351,-6.2116,-6.1732,-6.1523,-6.1193,-6.1193,-6.1193,-6.1193,-6.1193,-6.1193,-6.1193,-6.1193,-6.056,-5.9369,-6.0287,-5.9493,-5.7038,-5.665,-5.5894,-5.4753,-5.3452,-5.2654,-5.2377,-5.1656,-5.0813,-5.0246,-4.9652,-4.9245,-4.8928,-4.7982,-4.7466,-4.7421,-4.7526,-4.6447,-4.5046,0.0,0.0,0.0,0.0,0.0,0.0,0.0,0.0,0.0,0.0,0.0,0.0,0.0,0.0,0.0,0.0,0.0,0.0,0.0,0.0,0.0,0.0,0.0,0.0,0.0,-7.4783,-7.498,-7.4705,-7.4199,-7.3774,-7.3298,-7.2742,-7.2496,-7.2496,-7.2496,-7.2496,-7.2496,-7.2496,-7.2496,-7.2496,-7.2496,-7.2496,-7.2496,-7.2496,-7.2686,-7.3087,-7.3784,-7.4243,0.0,-7.5656,-7.6142,-7.6399,-7.6624,-7.6848,-7.6931,-7.6692,-7.6415,-7.6018,-7.5243,-7.5057,-7.507,-7.4895,-7.4503,-7.3956,-7.3182,-7.2176,-7.1075,-7.0049,-6.9798,-6.9798,-6.9798,-6.7903,-6.6428,-6.6428,-6.4543,-6.3079,-6.2847,-6.2731,-6.2498,-6.2351,-6.2116,-6.1969,-6.185,-6.1523,-6.1284,-6.1193,-6.1193,-6.1193,-6.1193,-6.1193,-6.1193,-6.1193,-6.1193,-6.0923,-6.0287,-6.0137,-5.8996,-5.7038,-5.6156,-5.5127,-5.37,-5.3179,-5.2654,-5.196,-5.1236,-5.053,-4.9795,-4.9509,-4.9101,-4.8492,-4.768,-4.7466,-4.7267,-4.6795,-4.5861,-4.5046,0.0,0.0,0.0,0.0,0.0,0.0,0.0,0.0,0.0,0.0,0.0,0.0,0.0,0.0,0.0,0.0,0.0,0.0,0.0,0.0,0.0,0.0,0.0,0.0,-7.4199,-7.5057,-7.5245,-7.4705,-7.4199,-7.3774,-7.3298,-7.2742,-7.2496,-7.2496,-7.2496,-7.2496,-7.2496,-7.2496,-7.2496,-7.2496,-7.2496,-7.2496,-7.2496,-7.263,-7.3087,-7.3579,-7.3934,-7.446,-7.5019,-7.5821,-7.6256,-7.6454,-7.6712,-7.687,-7.6917,-7.656,-7.6161,-7.5648,-7.4779,-7.5097,-7.5476,-7.5124,-7.4691,-7.4117,-7.3252,-7.2005,-7.0872,-6.9955,-6.9798,-6.9798,-6.9798,-6.7903,-6.6428,-6.6428,-6.4543,-6.2963,-6.2615,-6.2498,-6.2351,-6.1969,-6.1732,-6.1494,-6.1494,-6.1284,-6.1193,-6.1193,-6.1193,-6.1193,-6.1193,-6.1193,-6.1193,-6.1193,-6.1193,-6.1193,-6.1193,-6.0165,-5.9121,-5.8214,-5.6807,-5.5393,-5.3945,-5.3042,-5.2377,-5.182,-5.0978,-5.0246,-4.9509,-4.9509,-4.8933,-4.8032,-4.7528,-4.7312,-4.6958,-4.5855,-4.5209,-4.4882,0.0,0.0,0.0,0.0,0.0,0.0,0.0,0.0,0.0,0.0,0.0,0.0,0.0,0.0,0.0,0.0,0.0,0.0,0.0,0.0,0.0,0.0,0.0,-7.4705,-7.4705,-7.5245,-7.5245,-7.4705,-7.4199,-7.3774,-7.3298,-7.2742,-7.2496,-7.2496,-7.2496,-7.2496,-7.2496,-7.2496,-7.2496,-7.2496,-7.2496,-7.2496,-7.2553,-7.3087,-7.3628,-7.4072,-7.4117,-7.446,-7.5055,-7.6064,-7.6381,-7.6488,-7.6951,-7.6987,-7.6802,-7.6412,-7.5851,-7.5171,-7.4599,-7.4991,-7.5476,-7.4958,-7.4112,-7.3332,-7.288,-7.1498,-7.0176,-6.9893,-6.9798,-6.9798,-6.9798,-6.7903,-6.6428,-6.6428,-6.4543,-6.2963,-6.2615,-6.2351,-6.1969,-6.1613,-6.1404,-6.1193,-6.1193,-6.1193,-6.1193,-6.1193,-6.1193,-6.1193,-6.1193,-6.1193,-6.1193,-6.1193,-6.1193,-6.1193,-6.1193,-6.1193,-6.1073,-6.1073,-5.9645,-5.8214,-5.678,-5.3376,-5.182,-5.182,-5.0978,-5.0246,-4.9509,-4.9509,-4.8644,-4.7298,-4.7377,-4.7004,-4.6181,-4.5372,-4.5046,-4.4882,0.0,0.0,0.0,0.0,0.0,0.0,0.0,0.0,0.0,0.0,0.0,0.0,0.0,0.0,0.0,0.0,0.0,0.0,0.0,0.0,0.0,0.0,0.0,-7.4705,-7.4705,-7.5245,-7.5392,-7.5245,-7.4412,-7.3916,-7.3725,-7.2871,-7.2496,-7.2496,-7.2496,-7.2496,-7.2496,-7.2496,-7.2496,-7.2496,-7.2496,-7.2496,-7.2553,-7.3156,-7.3688,-7.4168,0.0,-7.5288,-7.5803,-7.6341,-7.6558,-7.6638,-7.6874,-7.6894,-7.6663,-7.6156,-7.5642,-7.5216,-7.5217,-7.5532,-7.5859,-7.5792,-7.4577,-7.3332,-7.3252,-7.1727,-7.0363,-7.0082,-7.0176,-7.0143,-6.9893,-6.8072,-6.6606,-6.6428,-6.432,-6.2615,-6.2351,-6.1969,-6.1613,-6.1404,-6.1313,-6.1193,-6.1193,-6.1193,-6.1193,-6.1193,-6.1193,-6.1193,-6.1193,-6.1193,-6.1193,-6.1193,-6.1193,-6.1193,-6.1193,-6.1193,-6.0681,-5.9768,-5.7451,-5.5631,-5.4216,-5.2604,-5.182,-5.182,-5.0978,-5.0246,-4.9509,-4.9509,-4.8644,-4.7105,-4.7025,-4.657,-4.6139,-4.5025,-4.4804,-4.4882,0.0,0.0,0.0,0.0,0.0,0.0,0.0,0.0,0.0,0.0,0.0,0.0,0.0,0.0,0.0,0.0,0.0,0.0,0.0,0.0,0.0,0.0,-7.4904,-7.5057,-7.5056,-7.5354,-7.5427,-7.5281,-7.411,-7.3466,-7.3276,-7.2133,-7.1651,-7.1651,-7.1651,-7.1651,-7.1651,-7.1651,-7.1855,-7.2112,-7.1818,-7.2171,-7.2943,-7.3205,-7.3808,0.0,-7.5379,-7.5916,-7.6316,-7.6605,-7.671,-7.6736,-7.6857,-7.6649,-7.6341,-7.613,-7.5664,-7.5331,-7.5894,-7.599,-7.6056,-7.6257,-7.4937,-7.3492,-7.3412,-7.1987,-7.0608,-7.0363,-7.0423,-7.0423,-6.9988,-6.8271,-6.6679,-6.6428,-6.432,-6.2615,-6.2116,-6.185,-6.1613,-6.1193,-6.1193,-6.1193,-6.1193,-6.1193,-6.1193,-6.1193,-6.1193,-6.1193,-6.1193,-6.1193,-6.1193,-6.1193,-6.1193,-6.1193,-6.1193,-6.1193,-6.0802,-5.9768,-5.7065,-5.5127,-5.4055,-5.2466,-5.1681,-5.1516,-5.0837,-5.0104,-4.9509,-4.9389,-4.8354,-4.6788,-4.6699,-4.6266,-4.5493,-4.4701,-4.4501,-4.4698,0.0,0.0,0.0,0.0,0.0,0.0,0.0,0.0,0.0,0.0,0.0,0.0,0.0,0.0,0.0,0.0,0.0,0.0,0.0,0.0,0.0,-7.5692,-7.5666,-7.5633,-7.5692,-7.5566,-7.5318,-7.4903,-7.3533,-7.2613,-7.2035,-7.0789,-7.022,-7.022,-7.022,-7.022,-7.022,-7.022,-7.0772,-7.1508,-7.0735,-7.168,-7.3565,-7.3251,-7.3987,-7.5195,-7.5887,-7.6338,-7.6621,-7.6768,-7.68,-7.6809,-7.6888,-7.6415,-7.5933,-7.6382,-7.5906,-7.5507,-7.6473,-7.6433,-7.6068,-7.6294,-7.5046,-7.3721,-7.3492,-7.2073,-7.0825,-7.0608,-7.0515,-7.0423,-7.027,-6.8371,-6.6783,-6.6428,-6.4543,-6.2817,-6.2234,-6.2116,-6.188,-6.1313,-6.1193,-6.1193,-6.1193,-6.1193,-6.1193,-6.1193,-6.1193,-6.1193,-6.1193,-6.1193,-6.1193,-6.1193,-6.1193,-6.1193,-6.1193,-6.1193,-6.1193,-6.1073,-5.834,-5.678,-5.6363,-5.324,-5.1516,-5.1211,-5.0388,-4.9795,-4.9509,-4.9124,-4.7794,-4.6046,-4.6505,-4.5608,-4.4213,-4.4361,-4.4299,-4.433,0.0,0.0,0.0,0.0,0.0,0.0,0.0,0.0,0.0,0.0,0.0,0.0,0.0,0.0,0.0,0.0,0.0,0.0,0.0,0.0,0.0,0.0,0.0,0.0,0.0,0.0,0.0,-7.5057,-7.419,-7.3532,-7.3117,-7.2282,-7.1908,-7.1908,-7.1908,-7.1929,-7.2041,-7.2041,-7.2244,-7.2595,-7.2373,-7.2822,-7.3639,-7.3979,-7.4638,-7.5403,-7.6195,-7.6566,-7.6729,-7.679,-7.664,-7.6508,-7.702,-7.6794,-7.6346,-7.6686,-7.662,-7.6361,-7.6228,-7.6214,-7.6221,-7.6306,-7.5046,-7.3799,-7.3685,-7.2364,-7.1131,-7.0825,-7.0825,-7.0641,-7.027,-6.8928,-6.7433,-6.6291,-6.4512,-6.2989,-6.185,-6.1523,-6.1433,-6.1193,-6.1193,-6.1193,-6.1193,-6.1193,-6.1193,-6.1193,-6.1193,-6.1193,-6.1193,-6.1193,-6.1193,-6.1193,-6.1193,-6.1193,-6.1193,-6.1193,-6.0681,-5.9645,-5.7806,-5.6233,-5.4916,-5.2717,-5.1516,-5.1211,-5.0388,-4.9795,-4.9365,-4.8523,-4.7332,-4.6002,-4.5535,-4.4663,-4.3922,-4.3897,-4.3839,-4.3914,0.0,0.0,0.0,0.0,0.0,0.0,0.0,0.0,0.0,0.0,0.0,0.0,0.0,0.0,0.0,0.0,0.0,0.0,0.0,0.0,0.0,0.0,0.0,0.0,0.0,0.0,0.0,0.0,0.0,-7.3307,-7.2674,-7.1858,-7.1488,-7.1655,-7.1544,-7.16,-7.1728,-7.1728,-7.2226,0.0,0.0,-7.3615,-7.5208,-7.514,-7.5621,-7.6403,-7.6904,-7.7248,-7.7473,-7.7651,-7.7326,-7.6944,-7.7439,-7.7356,-7.7113,-7.7212,-7.703,-7.6774,-7.6544,-7.6437,-7.6208,-7.5829,-7.4752,-7.3721,-7.3322,-7.2228,-7.1222,-7.1131,-7.1007,-7.0825,-7.0363,-6.9123,-6.7668,-6.6185,-6.4703,-6.3189,-6.1821,-6.1494,-6.1284,-6.1193,-6.1193,-6.1193,-6.1193,-6.1193,-6.1193,-6.1193,-6.1193,-6.1193,-6.1193,-6.1193,-6.1193,-6.1193,-6.1193,-6.1193,-6.1193,-6.1193,-6.0802,-6.0014,-5.7961,-5.6363,-5.5049,-5.2854,-5.1541,-5.0954,-5.0246,-4.9652,-4.9365,-4.8064,-4.6891,-4.5853,-4.5106,-4.419,-4.3427,-4.3557,-4.3519,-4.345,0.0,0.0,0.0,0.0,0.0,0.0,0.0,0.0,0.0,0.0,0.0,0.0,0.0,0.0,0.0,0.0,0.0,0.0,0.0,0.0,0.0,0.0,0.0,0.0,0.0,0.0,0.0,-7.4502,-7.3576,-7.2735,-7.1874,-7.0956,-7.0624,-7.0803,-7.0733,-7.0733,-7.0856,-7.0967,-7.196,-7.3326,-7.2838,-7.4469,-7.7135,0.0,-7.6881,-7.7728,-7.7986,-7.8238,-7.8523,-7.8902,-7.8418,-7.7754,-7.7976,-7.7912,-7.7751,-7.7758,-7.7334,-7.6884,-7.7072,-7.67,-7.614,-7.5299,-7.4452,-7.3562,-7.2666,-7.183,-7.1312,-7.1312,-7.1007,-7.0825,-7.0515,-6.9316,-6.777,-6.6185,-6.4923,-6.3532,-6.1821,-6.1494,-6.1494,-6.1193,-6.1193,-6.1193,-6.1193,-6.1193,-6.1193,-6.1193,-6.1193,-6.1193,-6.1193,-6.1193,-6.1193,-6.1193,-6.1193,-6.1193,-6.1193,-6.1193,-6.1193,-6.1193,-5.8467,-5.6753,-5.5787,-5.324,-5.1516,-5.0696,-4.9818,-4.9509,-4.9365,-4.7772,-4.6596,-4.5853,-4.4955,-4.3995,-4.3034,-4.3476,-4.3279,-4.3047,0.0,0.0,0.0,0.0,0.0,0.0,0.0,0.0,0.0,0.0,0.0,0.0,0.0,0.0,0.0,0.0,0.0,0.0,0.0,0.0,0.0,0.0,0.0,0.0,0.0,-7.5985,-7.5523,-7.4664,-7.4351,-7.3784,-7.2923,-7.2613,-7.2484,-7.2576,-7.2539,-7.263,-7.2775,-7.3404,-7.3956,-7.4413,-7.5321,-7.6308,-7.7252,-7.7663,0.0,0.0,-7.9252,0.0,0.0,0.0,-7.9013,-7.8398,-7.8703,-7.8314,-7.7748,-7.7968,-7.7587,-7.7011,-7.6599,-7.6409,-7.614,-7.5299,-7.4452,-7.3562,-7.2666,-7.183,-7.1312,-7.1312,-7.0916,-7.0515,-7.0515,-6.9765,-6.8403,-6.6016,-6.5219,-6.4036,-6.1642,-6.1313,-6.1313,-6.1193,-6.1193,-6.1193,-6.1193,-6.1193,-6.1193,-6.1193,-6.1193,-6.1193,-6.1193,-6.1193,-6.1193,-6.1193,-6.1193,-6.1193,-6.1193,-6.1193,-6.1193,-6.1193,-5.9245,-5.7396,-5.5787,-5.4029,-5.2189,-5.0696,-4.9818,-4.9509,-4.9365,-4.7163,-4.6151,-4.5853,-4.4352,-4.3351,-4.2551,-4.3014,-4.2823,-4.2598,0.0,0.0,0.0,0.0,0.0,0.0,0.0,0.0,0.0,0.0,0.0,0.0,0.0,0.0,0.0,0.0,0.0,0.0,0.0,0.0,0.0,0.0,0.0,0.0,0.0,-7.6015,-7.5654,-7.4981,0.0,-7.4237,-7.3604,-7.3215,-7.3091,-7.3199,-7.3145,-7.3421,-7.3935,-7.3861,-7.4397,-7.5246,-7.5694,-7.6437,-7.7293,0.0,0.0,0.0,0.0,0.0,0.0,0.0,-7.999,-7.944,-7.9081,-7.8699,-7.8291,-7.7755,-7.7436,-7.7107,-7.6475,-7.5967,-7.5442,-7.4602,-7.3799,-7.2914,-7.209,-7.1634,-7.1222,-7.1131,-7.0825,-7.0423,-7.0363,-6.9798,-6.8732,-6.6887,-6.5728,-6.4451,-6.2582,-6.1613,-6.1193,-6.1193,-6.1193,-6.1193,-6.1193,-6.1193,-6.1193,-6.1193,-6.1193,-6.1193,-6.1193,-6.1193,-6.1193,-6.1193,-6.1193,-6.1193,-6.1193,-6.1193,-6.1193,-6.1193,-5.9397,-5.7679,-5.5787,-5.4138,-5.2302,-5.0388,-4.9795,-4.9365,-4.9101,-4.6891,-4.6002,-4.5853,-4.4201,-4.3157,-4.243,-4.2893,-4.2704,-4.25,0.0,0.0,0.0,0.0,0.0,0.0,0.0,0.0,0.0,0.0,0.0,0.0,0.0,0.0,0.0,0.0,0.0,0.0,0.0,0.0,0.0,0.0,0.0,0.0,0.0,0.0,0.0,-7.531,-7.4787,0.0,0.0,0.0,0.0,0.0,-7.3305,-7.3639,-7.4301,-7.3974,-7.4546,0.0,0.0,-7.6436,-7.7455,0.0,0.0,0.0,0.0,0.0,0.0,0.0,-8.0623,-8.0201,-7.9133,-7.8816,-7.8611,-7.7555,-7.7133,-7.692,-7.6409,-7.569,-7.4935,-7.4033,-7.316,-7.2279,-7.1457,-7.1312,-7.1222,-7.1007,-7.0733,-7.0423,-7.027,-6.9893,-6.9058,-6.7838,-6.6259,-6.4782,-6.3524,-6.2145,-6.1313,-6.1193,-6.1193,-6.1193,-6.1193,-6.1193,-6.1193,-6.1193,-6.1193,-6.1193,-6.1193,-6.1193,-6.1193,-6.1193,-6.1193,-6.1193,-6.1193,-6.1193,-6.1193,-6.1193,-5.9645,-5.7933,-5.5787,-5.4407,-5.2416,-5.0104,-4.9652,-4.9245,-4.8546,-4.6743,-4.5853,-4.5555,-4.4071,-4.3004,-4.241,-4.2617,-4.2566,-4.2363,0.0,0.0,0.0,0.0,0.0,0.0,0.0,0.0,0.0,0.0,0.0,0.0,0.0,0.0,0.0,0.0,0.0,0.0,0.0,0.0,0.0,0.0,0.0,0.0,0.0,0.0,0.0,-7.531,-7.4866,0.0,0.0,0.0,0.0,0.0,0.0,-7.341,-7.3573,-7.4709,0.0,0.0,0.0,0.0,0.0,0.0,0.0,0.0,0.0,-7.989,-8.027,-7.9932,-8.01,-8.0125,-7.8653,-7.8146,-7.8128,-7.7592,-7.6956,-7.6342,-7.6275,-7.569,-7.4935,-7.4033,-7.316,-7.2279,-7.1457,-7.1312,-7.1312,-7.1312,-7.0825,-7.0515,-7.0515,-7.0049,-6.9252,-6.7838,-6.671,-6.5297,-6.3524,-6.2349,-6.1494,-6.1193,-6.1193,-6.1193,-6.1193,-6.1193,-6.1193,-6.1193,-6.1193,-6.1193,-6.1193,-6.1193,-6.1193,-6.1193,-6.1193,-6.1193,-6.1193,-6.1193,-6.1193,-6.1193,-6.0438,-5.8592,-5.5918,-5.5181,-5.3053,-5.0104,-4.9652,-4.8933,-4.7794,-4.6596,-4.5555,-4.4805,-4.3615,-4.2851,-4.237,-4.1967,-4.1954,-4.1914,0.0,0.0,0.0,0.0,0.0,0.0,0.0,0.0,0.0,0.0,0.0,0.0,0.0,0.0,0.0,0.0,0.0,0.0,0.0,0.0,0.0,0.0,0.0,0.0,0.0,0.0,-7.5826,-7.5718,-7.5056,0.0,0.0,0.0,0.0,0.0,0.0,-7.4546,-7.5259,-7.5266,0.0,0.0,0.0,0.0,0.0,0.0,0.0,0.0,0.0,0.0,-7.9888,-7.9664,-7.9549,-7.9411,-7.8588,-7.7979,-7.7436,-7.692,-7.6541,-7.6208,-7.569,-7.4973,-7.4111,-7.3241,-7.2398,-7.1688,-7.1401,-7.1312,-7.1222,-7.0916,-7.0608,-7.0423,-7.0143,-6.9893,-6.9574,-6.9026,-6.7838,-6.647,-6.508,-6.378,-6.2612,-6.1494,-6.1404,-6.1404,-6.1193,-6.1193,-6.1193,-6.1193,-6.1193,-6.1193,-6.1193,-6.1193,-6.1193,-6.1193,-6.1193,-6.1193,-6.1193,-6.1193,-6.1193,-6.1193,-5.9645,-5.7906,-5.5787,-5.4381,-5.2228,-4.9652,-4.9509,-4.8789,-4.7355,-4.6448,-4.5555,-4.4654,-4.3462,-4.2697,-4.237,-4.1927,-4.1738,-4.1816,0.0,0.0,0.0,0.0,0.0,0.0,0.0,0.0,0.0,0.0,0.0,0.0,0.0,0.0,0.0,0.0,0.0,0.0,0.0,0.0,0.0,0.0,0.0,0.0,0.0,0.0,-7.5895,-7.6015,-7.513,-7.4705,0.0,0.0,-7.3372,-7.341,0.0,0.0,0.0,0.0,0.0,0.0,0.0,0.0,0.0,0.0,0.0,0.0,0.0,0.0,0.0,0.0,0.0,-7.8666,-7.8447,0.0,0.0,-7.6541,-7.6378,-7.614,-7.5299,-7.4452,-7.3562,-7.2666,-7.1917,-7.1312,-7.1312,-7.1312,-7.1222,-7.0699,-7.0515,-7.033,-6.9988,-6.9893,-6.9798,-6.9798,-6.8403,-6.6918,-6.6079,-6.4482,-6.3074,-6.185,-6.1732,-6.1613,-6.1284,-6.1193,-6.1193,-6.1193,-6.1193,-6.1193,-6.1193,-6.1193,-6.1193,-6.1193,-6.1193,-6.1193,-6.1193,-6.1193,-6.1193,-6.1073,-5.9093,-5.7268,-5.5683,-5.3708,-5.1558,-4.9509,-4.9509,-4.8499,-4.6743,-4.6299,-4.5405,-4.4352,-4.331,-4.2697,-4.237,-4.1773,-4.1504,-4.1306,0.0,0.0,0.0,0.0,0.0,0.0,0.0,0.0,0.0,0.0,0.0,0.0,0.0,0.0,0.0,0.0,0.0,0.0,0.0,0.0,0.0,0.0,0.0,0.0,0.0,0.0,-7.5826,-7.6015,-7.513,-7.4705,-7.4705,-7.38,-7.3372,-7.3461,0.0,0.0,0.0,0.0,0.0,0.0,0.0,0.0,0.0,0.0,0.0,0.0,0.0,0.0,0.0,0.0,0.0,0.0,0.0,0.0,0.0,0.0,-7.6445,-7.614,-7.5299,-7.4452,-7.3562,-7.2666,-7.1917,-7.1312,-7.1312,-7.1312,-7.1222,-7.0916,-7.0699,-7.0423,-7.027,-6.9988,-6.9798,-6.9798,-6.7903,-6.6322,-6.6079,-6.4097,-6.2498,-6.2116,-6.2116,-6.1969,-6.1613,-6.1404,-6.1193,-6.1193,-6.1193,-6.1193,-6.1193,-6.1193,-6.1193,-6.1193,-6.1193,-6.1193,-6.1193,-6.1193,-6.1073,-6.0681,-5.8968,-5.7139,-5.5287,-5.3572,-5.1558,-4.9509,-4.9509,-4.8186,-4.6002,-4.6002,-4.5106,-4.3462,-4.2677,-4.237,-4.237,-4.1483,-4.0841,-4.0567,0.0,0.0,0.0,0.0,0.0,0.0,0.0,0.0,0.0,0.0,0.0,0.0,0.0,0.0,0.0,0.0,0.0,0.0,0.0,0.0,0.0,0.0,0.0,0.0,0.0,-7.5787,-7.5826,-7.6015,-7.513,-7.4705,-7.4705,-7.38,-7.3838,-7.4758,-7.5689,-7.679,0.0,0.0,0.0,0.0,0.0,0.0,-7.784,0.0,0.0,0.0,0.0,0.0,0.0,0.0,0.0,0.0,0.0,0.0,0.0,0.0,0.0,-7.5967,-7.4602,-7.4033,-7.3482,-7.2004,-7.1457,-7.1312,-7.1312,-7.1312,-7.1222,-7.0916,-7.0733,-7.0423,-7.027,-6.9988,-6.9798,-6.9798,-6.8535,-6.726,-6.6428,-6.4813,-6.3304,-6.2204,-6.1761,-6.1404,-6.1284,-6.1193,-6.1193,-6.1193,-6.1193,-6.1193,-6.1193,-6.1193,-6.1193,-6.1193,-6.1193,-6.1193,-6.1193,-6.1193,-6.1073,-6.0681,-5.7906,-5.6206,-5.5287,-5.2529,-5.0648,-4.9509,-4.9509,-4.8186,-4.6002,-4.6002,-4.5106,-4.3462,-4.2677,-4.237,-4.237,-4.1483,-4.0841,-4.0529,0.0,0.0,0.0,0.0,0.0,0.0,0.0,0.0,0.0,0.0,0.0,0.0,0.0,0.0,0.0,0.0,0.0,0.0,0.0,0.0,0.0,0.0,0.0,0.0,-7.5955,-7.5794,-7.5794,-7.5955,-7.5277,-7.4865,-7.4705,-7.3954,-7.4249,-7.5371,-7.6346,-7.7623,0.0,0.0,0.0,0.0,0.0,0.0,-7.8749,0.0,0.0,0.0,0.0,0.0,0.0,0.0,0.0,0.0,0.0,0.0,0.0,0.0,0.0,-7.5513,-7.4187,-7.3562,-7.3031,-7.1634,-7.1312,-7.1312,-7.1312,-7.1312,-7.1222,-7.0916,-7.0733,-7.0423,-7.027,-6.9988,-6.9798,-6.9798,-6.8502,-6.7157,-6.6322,-6.4703,-6.3334,-6.2204,-6.1642,-6.1404,-6.1404,-6.1313,-6.1193,-6.1193,-6.1193,-6.1193,-6.1193,-6.1193,-6.1193,-6.1193,-6.1193,-6.1193,-6.1193,-6.1193,-6.0952,-6.0438,-5.7369,-5.5683,-5.5155,-5.1861,-5.0104,-4.9509,-4.9389,-4.8064,0.0,-4.6002,-4.4955,-4.331,-4.2677,-4.237,-4.2062,-4.1483,-4.0841,-4.0197,0.0,0.0,0.0,0.0,0.0,0.0,0.0,0.0,0.0,0.0,0.0,0.0,0.0,0.0,0.0,0.0,0.0,0.0,0.0,0.0,0.0,0.0,0.0,0.0,-7.5864,-7.5763,-7.5763,-7.5895,-7.5485,-7.5092,-7.4745,-7.4319,-7.4628,-7.5539,-7.6776,-7.8026,-7.9312,-7.9957,-8.0456,-8.0713,-7.983,-7.9561,0.0,0.0,0.0,0.0,0.0,0.0,0.0,0.0,0.0,0.0,0.0,0.0,0.0,0.0,0.0,0.0,0.0,-7.316,-7.2279,-7.1546,-7.1312,-7.1312,-7.1312,-7.1312,0.0,-7.1007,-7.0733,-7.0423,-7.027,-6.9988,-6.9798,-6.967,-6.7903,-6.6428,-6.5973,-6.3984,-6.2381,-6.2116,-6.1732,-6.1613,-6.1613,-6.1404,-6.1193,-6.1193,-6.1193,-6.1193,-6.1193,-6.1193,-6.1193,-6.1193,-6.1193,-6.1193,-6.1193,-6.1193,-6.0831,-6.0194,-5.7268,-5.5551,-5.4782,-5.1583,-4.9818,-4.9509,-4.9124,-4.7794,-4.6002,-4.6002,-4.4805,-4.3004,-4.2524,-4.2216,-4.1773,-4.1327,-4.0704,-3.9902,0.0,0.0,0.0,0.0,0.0,0.0,0.0,0.0,0.0,0.0,0.0,0.0,0.0,0.0,0.0,0.0,0.0,0.0,0.0,0.0,0.0,0.0,0.0,0.0,-7.5763,-7.5666,-7.5699,-7.5895,-7.5455,-7.5203,-7.5167,-7.5431,-7.6149,-7.7341,-7.8256,-7.9455,-8.0883,-8.1349,-8.1585,-8.1546,-8.0831,-8.0585,0.0,0.0,0.0,0.0,-7.7004,-7.6399,0.0,0.0,0.0,0.0,0.0,0.0,0.0,0.0,-7.5299,0.0,0.0,0.0,-7.2279,-7.1546,-7.1312,-7.1312,0.0,-7.1312,-7.1312,-7.1222,-7.0825,-7.0515,-7.0423,-7.0049,-6.9478,-6.8634,-6.8072,-6.7022,-6.5032,-6.3074,-6.185,-6.1732,-6.1523,-6.1404,-6.1613,-6.1404,-6.1193,-6.1193,-6.1193,-6.1193,-6.1193,-6.1193,-6.1193,-6.1193,-6.1193,-6.1193,-6.1193,-6.1193,-6.0831,-6.0194,-5.7268,-5.5551,-5.4782,-5.1583,-4.9818,-4.9509,-4.8523,-4.7355,-4.6002,-4.5405,-4.4201,-4.3004,-4.2524,-4.2216,-4.1773,-4.1327,-4.0704,-3.9902,0.0,0.0,0.0,0.0,0.0,0.0,0.0,0.0,0.0,0.0,0.0,0.0,0.0,0.0,0.0,0.0,0.0,0.0,0.0,0.0,0.0,0.0,0.0,-7.5628,-7.5628,-7.5633,-7.5666,-7.5794,-7.5595,-7.5455,-7.531,-7.5969,-7.6846,-7.7982,-7.9473,-8.0717,-8.1698,-8.1858,-8.1984,-8.2003,-8.1601,0.0,0.0,0.0,0.0,0.0,-7.7309,-7.6729,0.0,-7.6031,-7.6067,-7.6309,0.0,0.0,0.0,0.0,-7.4567,-7.3241,-7.3241,-7.2617,-7.183,-7.1367,-7.1312,-7.1312,-7.1312,-7.1312,-7.1312,-7.1312,-7.0916,-7.0515,-7.0515,-6.9508,-6.883,-6.883,-6.733,-6.5405,-6.3501,-6.2409,-6.1732,-6.1613,-6.1494,-6.1404,-6.1404,-6.1313,-6.1193,-6.1193,-6.1193,-6.1193,-6.1193,-6.1193,-6.1193,-6.1193,-6.1193,-6.1193,-6.1193,-6.1193,-6.0831,-6.0194,-5.7268,-5.5551,-5.4782,-5.1419,-4.9652,-4.9365,-4.8064,-4.6891,-4.6002,-4.5106,-4.405,-4.2697,-4.2524,-4.2082,-4.1463,-4.0997,-4.0529,-3.9902,0.0,0.0,0.0,0.0,0.0,0.0,0.0,0.0,0.0,0.0,0.0,0.0,0.0,0.0,0.0,0.0,0.0,0.0,0.0,0.0,0.0,0.0,-7.5599,-7.5599,-7.5566,-7.5566,-7.5633,-7.5692,-7.5794,-7.5769,-7.5642,-7.6484,-7.7437,-7.8501,-8.0536,-8.166,-8.1999,-8.1976,-8.2042,-8.2187,-8.2098,0.0,0.0,0.0,0.0,0.0,0.0,0.0,0.0,-7.6106,-7.6014,-7.6313,-7.6323,0.0,0.0,0.0,0.0,0.0,-7.2533,-7.1917,-7.1312,-7.1312,-7.1312,-7.1312,-7.1312,-7.1312,-7.1312,-7.1312,-7.0916,-7.0423,-7.033,-6.896,-6.8271,-6.9156,-6.6154,-6.3501,-6.2409,-6.2087,-6.188,-6.1613,-6.1613,-6.1494,-6.1313,-6.1193,-6.1193,-6.1193,-6.1193,-6.1193,-6.1193,-6.1193,-6.1193,-6.1193,-6.1193,-6.1193,-6.1193,-6.1193,-6.0681,-5.992,-5.7112,-5.5419,-5.4515,-5.0998,-4.9509,-4.9365,-4.7772,-4.6596,-4.6002,-4.4955,-4.3746,-4.237,-4.237,-4.1927,-4.1172,-4.0666,-4.0216,-3.9902,0.0,0.0,0.0,0.0,0.0,0.0,0.0,0.0,0.0,0.0,0.0,0.0,0.0,0.0,0.0,0.0,0.0,0.0,0.0,0.0,0.0,-7.5535,-7.5566,-7.5566,-7.5535,-7.5535,-7.5566,-7.5692,-7.5692,-7.614,-7.7032,-7.7839,-7.9182,-8.0898,-8.142,-8.177,-8.1999,-8.211,-8.2187,-8.2175,-8.1899,0.0,0.0,0.0,0.0,0.0,0.0,0.0,0.0,-7.5753,-7.5919,-7.6683,-7.6373,0.0,0.0,0.0,0.0,0.0,-7.2533,-7.1917,-7.1312,-7.1312,-7.1312,-7.1312,-7.1312,-7.1312,-7.1312,-7.1312,-7.0916,-7.0203,-6.9283,-6.9316,-6.8928,-6.7157,-6.5111,-6.3698,-6.3213,-6.2057,-6.1404,-6.1613,-6.1404,-6.1284,-6.1494,-6.1284,-6.1193,-6.1193,-6.1193,-6.1193,-6.1193,-6.1193,-6.1193,-6.1193,-6.1193,-6.1193,-6.1193,-6.0952,-6.0014,-5.8439,-5.6466,-5.4623,-5.3053,-5.06,-4.9509,-4.9365,-4.7186,-4.6151,-4.5853,-4.4352,-4.3289,-4.237,-4.237,-4.1927,-4.1172,-4.0666,-4.0216,-3.9745,0.0,0.0,0.0,0.0,0.0,0.0,0.0,0.0,0.0,0.0,0.0,0.0,0.0,0.0,0.0,0.0,0.0,0.0,0.0,0.0,-7.4584,-7.4163,-7.4159,-7.458,-7.5462,-7.5501,-7.5566,-7.5692,-7.6153,-7.6709,-7.7323,-7.8728,-8.0164,-8.1558,-8.177,-8.196,-8.2098,-8.2186,-8.2178,-8.2137,0.0,0.0,0.0,0.0,0.0,0.0,0.0,0.0,0.0,0.0,-7.6118,-7.6578,-7.5898,0.0,0.0,0.0,0.0,0.0,-7.183,-7.1634,-7.1312,-7.1312,-7.1222,-7.1098,-7.1098,-7.1007,-7.0916,-7.1007,-7.0733,-7.0049,-6.909,-6.8271,-6.6918,-6.4229,-6.3811,-6.3471,-6.2466,-6.1939,-6.1642,-6.1613,-6.1494,-6.1404,-6.1404,-6.1313,-6.1193,-6.1193,-6.1193,-6.1193,-6.1193,-6.1193,-6.1193,-6.1193,-6.1193,-6.1193,-6.1193,-6.0681,-5.9645,-5.806,-5.6206,-5.4355,-5.2366,-5.0458,-4.9365,-4.9101,-4.6891,-4.6002,-4.5853,-4.405,-4.3004,-4.237,-4.2216,-4.1773,-4.1172,-4.0372,-3.9745,-3.9114,0.0,0.0,0.0,0.0,0.0,0.0,0.0,0.0,0.0,0.0,0.0,0.0,0.0,0.0,0.0,0.0,0.0,0.0,0.0,-7.3934,-7.3628,-7.3017,-7.2979,-7.359,-7.4889,-7.4924,-7.5183,-7.5692,-7.6415,-7.7155,-7.7978,-7.9649,-8.0894,-8.177,-8.1922,-8.207,-8.2186,-8.2178,-8.2098,-8.1987,0.0,0.0,0.0,0.0,0.0,0.0,0.0,0.0,0.0,0.0,0.0,0.0,0.0,0.0,0.0,-7.27,-7.1917,-7.1312,-7.1312,-7.1312,-7.1312,-7.1312,-7.1131,-7.1007,-7.0916,-7.0733,-7.0515,-7.0423,-7.0143,-6.9541,-6.8568,-6.7125,-6.5219,-6.2899,-6.3129,-6.3129,-6.1703,-6.1761,-6.1761,-6.1494,-6.1494,-6.1404,-6.1193,-6.1193,-6.1193,-6.1193,-6.1193,-6.1193,-6.1193,-6.1193,-6.1193,-6.1193,-6.1193,-6.1193,-6.1193,-6.056,-5.9369,-5.7524,-5.6076,-5.3952,-5.1698,-5.0198,-4.9245,-4.8691,-4.6743,-4.5853,-4.5555,-4.3767,-4.2697,-4.237,-4.1927,-4.1463,-4.086,-4.0235,-3.9272,-3.864,0.0,0.0,0.0,0.0,0.0,0.0,0.0,0.0,0.0,0.0,0.0,0.0,0.0,0.0,0.0,0.0,0.0,0.0,0.0,-7.3093,-7.3055,-7.2979,-7.2979,-7.3055,-7.317,-7.3237,-7.4063,-7.5692,-7.5871,-7.7304,-7.9932,-8.0846,-8.1561,-8.1974,-8.1909,-8.2026,-8.2186,-8.2115,-8.1948,-8.17,-8.1441,0.0,0.0,0.0,0.0,0.0,0.0,0.0,0.0,0.0,0.0,0.0,0.0,0.0,-7.2617,-7.2533,-7.1917,-7.1312,-7.1312,-7.1312,-7.1312,-7.1312,-7.1312,-7.1222,-7.0916,-7.0916,-7.0515,-6.9283,-6.8798,-6.8271,-6.7196,-6.6396,-6.5866,-6.5266,-6.4168,-6.2899,-6.1404,-6.1193,-6.1313,-6.1193,-6.1193,-6.1193,-6.1193,-6.1193,-6.1193,-6.1193,-6.1193,-6.1193,-6.1193,-6.1193,-6.1193,-6.1193,-6.1193,-6.1193,-6.1193,-6.056,-5.8843,-5.6076,-5.5287,-5.33,-5.0246,-4.9795,-4.8933,-4.7794,-4.6596,-4.5555,-4.4805,-4.3462,-4.2697,-4.237,-4.1927,-4.0997,-4.0059,-3.9902,-3.9272,-3.864,0.0,0.0,0.0,0.0,0.0,0.0,0.0,0.0,0.0,0.0,0.0,0.0,0.0,0.0,0.0,0.0,0.0,0.0,0.0,-7.2176,-7.1947,-7.1412,-7.1374,-7.1642,-7.2176,-7.3242,-7.4183,-7.4964,-7.6794,-7.8786,-8.0948,-8.1505,-8.1842,-8.1958,-8.2032,-8.2108,-8.212,-8.1919,-8.1792,-8.1675,-8.1221,-8.1022,0.0,0.0,0.0,0.0,0.0,0.0,0.0,0.0,-7.5815,-7.5227,-7.4642,-7.3562,-7.2364,-7.1917,-7.1546,-7.1312,-7.1312,-7.1312,-7.1312,-7.1312,-7.1312,-7.1222,-7.0733,-7.0549,-7.0363,-7.0016,-6.9637,-6.8732,-6.6918,-6.4892,-6.3501,-6.3388,-6.2582,-6.185,-6.1313,-6.1193,-6.1193,-6.1193,-6.1193,-6.1193,-6.1193,-6.1193,-6.1193,-6.1193,-6.1193,-6.1193,-6.1193,-6.1193,-6.1193,-6.1193,-6.1193,-6.1193,-6.1193,-5.9645,-5.7906,-5.5918,-5.5155,-5.3027,-4.9652,-4.9509,-4.8789,-4.7332,-4.6448,-4.5555,-4.4654,-4.3289,-4.2524,-4.237,-4.1288,-4.0529,-3.9902,-3.9588,-3.9114,-3.864,0.0,0.0,0.0,0.0,0.0,0.0,0.0,0.0,0.0,0.0,0.0,0.0,0.0,0.0,0.0,0.0,0.0,0.0,-7.1336,-7.1298,-7.1145,-7.0839,-7.0801,-7.1221,-7.21,-7.3576,-7.4517,-7.4943,-7.7859,-7.9919,-8.1191,-8.1734,-8.2016,-8.1987,-8.2143,-8.2132,-8.1938,-8.1778,-8.16,-8.1407,-8.1041,-8.0773,0.0,0.0,0.0,0.0,0.0,0.0,0.0,0.0,-7.5826,0.0,0.0,-7.2996,-7.2056,-7.1457,-7.1312,-7.1312,-7.1312,-7.1312,-7.1312,-7.1222,-7.1222,-7.0916,-7.011,-6.9827,-6.9541,-6.8863,-6.8699,-6.8104,-6.6217,-6.4371,-6.3074,-6.2758,-6.188,-6.1193,-6.1193,-6.1193,-6.1193,-6.1193,-6.1193,-6.1193,-6.1193,-6.1193,-6.1193,-6.1193,-6.1193,-6.1193,-6.1193,-6.1193,-6.1193,-6.1193,-6.1193,-6.1193,-6.1073,-5.9093,-5.7268,-5.5683,-5.4623,-5.2479,-4.9509,-4.9509,-4.8499,-4.6743,-4.6299,-4.5405,-4.4352,-4.2984,-4.2216,-4.1927,-4.0821,-4.0197,-3.9902,-3.943,-3.8956,-3.864,0.0,0.0,0.0,0.0,0.0,0.0,0.0,0.0,0.0,0.0,0.0,0.0,0.0,0.0,0.0,0.0,0.0,0.0,-7.0457,-7.0419,-7.0801,-7.1642,-7.1718,-7.21,-7.2979,-7.4005,-7.4994,-7.5928,-7.8858,-8.0416,-8.074,-8.1597,-8.2054,-8.2186,-8.2182,-8.2007,-8.17,-8.1675,-8.1383,-8.09,-8.09,-8.0425,-7.9665,0.0,0.0,0.0,0.0,0.0,0.0,0.0,0.0,0.0,0.0,-7.2313,-7.1512,-7.1401,-7.1312,-7.1312,-7.1312,-7.1312,-7.1222,-7.1007,-7.0916,-7.0515,-6.8895,-6.8699,-6.8139,-6.5359,-6.5575,-6.6004,-6.4954,-6.508,-6.5049,-6.3923,-6.2292,-6.1193,-6.1193,-6.1193,-6.1193,-6.1193,-6.1193,-6.1193,-6.1193,-6.1193,-6.1193,-6.1193,-6.1193,-6.1193,-6.1193,-6.1193,-6.1193,-6.1193,-6.1193,-6.1073,-6.0681,-5.8968,-5.7139,-5.5287,-5.3164,-5.1279,-4.9509,-4.9509,-4.8186,-4.6002,-4.6002,-4.5106,-4.3462,-4.2677,-4.1927,-4.1172,-4.0666,-4.0216,-3.9902,-3.943,-3.8956,-3.864,0.0,0.0,0.0,0.0,0.0,0.0,0.0,0.0,0.0,0.0,0.0,0.0,0.0,0.0,0.0,0.0,0.0,0.0,-7.0419,-7.0954,-7.1412,-7.168,-7.2291,-7.3017,-7.3819,-7.5003,-7.6095,-7.7084,-7.8768,-7.9968,-8.0701,-8.1695,-8.2141,-8.2182,-8.1945,-8.1805,-8.1657,-8.1296,-8.1041,-8.0837,-8.0277,-7.9882,-7.9621,0.0,0.0,0.0,0.0,0.0,0.0,0.0,0.0,0.0,0.0,0.0,-7.1512,-7.1401,-7.1312,-7.1312,-7.1312,-7.1131,-7.1007,-7.0916,-7.0733,-7.0016,-6.7838,-6.8765,-6.9475,-6.7737,-6.6396,-6.5359,-6.4844,-6.3841,-6.2959,-6.2642,-6.188,-6.1193,-6.1193,-6.1193,-6.1193,-6.1193,-6.1193,-6.1193,-6.1193,-6.1193,-6.1193,-6.1193,-6.1193,-6.1193,-6.1193,-6.1193,-6.1193,-6.1193,-6.1193,-6.0531,-5.9189,-5.7369,-5.5656,-5.3952,-5.1698,-5.034,-4.9509,-4.9245,-4.7941,-4.6002,-4.6002,-4.4955,-4.3157,-4.2236,-4.1618,-4.1172,-4.0372,-4.0059,-3.9745,-3.9114,-3.8798,-3.864,0.0,0.0,0.0,0.0,0.0,0.0,0.0,0.0,0.0,0.0,-7.2762,-7.2562,0.0,0.0,0.0,0.0,0.0,0.0,-7.0916,-7.1718,-7.2367,-7.2673,-7.3208,-7.3921,-7.4919,-7.5798,-7.6566,-7.7321,-7.8702,-7.9851,-8.0813,-8.1751,-8.2139,-8.2,-8.1805,-8.1597,-8.1359,-8.1012,-8.0844,-8.0677,-8.0002,-7.9538,-7.9311,0.0,0.0,0.0,0.0,0.0,0.0,0.0,0.0,0.0,0.0,-7.2262,-7.1722,-7.1278,-7.1131,-7.1131,-7.1007,-7.0825,-7.0608,-7.011,-6.9794,-6.9187,-6.7196,-6.7196,-6.733,-6.6501,-6.5544,-6.4703,-6.4209,-6.3334,-6.2642,-6.2204,-6.1523,-6.1193,-6.1193,-6.1193,-6.1193,-6.1193,-6.1193,-6.1193,-6.1193,-6.1193,-6.1193,-6.1193,-6.1193,-6.1193,-6.1193,-6.1193,-6.1193,-6.1193,-6.1193,-6.0259,-5.8411,-5.6699,-5.4996,-5.3053,-5.0882,-4.9795,-4.9509,-4.8812,-4.7648,-4.6002,-4.5106,-4.405,-4.2697,-4.2082,-4.1463,-4.0841,-4.0216,-3.9745,-3.9588,-3.8798,-3.864,-3.864,0.0,0.0,0.0,0.0,0.0,0.0,0.0,0.0,0.0,0.0,-7.1255,-7.0789,0.0,0.0,0.0,0.0,0.0,0.0,0.0,-7.2635,-7.3437,-7.4163,-7.4312,-7.4919,-7.6083,-7.6305,-7.6605,-7.7036,-7.8604,-7.9811,-8.0662,-8.1516,-8.1765,-8.1467,-8.1423,-8.1131,-8.0669,-8.0683,-8.0528,-8.0278,-7.9756,-7.9265,-7.8741,-7.8255,0.0,0.0,0.0,0.0,0.0,0.0,0.0,0.0,-7.2382,-7.1985,-7.181,-7.1098,-7.0916,-7.0825,-7.0608,-7.0515,-7.011,-6.8798,-6.8371,-6.7838,-6.6887,-6.4844,-6.3194,-6.3279,-6.4015,-6.4209,-6.3279,-6.3448,-6.3273,-6.2321,-6.1523,-6.1193,-6.1193,-6.1193,-6.1193,-6.1193,-6.1193,-6.1193,-6.1193,-6.1193,-6.1193,-6.1193,-6.1193,-6.1193,-6.1193,-6.1193,-6.1193,-6.1193,-6.1073,-6.0014,-5.7906,-5.6466,-5.4623,-5.2529,-5.0458,-4.9509,-4.9365,-4.8232,-4.7038,-4.5853,-4.3767,-4.2697,-4.237,-4.1927,-4.1308,-4.0509,-4.0059,-3.9588,-3.9272,-3.8798,-3.864,-3.864,0.0,0.0,0.0,0.0,0.0,0.0,0.0,0.0,0.0,0.0,0.0,0.0,0.0,0.0,0.0,0.0,0.0,0.0,0.0,-7.3476,-7.401,-7.4201,-7.5015,-7.5736,-7.6343,-7.6439,-7.6961,-7.7933,-7.8285,-7.861,-7.8862,-7.9557,-7.9817,-7.9714,-7.9299,-7.9065,-7.8946,-7.898,-7.897,-7.8921,-7.8566,-7.8363,-7.82,-7.7651,-7.7082,0.0,0.0,0.0,0.0,0.0,0.0,0.0,-7.2159,-7.1898,-7.16,-7.1312,-7.1007,-7.0916,-7.0825,-7.0549,-6.9955,-6.8798,-6.7022,-6.5467,-6.525,-6.4097,-6.3394,-6.4401,-6.4015,-6.3394,-6.3194,-6.2817,-6.2438,-6.2116,-6.1523,-6.1193,-6.1193,-6.1193,-6.1193,-6.1193,-6.1193,-6.1193,-6.1193,-6.1193,-6.1193,-6.1193,-6.1193,-6.1193,-6.1193,-6.1193,-6.1193,-6.1193,-6.0165,-5.8564,-5.6466,-5.5049,-5.3053,-5.0648,-4.9938,-4.9389,-4.9124,-4.7941,-4.6448,-4.4955,-4.3289,-4.2524,-4.237,-4.1618,-4.0997,-4.0509,-4.0059,-3.9588,-3.9272,-3.8798,-3.864,-3.864,0.0,0.0,0.0,0.0,0.0,0.0,0.0,0.0,0.0,0.0,0.0,0.0,0.0,0.0,0.0,0.0,0.0,0.0,0.0,0.0,-7.4882,-7.4976,-7.5697,-7.6199,-7.6411,-7.6566,-7.6944,-7.7581,-7.7602,-7.8086,-7.8947,-7.9104,-7.9126,-7.8981,-7.8605,-7.8569,-7.8837,-7.8595,-7.8723,-7.9015,-7.8335,-7.809,-7.8072,-7.751,-7.6829,-7.6203,-7.6203,0.0,0.0,0.0,0.0,0.0,0.0,0.0,-7.1722,-7.1188,-7.1007,-7.0825,-7.0641,-6.9955,-6.8928,-6.7125,-6.525,-6.3902,-6.3902,-6.3478,-6.3279,-6.4015,-6.3592,-6.3079,-6.3079,-6.2585,-6.2116,-6.2351,-6.1672,-6.1193,-6.1404,-6.1313,-6.1193,-6.1193,-6.1193,-6.1193,-6.1193,-6.1193,-6.1193,-6.1193,-6.1193,-6.1193,-6.1193,-6.1193,-6.1193,-6.1193,-6.0287,-5.8564,-5.5918,-5.5049,-5.3053,-5.0104,-4.9652,-4.8789,-4.7502,-4.6891,-4.5704,-4.4201,-4.2984,-4.237,-4.237,-4.1463,-4.0841,-4.0216,-3.9902,-3.9588,-3.8956,-3.864,-3.864,-3.864,0.0,0.0,0.0,0.0,0.0,0.0,0.0,0.0,0.0,0.0,0.0,0.0,0.0,0.0,0.0,0.0,0.0,0.0,0.0,0.0,0.0,-7.5899,-7.621,-7.6433,-7.6477,-7.6689,-7.6864,-7.6907,-7.6944,-7.7681,-7.9071,-7.8808,-7.8551,-7.8296,-7.7997,-7.8223,-7.8713,-7.8314,-7.8548,-7.9169,-7.8288,-7.796,-7.7903,-7.7329,-7.6636,-7.5963,-7.5826,-7.4864,-7.3597,-7.3597,0.0,0.0,0.0,0.0,-7.181,-7.1188,-7.0916,-7.0825,-7.0456,-6.9316,-6.7636,-6.525,-6.3902,-6.3079,-6.3079,-6.3079,-6.3079,-6.3079,-6.3079,-6.3079,-6.3079,-6.2585,-6.2234,-6.2498,-6.1909,-6.1404,-6.1613,-6.1404,-6.1313,-6.1193,-6.1193,-6.1193,-6.1193,-6.1193,-6.1193,-6.1313,-6.1193,-6.1193,-6.1313,-6.1193,-6.1193,-6.1193,-6.0409,-5.869,-5.5918,-5.5155,-5.3027,-4.9961,-4.9365,-4.8041,-4.6002,-4.5853,-4.4955,-4.3462,-4.2677,-4.237,-4.2216,-4.1463,-4.0529,-3.9902,-3.9745,-3.9272,-3.864,-3.864,-3.864,-3.864,0.0,0.0,0.0,0.0,0.0,0.0,0.0,0.0,0.0,0.0,-7.1167,-7.1162,0.0,0.0,0.0,0.0,0.0,0.0,0.0,0.0,0.0,-7.632,-7.6389,-7.6517,-7.6755,-7.6847,-7.6931,-7.699,-7.68,-7.6819,-7.6995,-7.6749,-7.6519,-7.6303,-7.6005,-7.6044,-7.6376,-7.6617,-7.693,-7.7287,-7.7393,-7.7426,-7.7365,-7.6599,-7.5826,-7.5083,-7.4416,-7.3597,-7.2804,-7.2804,-7.2671,0.0,0.0,0.0,-7.16,-7.1312,-7.1098,-7.0916,-7.0825,-6.896,-6.6679,-6.5142,-6.3902,-6.3079,-6.3079,-6.3079,-6.3079,-6.3079,-6.3079,-6.3079,-6.3079,-6.2847,-6.2498,-6.2615,-6.2234,-6.188,-6.1613,-6.1613,-6.1494,-6.1193,-6.1193,-6.1193,-6.1193,-6.1193,-6.1313,-6.1494,-6.1284,-6.1284,-6.1494,-6.1284,-6.1193,-6.1193,-5.8564,-5.6726,-5.5918,-5.3189,-5.1047,-4.9509,-4.8209,-4.7038,-4.6002,-4.5256,-4.4201,-4.3004,-4.2544,-4.2216,-4.1773,-4.0977,-4.0372,-3.9902,-3.9588,-3.9114,-3.864,-3.864,-3.864,-3.864,0.0,0.0,0.0,0.0,0.0,0.0,0.0,0.0,0.0,0.0,0.0,-7.2257,0.0,0.0,0.0,0.0,0.0,0.0,0.0,0.0,0.0,-7.6389,-7.6534,-7.6684,-7.6804,-7.6906,-7.6914,-7.6844,-7.6738,-7.6549,-7.625,-7.6096,-7.5975,-7.587,-7.5773,-7.608,-7.663,-7.6642,-7.7042,-7.7589,-7.7363,-7.7056,-7.6636,-7.6336,-7.5441,-7.4264,-7.3956,-7.3311,-7.2671,-7.2671,-7.2501,-7.2245,-7.2072,0.0,0.0,0.0,-7.1222,-7.0791,-6.925,-6.7806,-6.6365,-6.432,-6.3508,-6.3079,-6.3079,-6.3079,-6.3079,-6.3079,-6.3079,-6.3079,-6.3079,-6.2847,-6.2615,-6.2847,-6.2468,-6.2116,-6.2116,-6.185,-6.1613,-6.1642,-6.1523,-6.1523,-6.1642,-6.1642,-6.1642,-6.1613,-6.1494,-6.1404,-6.1404,-6.1313,-6.0774,-5.9711,-5.8159,-5.6466,-5.4489,-5.2641,-5.0906,-4.9245,-4.7332,-4.6299,-4.6002,-4.4504,-4.3462,-4.3004,-4.2524,-4.2216,-4.1773,-4.0821,-4.0197,-3.9902,-3.943,-3.8956,-3.864,-3.864,-3.864,-3.864,0.0,0.0,0.0,0.0,0.0,0.0,0.0,0.0,0.0,0.0,0.0,0.0,0.0,0.0,0.0,0.0,0.0,0.0,0.0,0.0,0.0,0.0,-7.6699,-7.6827,-7.6847,-7.6941,-7.6902,-7.6691,-7.6611,-7.6361,-7.5975,-7.5703,-7.5616,-7.5584,-7.5779,-7.6241,-7.6806,-7.6886,-7.7274,-7.7846,-7.7268,-7.67,-7.6135,-7.5757,-7.4864,-7.3799,-7.3597,-7.3183,-7.2671,-7.2671,-7.2586,-7.2331,-7.2072,-7.1898,0.0,0.0,0.0,-7.0791,-6.8405,-6.7572,-6.6783,-6.4209,-6.3592,-6.3478,-6.3194,-6.3079,-6.3079,-6.3079,-6.3079,-6.3079,-6.3079,-6.2847,-6.2847,-6.3079,-6.2701,-6.2351,-6.2615,-6.2116,-6.1969,-6.2116,-6.185,-6.185,-6.2116,-6.2116,-6.1969,-6.1732,-6.1613,-6.1494,-6.1284,-6.1193,-6.0381,-5.8509,-5.7906,-5.6206,-5.33,-5.209,-5.06,-4.8691,-4.6891,-4.5853,-4.5704,-4.3767,-4.3004,-4.2851,-4.239,-4.2082,-4.1618,-4.0685,-4.0216,-3.9902,-3.9272,-3.8956,-3.864,-3.864,-3.864,-3.864,0.0,0.0,0.0,0.0,0.0,0.0,0.0,0.0,0.0,0.0,0.0,0.0,-7.5281,-7.5501,-7.5501,-7.5501,0.0,0.0,0.0,0.0,0.0,0.0,0.0,0.0,-7.6991,-7.6992,-7.6892,-7.669,-7.6436,-7.6173,-7.5898,-7.5127,-7.4786,-7.4824,-7.5577,-7.5848,-7.5841,-7.6604,-7.7086,-7.7304,-7.6534,-7.6203,-7.6032,-7.4492,-7.3878,-7.3721,-7.3053,-7.2755,-7.2671,-7.2671,-7.2671,-7.2586,-7.2159,-7.1985,-7.1898,0.0,0.0,0.0,-6.9537,-6.9121,-6.8405,-6.562,-6.5032,-6.4703,-6.3394,-6.3079,-6.3079,-6.3079,-6.3079,-6.3079,-6.3079,-6.3079,-6.3079,-6.3079,-6.3079,-6.2963,-6.2615,-6.2615,-6.2498,-6.2116,-6.2116,-6.2116,-6.2116,-6.2116,-6.2116,-6.2116,-6.1732,-6.1613,-6.1613,-6.1284,-6.0381,-5.8509,-5.6828,-5.5129,-5.33,-5.0857,-4.9078,-4.7794,-4.6596,-4.5555,-4.4805,-4.3615,-4.2851,-4.237,-4.2082,-4.1618,-4.1172,-4.0216,-3.9902,-3.9745,-3.8956,-3.864,-3.864,-3.864,-3.864,-3.864,0.0,0.0,0.0,0.0,0.0,0.0,0.0,0.0,0.0,0.0,0.0,0.0,0.0,-7.5281,-7.5532,-7.5692,-7.5975,0.0,0.0,0.0,0.0,0.0,0.0,0.0,-7.6992,-7.6917,-7.6809,-7.6653,-7.6278,-7.6006,-7.578,-7.5056,-7.454,-7.4319,-7.5341,-7.573,-7.577,-7.6749,-7.7192,-7.7243,-7.6505,-7.5895,-7.5299,-7.4264,-7.3517,-7.3018,-7.2838,-7.2671,-7.2671,-7.2671,-7.2586,-7.2416,-7.2245,-7.1985,-7.1722,-7.1401,-7.1312,-7.1007,-6.9633,-6.9121,-6.8536,-6.6679,-6.5544,-6.4734,-6.4209,-6.3592,-6.3079,-6.3079,-6.3079,-6.3079,-6.3079,-6.3079,-6.3079,-6.3079,-6.3079,-6.3079,-6.2963,-6.2731,-6.2615,-6.2701,-6.2585,-6.2498,-6.2701,-6.2615,-6.2351,-6.2116,-6.1732,-6.1494,-6.1404,-6.1073,-5.9617,-5.6956,-5.6076,-5.4061,-5.0857,-4.9795,-4.8523,-4.7332,-4.6448,-4.5555,-4.4805,-4.3289,-4.2524,-4.237,-4.1618,-4.1152,-4.0685,-4.0059,-3.9745,-3.943,-3.8798,-3.864,-3.864,-3.864,-3.864,-3.8481,0.0,0.0,0.0,0.0,0.0,0.0,0.0,0.0,0.0,-7.3466,0.0,0.0,0.0,0.0,-7.5724,-7.5985,-7.6273,-7.6415,-7.6516,-7.6713,0.0,0.0,0.0,0.0,-7.6931,-7.6565,-7.6402,-7.6438,-7.5671,-7.5349,-7.5421,-7.4585,-7.4214,-7.4212,-7.5065,-7.5421,-7.5532,-7.6788,-7.7304,-7.7181,-7.6167,-7.5441,-7.4864,-7.3834,-7.3101,-7.2671,-7.2671,-7.2671,-7.2671,-7.2671,-7.2586,-7.2416,-7.2331,-7.1951,-7.1512,-7.1401,-7.1312,-7.1098,-7.017,-6.976,-6.9283,-6.7838,-6.6679,-6.5759,-6.4923,-6.4097,-6.3478,-6.3164,-6.3079,-6.3079,-6.3079,-6.3079,-6.3079,-6.3079,-6.3079,-6.3079,-6.3079,-6.2963,-6.2847,-6.3079,-6.2847,-6.2847,-6.3079,-6.2847,-6.2498,-6.2116,-6.1732,-6.1494,-6.1193,-6.0409,-5.8439,-5.5129,-5.4087,-5.2341,-4.9509,-4.8957,-4.7941,-4.6743,-4.6002,-4.5106,-4.4201,-4.2984,-4.237,-4.2216,-4.1308,-4.0841,-4.0509,-4.0059,-3.9588,-3.9272,-3.8798,-3.864,-3.864,-3.864,-3.864,-3.8481,0.0,0.0,0.0,0.0,0.0,0.0,0.0,0.0,-7.3466,-7.3963,0.0,0.0,0.0,0.0,0.0,-7.6366,-7.6411,-7.6497,-7.6793,-7.6804,0.0,0.0,0.0,0.0,-7.6804,-7.6025,-7.5782,-7.6108,-7.4725,-7.435,-7.4903,-7.3774,-7.3707,-7.4524,-7.4806,-7.4918,-7.5065,-7.6644,-7.7243,-7.7118,-7.5582,-7.501,-7.479,-7.3264,-7.2671,-7.2671,-7.2671,-7.2671,-7.2671,-7.2671,-7.2671,-7.2671,-7.2416,-7.1951,-7.1512,-7.1401,-7.1312,-7.1312,0.0,0.0,0.0,-6.9283,-6.8667,-6.7737,-6.5359,-6.4734,-6.432,-6.3279,-6.3079,-6.3079,-6.3079,-6.3079,-6.3079,-6.3079,-6.3079,-6.3079,-6.3079,-6.3079,-6.3079,-6.3079,-6.3079,-6.3079,-6.3079,-6.2731,-6.2498,-6.2116,-6.1732,-6.1494,-6.1193,-5.9313,-5.6801,-5.3436,-5.1163,-4.9961,-4.9509,-4.8354,-4.7186,-4.6002,-4.5106,-4.4201,-4.3024,-4.2544,-4.2216,-4.1773,-4.0821,-4.0509,-4.0509,-4.0059,-3.9588,-3.9272,-3.8798,-3.864,-3.864,-3.864,-3.864,-3.8481,0.0,0.0,0.0,0.0,0.0,0.0,0.0,0.0,-7.3466,0.0,0.0,0.0,-7.5427,-7.578,-7.6109,-7.6389,-7.657,-7.6728,-7.6793,-7.6894,-7.6946,-7.6992,-7.6912,-7.6829,-7.6804,-7.6354,-7.6144,-7.6258,-7.5334,-7.49,-7.4942,-7.3916,-7.3811,-7.4524,-7.4806,-7.5212,-7.5836,-7.6864,-7.6956,-7.6403,-7.537,-7.4642,-7.4033,-7.3018,-7.2671,-7.2671,-7.2671,-7.2671,-7.2671,-7.2671,-7.2671,-7.2586,-7.2245,-7.1898,-7.1512,-7.1401,-7.1312,-7.1312,-7.1312,0.0,0.0,0.0,0.0,0.0,-6.611,-6.4623,-6.3478,-6.3194,-6.3079,-6.3079,-6.3079,-6.3079,-6.3079,-6.3079,-6.3079,-6.3079,-6.3079,-6.3079,-6.3079,-6.3079,-6.3079,-6.2963,-6.2731,-6.2468,-6.2116,-6.1732,-6.1523,-6.0774,-5.9313,-5.644,-5.4061,-5.2504,-5.06,-4.9532,-4.9124,-4.7941,-4.6891,-4.6002,-4.4955,-4.3919,-4.3004,-4.2236,-4.1927,-4.1773,-4.0821,-4.0353,-4.0059,-3.9588,-3.9272,-3.8798,-3.864,-3.864,-3.864,-3.864,-3.8481,-3.8163,0.0,0.0,0.0,0.0,0.0,0.0,0.0,0.0,-7.3774,0.0,0.0,0.0,-7.5724,-7.6041,-7.632,-7.6496,-7.6684,-7.6827,-7.6829,-7.6938,-7.6989,-7.6922,-7.6839,-7.6716,-7.6582,-7.6049,-7.5799,-7.587,-7.4854,-7.4406,-7.4502,-7.4001,-7.4158,-7.4774,-7.5264,-7.5776,-7.6172,-7.6647,-7.6636,-7.6135,-7.4937,-7.4264,-7.3721,-7.297,-7.2671,-7.2671,-7.2671,-7.2671,-7.2671,-7.2671,-7.2586,-7.2501,-7.2072,-7.181,-7.1512,-7.1401,-7.1312,-7.1312,-7.1312,-7.0916,-7.0515,-7.0515,0.0,0.0,-6.6533,-6.5063,-6.3592,-6.3194,-6.3079,-6.3079,-6.3079,-6.3079,-6.3079,-6.3079,-6.3079,-6.3079,-6.3079,-6.3079,-6.3079,-6.3079,-6.2963,-6.2847,-6.2615,-6.2116,-6.185,-6.1613,-6.1404,-6.0137,-5.7596,-5.4571,-5.2479,-5.1303,-4.9938,-4.9101,-4.8546,-4.7332,-4.6299,-4.5555,-4.4201,-4.331,-4.2697,-4.2082,-4.1773,-4.1463,-4.0685,-4.0059,-3.9902,-3.9272,-3.8798,-3.864,-3.864,-3.864,-3.864,-3.8481,-3.8163,-3.7845,0.0,0.0,0.0,0.0,0.0,0.0,0.0,0.0,0.0,0.0,-7.517,-7.566,-7.6068,-7.6297,-7.6475,-7.6704,-7.678,-7.6829,-7.6912,-7.6951,-7.6927,-7.6816,0.0,0.0,-7.6305,-7.5461,-7.5099,-7.531,-7.3951,-7.3446,-7.3774,-7.4047,-7.4551,-7.5153,-7.6,-7.6349,-7.6203,-7.6135,-7.6,-7.5826,-7.4416,-7.3721,-7.3597,-7.297,-7.2671,-7.2671,-7.2671,-7.2671,-7.2671,-7.2671,-7.2501,-7.2245,-7.2072,-7.181,-7.1512,-7.1401,-7.1312,-7.1312,-7.1312,-7.0916,-7.0515,-7.0515,-6.9283,0.0,-6.6638,-6.5467,-6.4432,-6.3279,-6.3079,-6.3079,-6.3079,-6.3079,-6.3079,-6.3079,-6.3079,-6.3079,-6.3079,-6.3079,-6.3079,-6.3079,-6.2847,-6.2615,-6.2498,-6.1969,-6.1613,-6.1613,-6.1015,-5.9217,-5.5918,-5.3656,-5.1648,-4.9961,-4.9268,-4.8546,-4.7794,-4.6448,-4.5555,-4.4654,-4.3462,-4.2697,-4.237,-4.1927,-4.1463,-4.1016,-4.0235,-3.9902,-3.9745,-3.8956,-3.864,-3.864,-3.864,-3.864,-3.8481,-3.8163,-3.8004,-3.7845,0.0,0.0,0.0,0.0,0.0,0.0,0.0,0.0,-7.4154,-7.4664,-7.5313,-7.581,-7.6095,-7.6297,-7.6497,-7.6741,-7.6839,-7.6912,-7.6989,-7.6873,-7.6809,-7.6804,0.0,0.0,0.0,-7.5601,-7.5255,-7.531,-7.4313,-7.3775,-7.3677,-7.41,-7.4663,-7.5227,-7.6037,-7.6411,-7.6264,-7.5582,-7.4864,-7.4264,-7.3956,-7.3437,-7.2887,-7.2755,-7.2671,-7.2671,-7.2671,-7.2671,-7.2671,-7.2671,-7.2416,-7.2072,-7.1985,-7.1722,-7.1401,-7.1312,-7.1312,-7.1312,-7.1312,-7.0916,-7.0515,-7.0515,-6.9283,0.0,-6.6638,-6.5467,-6.4432,-6.3279,-6.3079,-6.3079,-6.3079,-6.3079,-6.3079,-6.3079,-6.3079,-6.3079,-6.3079,-6.3079,-6.3079,-6.3079,-6.2847,-6.2498,-6.2234,-6.185,-6.1494,-6.1284,-5.8564,-5.6466,-5.5129,-5.2203,-5.0222,-4.9268,-4.84,-4.7794,-4.7355,-4.5853,-4.4805,-4.4352,-4.3136,-4.239,-4.1927,-4.1483,-4.0997,-4.0666,-4.0059,-3.9745,-3.943,-3.8798,-3.864,-3.864,-3.864,-3.864,-3.8481,-3.8163,-3.7845,-3.7365,0.0,0.0,0.0,0.0,0.0,0.0,0.0,0.0,-7.4281,-7.498,-7.5584,-7.6041,-7.6248,-7.6458,-7.6669,-7.6793,-7.69,-7.6912,-7.6866,-7.6817,-7.6741,-7.657,0.0,0.0,0.0,0.0,-7.5092,-7.4629,-7.4199,-7.4046,-7.4099,-7.4784,-7.5161,-7.5348,-7.6374,-7.6364,-7.5441,-7.4937,-7.4376,-7.3791,-7.3392,-7.3018,-7.2671,-7.2671,-7.2671,-7.2671,-7.2671,-7.2671,-7.2671,-7.2586,-7.2245,-7.1985,-7.181,-7.1546,-7.1312,-7.1312,-7.1312,-7.1312,-7.1312,-7.0916,-7.0515,-7.0515,-6.8895,0.0,0.0,-6.5063,-6.3819,-6.3164,-6.3079,-6.3079,-6.3079,-6.3079,-6.3079,-6.3079,-6.3079,-6.3079,-6.3079,-6.3079,-6.3079,-6.2847,-6.2585,-6.2234,-6.185,-6.1642,-6.1284,-6.0952,-5.7651,-5.5393,-5.4863,-5.1673,-4.9532,-4.9003,-4.8086,-4.7186,-4.6596,-4.5405,-4.4352,-4.3615,-4.283,-4.2216,-4.1773,-4.1152,-4.0666,-4.0509,-3.9902,-3.943,-3.9272,-3.8798,-3.864,-3.864,-3.864,-3.8481,-3.8322,-3.7845,-3.7365,-3.7045,-7.1067,0.0,0.0,0.0,0.0,0.0,0.0,0.0,-7.4497,-7.5424,-7.587,-7.6185,-7.6415,-7.6669,-7.6788,-7.6778,-7.6866,-7.686,-7.6677,-7.6688,-7.6566,-7.6305,0.0,-7.5936,0.0,0.0,0.0,-7.4009,-7.3916,-7.4113,-7.4545,-7.5416,-7.5715,-7.5552,-7.6679,-7.6233,-7.4638,-7.4487,-7.4104,-7.3702,-7.297,-7.2755,-7.2838,-7.2755,-7.2671,-7.2671,-7.2671,-7.2586,-7.2586,-7.2416,-7.2159,-7.1898,-7.1688,-7.1546,-7.1312,-7.1312,-7.1312,-7.1312,-7.1312,-7.0916,-7.0515,-7.0515,-6.8798,-6.695,0.0,0.0,0.0,-6.3194,-6.3079,-6.3079,-6.3079,-6.3079,-6.2989,-6.275,-6.2899,-6.2989,-6.272,-6.2929,-6.2847,-6.2615,-6.2234,-6.185,-6.1613,-6.1284,-6.0802,-6.0287,-5.7139,-5.5022,-5.433,-5.1114,-4.9245,-4.8691,-4.7502,-4.6596,-4.5853,-4.4955,-4.3919,-4.2851,-4.2524,-4.2082,-4.1618,-4.0821,-4.0509,-4.0353,-3.9588,-3.9272,-3.9114,-3.8798,-3.864,-3.864,-3.864,-3.8322,-3.8004,-3.7525,-3.7045,-3.6581,-7.0368,-7.1547,0.0,0.0,0.0,0.0,0.0,0.0,-7.4904,-7.5654,-7.5957,-7.6195,-7.6454,-7.665,-7.6794,-7.6707,-7.6727,-7.67,-7.6615,-7.6458,-7.635,-7.6281,-7.6133,-7.578,-7.531,0.0,0.0,0.0,-7.3653,-7.3781,-7.4421,-7.5362,-7.5865,-7.6032,-7.6481,-7.6161,-7.5191,-7.4264,-7.3712,-7.3299,-7.2922,-7.2922,-7.317,-7.2838,-7.2671,-7.2671,-7.2416,-7.2331,-7.2331,-7.2331,-7.2038,-7.1688,-7.1898,-7.1634,-7.1312,-7.1312,-7.1312,-7.1312,-7.1312,-7.0916,-7.0515,-7.0515,-6.9955,-6.883,-6.6846,0.0,-6.5498,-6.3508,0.0,-6.3079,-6.3079,0.0,0.0,-6.1523,-6.2301,-6.266,-6.1493,-6.2102,-6.2615,-6.2615,-6.1998,-6.1613,-6.1613,-6.1044,-6.0165,-5.8564,-5.631,-5.4061,-5.2203,-5.0198,-4.8546,-4.7502,-4.6596,-4.5704,-4.4955,-4.3767,-4.3004,-4.2524,-4.2082,-4.1618,-4.1327,-4.0666,-4.0353,-3.9902,-3.943,-3.9114,-3.864,-3.864,-3.864,-3.864,-3.864,-3.8322,-3.8004,-3.7525,-3.7045,-3.6581,-7.0163,-7.1323,-7.238,0.0,0.0,0.0,0.0,0.0,-7.5518,-7.5928,-7.6173,-7.6376,-7.6636,-7.676,-7.6809,-7.6722,-7.6747,-7.6663,-7.6418,-7.635,-7.6248,-7.6133,-7.578,-7.5379,-7.4943,0.0,0.0,0.0,-7.3922,-7.4487,-7.5197,-7.581,-7.6066,-7.6053,-7.5882,-7.537,-7.4487,-7.4026,-7.3905,-7.3975,-7.3334,-7.3299,-7.3542,-7.2922,-7.2671,-7.2671,-7.2586,-7.2416,-7.2331,-7.2159,-7.1864,-7.16,-7.1546,-7.1491,-7.1312,-7.1312,-7.1312,-7.1312,-7.1312,-7.1007,-7.0733,-7.0733,-6.9921,-6.8601,-6.7022,-6.5973,-6.4954,-6.3394,0.0,0.0,0.0,0.0,0.0,0.0,-6.272,-6.2899,-6.2102,-6.2142,-6.2351,-6.2351,-6.185,-6.1494,-6.1135,-6.0681,-5.9645,-5.7651,-5.5683,-5.3682,-5.1509,-4.9485,-4.7941,-4.7186,-4.6002,-4.5106,-4.4805,-4.3615,-4.2851,-4.237,-4.1927,-4.1463,-4.0841,-4.0372,-3.9902,-3.9588,-3.9114,-3.8798,-3.864,-3.864,-3.864,-3.864,-3.8322,-3.8004,-3.7685,-3.7205,-3.6724,-3.6258,-6.9849,-7.1195,-7.2416,-7.2496,0.0,0.0,0.0,-7.5239,-7.587,-7.6173,-7.632,-7.6497,-7.6788,-7.6872,-7.6948,-7.7012,-7.7038,-7.6916,-7.6596,-7.6571,-7.6326,-7.5818,-7.5485,-7.5055,-7.4502,-7.4154,0.0,0.0,-7.419,-7.5007,-7.5824,-7.6158,-7.6301,-7.6264,-7.5582,-7.4861,-7.4096,-7.3861,-7.394,-7.4209,-7.338,-7.3299,-7.3542,-7.2922,-7.2671,-7.2671,-7.2586,-7.2416,-7.2159,-7.1985,-7.1722,-7.1546,-7.1367,-7.1312,-7.1312,-7.1312,-7.1312,-7.1312,-7.1312,-7.1098,-7.0916,-7.0916,-7.0016,-6.8667,-6.7093,-6.6048,-6.4813,-6.3394,-6.3079,0.0,0.0,0.0,-6.2959,-6.26,0.0,-6.2728,-6.211,-6.1997,-6.1969,-6.1969,-6.1613,-6.1135,-6.0681,-6.0316,-5.8996,-5.6596,-5.5022,-5.3002,-5.041,-4.8621,-4.7332,-4.6596,-4.5405,-4.4654,-4.4352,-4.331,-4.2697,-4.2216,-4.1773,-4.1133,-4.0509,-3.9902,-3.9588,-3.9272,-3.8798,-3.864,-3.864,-3.864,-3.8481,-3.8322,-3.8004,-3.7525,-3.7205,-3.6902,-3.642,-3.6097,-6.9421,-7.1095,-7.2496,-7.2496,-7.3313,-7.4374,-7.5551,-7.578,-7.5957,-7.6343,-7.6411,-7.6514,-7.6841,-7.6906,-7.7148,-7.7726,-7.7775,-7.7638,-7.7304,-7.7275,-7.6701,-7.5383,-7.531,-7.4904,-7.4018,-7.4009,-7.3811,-7.3372,-7.419,-7.5007,-7.5824,-7.6158,-7.646,-7.6664,-7.5721,-7.5009,-7.4517,-7.3657,-7.3334,-7.3334,-7.2922,-7.2755,-7.2755,-7.2671,-7.2671,-7.2671,-7.2159,-7.1985,-7.1985,-7.1688,-7.1457,-7.1312,-7.1512,-7.1457,-7.1312,-7.1312,-7.1312,-7.1312,-7.1312,-7.1098,-7.0916,-7.0916,-7.0641,-6.9794,-6.7401,-6.6783,-6.6048,-6.3592,-6.3079,-6.3079,-6.3079,-6.3079,-6.266,-6.1373,-6.2012,0.0,0.0,-6.1174,-6.1613,-6.1613,-6.1135,-6.0681,-6.0681,-6.0071,-5.8368,-5.5261,-5.4195,-5.204,-4.8064,-4.7479,-4.6448,-4.4955,-4.4805,-4.4201,-4.3004,-4.2677,-4.2216,-4.1773,-4.0977,-4.0509,-4.0509,-3.9726,-3.9272,-3.9272,-3.8798,-3.864,-3.864,-3.864,-3.8322,-3.8004,-3.7525,-3.7205,-3.6742,-3.6742,-3.642,-3.6097,-7.03,-7.1359,-7.2343,-7.2724,-7.3275,-7.4026,-7.5417,-7.5679,-7.5898,-7.64,-7.6605,-7.6741,-7.6941,-7.6987,-7.7172,-7.7732,-7.7795,-7.7888,-7.8074,-7.7592,-7.7208,-7.6953,-7.5628,-7.4891,-7.4836,-7.4013,-7.3801,-7.419,-7.497,-7.5624,0.0,0.0,0.0,-7.6172,-7.5263,-7.4558,-7.4096,-7.3861,-7.3542,-7.3334,-7.317,-7.2922,-7.2671,-7.2671,-7.2671,-7.2671,-7.2501,-7.2245,-7.1985,-7.1898,-7.1634,-7.1312,-7.1367,-7.1401,-7.1312,-7.1312,-7.1312,-7.1312,-7.1312,-7.0699,-7.0296,-7.1007,-6.9921,-6.8371,-6.7502,-6.6501,-6.5282,-6.3706,-6.3194,-6.3079,-6.3079,-6.3079,-6.2929,-6.2251,-6.2318,-6.232,0.0,-6.135,-6.1284,-6.1044,-6.0802,-6.056,-6.0438,-5.8871,-5.6882,-5.433,-5.2404,-5.0055,-4.7479,-4.6299,-4.5405,-4.4805,-4.4071,-4.3462,-4.3004,-4.239,-4.1927,-4.1773,-4.0977,-4.0353,-4.0059,-3.9588,-3.9114,-3.8798,-3.864,-3.864,-3.864,-3.864,-3.8322,-3.8004,-3.7525,-3.7045,-3.6742,-3.642,-3.6258,-3.6131,-7.0642,-7.1422,-7.2248,-7.2779,-7.3404,-7.4261,-7.548,-7.5822,-7.6132,-7.656,-7.6741,-7.6829,-7.699,-7.6951,-7.7245,-7.8198,-7.8205,-7.8379,-7.893,-7.8315,-7.7816,-7.7608,-7.6145,-7.5366,-7.5446,-7.4695,-7.4487,-7.5007,-7.5661,-7.6068,-7.6295,0.0,0.0,0.0,-7.5189,-7.4482,-7.394,-7.394,-7.3622,-7.3088,-7.3088,-7.2922,-7.2671,-7.2671,-7.2671,-7.2671,-7.2586,-7.2331,-7.1985,-7.1898,-7.1634,-7.1312,-7.1312,-7.1312,-7.1312,-7.1312,-7.1312,-7.1312,-7.1312,-7.0515,-6.9888,-7.0608,-6.9283,-6.7668,-6.7125,-6.6217,-6.4985,-6.3736,-6.3309,-6.3079,-6.3079,-6.3079,-6.2963,-6.2615,-6.2498,-6.2234,0.0,-6.1164,-6.0952,-6.0681,-6.056,-6.0165,-5.9121,-5.8088,-5.6103,-5.3113,-5.1436,-4.9368,-4.6891,-4.5555,-4.4654,-4.4352,-4.3462,-4.2851,-4.2851,-4.2082,-4.1773,-4.1618,-4.0685,-4.0216,-3.9902,-3.9272,-3.8956,-3.864,-3.864,-3.864,-3.864,-3.864,-3.8322,-3.7685,-3.7525,-3.7045,-3.642,-3.6258,-3.6097,-3.6131,-7.044,-7.1422,-7.2365,-7.2705,-7.3859,-7.4978,-7.5822,-7.621,-7.6497,-7.678,-7.6793,-7.6856,-7.6991,-7.6814,-7.7336,-7.8958,-7.8912,-7.9095,-7.9815,-7.9382,-7.8561,-7.74,-7.6806,-7.6319,-7.5861,-7.5824,-7.5824,-7.5861,-7.6158,-7.6332,-7.6309,0.0,0.0,0.0,-7.5406,-7.4744,-7.394,-7.394,-7.3461,-7.2671,-7.2671,-7.2671,-7.2671,-7.2671,-7.2671,-7.2671,-7.2416,-7.2159,-7.1985,-7.1688,-7.1457,-7.1312,-7.1312,-7.1312,-7.1312,-7.1312,-7.1312,-7.1312,-7.1312,-7.0482,-6.9666,-6.9666,-6.8765,-6.7567,-6.6354,-6.5714,-6.5173,-6.3736,-6.3309,-6.3079,-6.3079,-6.3079,-6.2963,-6.2615,-6.2234,-6.188,-6.1313,-6.0952,-6.0681,-6.0681,-6.0316,-5.9245,-5.7268,-5.7606,-5.6129,-5.1485,-5.1181,-4.9772,-4.6129,-4.5106,-4.4352,-4.3615,-4.3157,-4.2697,-4.237,-4.1927,-4.1618,-4.1172,-4.0372,-3.9902,-3.9902,-3.8956,-3.864,-3.864,-3.864,-3.864,-3.864,-3.864,-3.8163,-3.7365,-3.7365,-3.6885,-3.6097,-3.6097,-3.6097,-3.6097,-7.1547,-7.25,-7.3327,-7.3897,-7.4547,-7.513,-7.5507,-7.5851,-7.6283,-7.6741,-7.688,-7.6977,-7.7052,-7.6886,-7.7403,-7.8979,-7.8912,-7.9365,-8.07,-7.9727,-7.9095,-7.9026,-7.7447,-7.6581,-7.6716,-7.6121,-7.6121,-7.6753,-7.6454,-7.641,-7.6627,0.0,0.0,0.0,-7.5262,-7.4744,-7.394,-7.394,-7.3461,-7.2671,-7.2671,-7.2671,-7.2671,-7.2671,-7.2671,-7.2671,-7.2586,-7.2331,-7.1985,-7.1898,-7.1634,-7.1312,-7.1312,-7.1312,-7.1312,-7.1312,-7.1312,-7.1312,-7.1312,-6.9888,-6.8667,-6.9475,-6.7668,-6.5777,-6.5929,-6.5204,-6.427,-6.3622,-6.3309,-6.3079,-6.3079,-6.3079,-6.2963,-6.2351,-6.1761,-6.1313,-6.0952,-6.0681,-6.056,-5.9977,-5.8746,-5.7933,-5.827,-5.626,-5.3926,-5.1599,-4.8938,-4.6824,-4.5256,-4.405,-4.331,-4.3157,-4.2544,-4.2082,-4.1927,-4.1618,-4.1152,-4.0666,-4.0216,-3.9745,-3.943,-3.8798,-3.864,-3.864,-3.864,-3.864,-3.864,-3.8322,-3.7845,-3.7365,-3.7045,-3.6563,-3.6097,-3.6097,-3.6097,-3.6097,-7.2011,-7.2926,-7.3714,-7.4422,-7.4904,-7.531,-7.5672,-7.6108,-7.6457,-7.6749,-7.6906,-7.7029,-7.7083,-7.7167,-7.7726,-7.8999,-7.9168,-7.9769,-8.1016,-8.0008,-7.9467,-7.967,-7.8151,-7.7371,-7.7608,-7.7125,-7.7125,-7.7608,-7.681,-7.6544,-7.6664,0.0,0.0,0.0,-7.5225,-7.4819,-7.4174,-7.3782,-7.338,-7.2922,-7.2755,-7.2671,0.0,-7.2671,-7.2671,-7.2671,-7.2671,-7.2416,-7.2159,-7.1985,-7.1722,-7.1367,-7.1312,-7.1312,-7.1312,-7.1312,-7.1312,-7.1312,-7.1312,-6.9699,-6.8271,-6.8895,-6.6878,-6.4998,-6.5235,-6.4604,-6.388,-6.3538,-6.3309,-6.3079,-6.3079,-6.2963,-6.2701,-6.1969,-6.1523,-6.1073,-6.0681,-6.056,-6.0316,-5.973,-5.7961,-5.6882,-5.7221,-5.4623,-5.2153,-5.0503,-4.7804,-4.581,-4.4805,-4.3615,-4.3004,-4.3004,-4.2236,-4.1773,-4.1773,-4.1152,-4.0841,-4.0509,-3.9902,-3.9588,-3.9272,-3.8798,-3.864,-3.864,-3.864,-3.8481,-3.8322,-3.8163,-3.7685,-3.7045,-3.6581,-3.6258,-3.6097,-3.6097,-3.6097,-3.6097,-7.2189,-7.305,-7.3869,-7.4664,-7.5092,-7.5584,-7.6172,-7.6566,-7.6803,-7.6805,-7.6939,-7.703,-7.7083,-7.752,-7.8145,-7.902,-7.952,-8.0169,-8.0953,-8.02,-7.9665,-7.9621,-7.8789,-7.8276,-7.8276,-7.8276,-7.8276,-7.8276,-7.7231,-7.6728,-7.6664,0.0,0.0,0.0,0.0,-7.4968,-7.4441,-7.3622,-7.3252,-7.317,-7.2838,-7.2671,-7.2671,-7.2671,-7.2671,-7.2671,-7.2671,-7.2501,-7.2245,-7.2072,-7.181,-7.16,-7.1401,-7.1312,-7.1312,-7.1312,-7.1312,-7.1312,-7.1312,-6.9699,-6.8072,-6.8072,-6.6491,-6.4777,-6.4412,-6.4188,-6.388,-6.3538,-6.3309,-6.3079,-6.3079,-6.2731,-6.2234,-6.1613,-6.1284,-6.0952,-6.0409,-6.0043,-5.955,-5.9052,-5.7167,0.0,-5.5207,-5.2977,-5.0785,-4.884,-4.7366,-4.5915,-4.4654,-4.3462,-4.2851,-4.2851,-4.2082,-4.1773,-4.1773,-4.0977,-4.0509,-4.0353,-3.9726,-3.9272,-3.9272,-3.8798,-3.864,-3.864,-3.864,-3.8322,-3.8004,-3.8004,-3.7365,-3.6581,-3.6258,-3.6097,-3.6097,-3.6097,-3.6097,-3.6097,-7.2593,-7.3688,-7.4626,-7.5092,-7.5513,-7.5967,-7.6441,-7.6671,-7.683,-7.6936,-7.7061,-7.714,-7.7014,-7.7598,-7.822,-7.8856,-7.9532,-8.003,-8.0463,-8.0002,-7.9532,-7.915,-7.8618,-7.8276,-7.8276,-7.8276,-7.8276,-7.8276,-7.7231,-7.6728,-7.6664,-7.5655,0.0,0.0,0.0,-7.4744,-7.4018,-7.3461,-7.3088,-7.2838,-7.2755,-7.2671,-7.2671,-7.2671,-7.2671,-7.2671,-7.2671,-7.2501,-7.2245,-7.2072,-7.181,-7.16,-7.1401,-7.1312,-7.1312,-7.1312,-7.1312,-7.1312,-7.1312,-6.9699,-6.8072,-6.8072,-6.6491,-6.4777,-6.4218,-6.3993,-6.388,-6.3309,-6.3079,-6.2963,-6.2731,-6.2234,-6.1613,-6.1313,-6.0952,-6.0165,-5.8368,-5.7806,-5.7011,-5.5472,-5.3411,-5.2316,-5.3189,-5.2065,-5.0221,-4.8095,-4.6824,-4.5234,-4.3462,-4.2851,-4.237,-4.2082,-4.1483,-4.1327,-4.1327,-4.0841,-4.0353,-4.0059,-3.9588,-3.9114,-3.8798,-3.864,-3.864,-3.864,-3.864,-3.8322,-3.8004,-3.7685,-3.7045,-3.6258,-3.6097,-3.6097,-3.6097,-3.6097,-3.6097,-3.6097,-7.2798,-7.3879,-7.4865,-7.5239,-7.5648,-7.609,-7.6645,-7.6782,-7.6844,-7.6976,-7.7101,-7.7307,-7.7595,-7.8217,-7.8883,-7.9509,-8.0188,-8.053,-8.0428,-7.9961,-7.9487,-7.9004,-7.8565,-7.8276,-7.8276,-7.8276,-7.8165,-7.79,-7.7107,-7.6599,-7.6306,-7.5514,-7.5225,-7.5189,0.0,-7.4669,-7.4174,-7.3542,-7.3009,-7.2416,-7.2168,-7.1843,-7.1498,-7.1498,-7.1498,-7.1498,-7.1498,-7.138,-7.1351,-7.1798,-7.1898,-7.1722,-7.1401,-7.1312,-7.1312,-7.1312,-7.1312,-7.1222,-7.0608,-6.9283,-6.7971,-6.7395,-6.6098,-6.4777,-6.4106,-6.3993,-6.388,-6.3194,-6.2963,-6.2731,-6.2234,-6.185,-6.1494,-6.1044,-6.0802,-5.9891,-5.7551,-5.7139,-5.6337,-5.4355,-5.2316,-5.1205,-5.1321,-4.9961,-4.8696,-4.7804,-4.581,-4.4201,-4.3004,-4.2697,-4.2216,-4.1773,-4.1483,-4.1016,-4.0841,-4.0372,-4.0059,-3.9588,-3.9114,-3.8798,-3.864,-3.864,-3.864,-3.864,-3.8322,-3.8004,-3.7685,-3.7045,-3.6402,-3.6097,-3.6097,-3.6097,-3.6097,-3.6097,-3.6097,-3.6097,-7.3017,-7.4018,-7.4904,-7.5274,-7.571,-7.6184,-7.6722,-7.6799,-7.6871,-7.7036,-7.7145,-7.7446,-7.8102,-7.8815,-7.9463,-8.0121,-8.0845,-8.0953,-8.0278,-7.992,-7.9441,-7.8854,-7.8512,-7.8276,-7.8276,-7.8276,-7.794,-7.7215,-7.6726,-7.6214,-7.5751,-7.5227,-7.4939,-7.4939,-7.4496,-7.4163,-7.3946,-7.3133,-7.2383,-7.1781,-7.1421,-7.0912,-7.0394,-7.0394,-7.0394,-7.0394,-7.0394,-7.0394,-7.0485,-7.1302,-7.1609,-7.1693,-7.1423,-7.1312,-7.1312,-7.1312,-7.1312,-7.1098,-6.9982,-6.8895,-6.7871,-6.6806,-6.57,-6.4777,-6.4106,-6.3993,-6.388,-6.3194,-6.2731,-6.2351,-6.1732,-6.1494,-6.1255,-6.0681,-6.0287,-5.9245,-5.6726,-5.6337,-5.5419,-5.3002,-5.1485,-5.0221,-4.9344,-4.7704,-4.6869,-4.7096,-4.5063,-4.3462,-4.2851,-4.2544,-4.2082,-4.1618,-4.1308,-4.0841,-4.0509,-4.0059,-3.9588,-3.9272,-3.8798,-3.864,-3.864,-3.864,-3.864,-3.864,-3.8163,-3.7685,-3.7205,-3.642,-3.6097,-3.6097,-3.6097,-3.6097,-3.6097,-3.6097,-3.5935,-3.5757,-7.335,-7.4417,-7.5274,-7.531,-7.589,-7.6451,-7.6746,-7.6799,-7.6907,-7.7137,-7.7187,-7.7446,-7.8024,-7.8826,-7.9506,-8.0074,-8.0817,-8.0876,-7.9885,-7.9756,-7.9303,-7.8404,-7.8332,-7.8276,-7.8276,-7.8276,-7.7644,-7.6427,-7.5921,-7.5415,-7.4885,-7.4368,-7.4118,-7.4118,-7.3645,-7.2882,-7.1798,-7.1412,-7.0937,-7.0579,-7.0498,-7.0429,-7.0394,-7.0394,-7.0394,-7.0394,-7.0394,-7.0394,-7.0429,-7.0354,-7.0583,-7.0977,-7.1164,-7.1312,-7.1312,-7.1312,-7.1312,-7.1098,-6.9982,-6.8895,-6.7871,-6.6806,-6.57,-6.4777,-6.4106,-6.3993,-6.388,-6.3194,-6.2585,-6.1998,-6.1732,-6.1135,-6.0681,-6.0316,-5.8899,-5.7194,-5.4942,-5.4138,-5.2641,-4.9795,-4.9175,-4.8719,-4.7603,-4.598,-4.5106,-4.5106,-4.4504,-4.3594,-4.2524,-4.2082,-4.1618,-4.1327,-4.0841,-4.0509,-4.0509,-3.9726,-3.9272,-3.9272,-3.8798,-3.864,-3.864,-3.864,-3.864,-3.864,-3.8163,-3.7525,-3.6742,-3.6258,-3.6097,-3.6097,-3.6097,-3.6097,-3.6097,-3.6097,-3.5612,-3.4783,-7.3401,-7.4464,-7.531,-7.531,-7.5918,-7.6475,-7.6769,-7.6799,-7.6886,-7.7147,-7.7589,-7.8115,-7.8728,-7.9504,-8.0216,-8.0821,-8.1003,-8.0745,-7.9844,-7.9621,-7.915,-7.8332,-7.8276,-7.8276,-7.8276,-7.8276,-7.7715,-7.6533,-7.5907,-7.5175,-7.433,-7.3583,-7.3298,-7.3298,-7.2607,-7.2021,-7.1587,-7.0923,-7.028,-6.9739,-6.9739,-6.9428,-6.9015,-6.9015,-6.9015,-6.9015,-6.9015,-6.9015,-6.9084,-6.9323,-7.0119,-7.0977,-7.0886,-7.1084,-7.1457,-7.1312,-7.1312,-7.0916,-6.9187,-6.8371,-6.7701,-6.5991,-6.5187,-6.4777,-6.4106,-6.3993,-6.388,-6.3194,-6.2585,-6.188,-6.1164,-6.0923,-6.056,-5.9948,-5.834,-5.6493,-5.4355,-5.2891,-5.1114,-4.8957,-4.8209,-4.7457,-4.6596,-4.5405,-4.4654,-4.4071,-4.3919,-4.3442,-4.2524,-4.2216,-4.1927,-4.1172,-4.0685,-4.0353,-4.0216,-3.9588,-3.9114,-3.8956,-3.864,-3.864,-3.864,-3.864,-3.8322,-3.7845,-3.7365,-3.6902,-3.6258,-3.6097,-3.6097,-3.6097,-3.6097,-3.6097,-3.6097,-3.5433,-3.5109,-3.4621,-7.3714,-7.4667,-7.5344,-7.5446,-7.6013,-7.6514,-7.6769,-7.6826,-7.705,-7.7536,-7.8156,-7.8767,-7.9243,-7.9946,-8.068,-8.135,-8.1167,-8.0677,-7.9885,-7.9576,-7.909,-7.8332,-7.8276,-7.8276,-7.8276,-7.8276,-7.7636,-7.6364,-7.5817,-7.4935,-7.3654,-7.3083,-7.2584,-7.2228,-7.1572,-7.1055,-7.0692,-6.9991,-6.9394,-6.8946,-6.8946,-6.8601,-6.8083,-6.8083,-6.8083,-6.8083,-6.8083,-6.8083,-6.8187,-6.8579,-6.9563,-7.0614,-7.0635,-7.094,-7.1328,-7.1389,-7.1401,-7.0825,-6.8699,-6.8072,-6.7567,-6.5406,-6.4777,-6.4666,-6.4106,-6.388,-6.3622,-6.2933,-6.2351,-6.1732,-6.0802,-6.056,-6.0194,-5.9177,-5.7423,-5.5551,-5.3411,-5.1926,-5.0293,-4.8232,-4.7626,-4.6869,-4.5704,-4.4805,-4.4071,-4.3462,-4.331,-4.2984,-4.237,-4.2062,-4.1598,-4.0997,-4.0353,-4.004,-3.9745,-3.9272,-3.8956,-3.864,-3.864,-3.864,-3.864,-3.8481,-3.8004,-3.7365,-3.6885,-3.642,-3.6097,-3.6097,-3.6097,-3.6097,-3.6097,-3.5935,-3.5612,-3.4963,-3.4278,-3.3281,-7.446,-7.5018,-7.5413,-7.584,-7.6263,-7.663,-7.6808,-7.6924,-7.7347,-7.8355,-7.8948,-7.9275,-7.9323,-7.997,-8.0705,-8.1426,-8.1196,-8.0673,-7.9931,-7.9583,-7.909,-7.8332,-7.8276,-7.8276,-7.8276,-7.8276,-7.7435,-7.5625,-7.5625,-7.4609,-7.2798,-7.2798,-7.2193,-7.1088,-7.0687,-6.9817,-6.874,-6.8275,-6.8118,-6.8118,-6.8118,-6.8118,-6.8083,-6.8083,-6.8083,-6.8083,-6.8083,-6.8083,-6.8083,-6.8118,-6.8635,-6.9486,-7.043,-7.0686,-7.0648,-7.1396,-7.1457,-7.0825,-6.8699,-6.8072,-6.7567,-6.5406,-6.4635,-6.427,-6.4106,-6.3766,-6.3279,-6.2351,-6.185,-6.1375,-6.0802,-6.0438,-5.9673,-5.7861,-5.5867,-5.3868,-5.1951,-5.1138,-4.9771,-4.7479,-4.758,-4.6949,-4.4955,-4.3767,-4.3024,-4.3004,-4.2697,-4.237,-4.237,-4.1288,-4.0509,-4.0509,-3.9726,-3.9272,-3.9272,-3.8798,-3.864,-3.864,-3.864,-3.864,-3.864,-3.8163,-3.7845,-3.7365,-3.6885,-3.642,-3.6097,-3.6097,-3.6097,-3.6097,-3.6097,-3.5595,-3.4783,-3.4783,-3.2772,-3.0093,-7.454,-7.5018,-7.5413,-7.584,-7.6302,-7.6626,-7.6793,-7.6924,-7.7325,-7.8234,-7.8908,-7.9485,-8.0019,-8.0705,-8.1233,-8.1504,-8.1069,-8.0643,-8.0201,-7.9532,-7.9029,-7.8602,-7.8386,-7.8276,-7.8276,-7.8276,-7.7636,-7.6364,-7.5817,-7.4356,-7.2049,-7.2049,-7.1551,-7.0663,-6.9985,-6.9442,-6.9083,-6.8397,-6.8083,-6.8083,-6.8083,-6.8083,-6.8083,-6.8083,-6.8083,-6.8152,-6.8704,-6.8911,-6.898,-6.9497,-6.9497,-6.9463,-7.0265,-7.0786,-7.108,-7.1484,-7.1512,-7.103,-6.8667,-6.8072,-6.7567,-6.5406,-6.4635,-6.43,-6.4106,-6.3424,-6.2731,-6.2234,-6.185,-6.1375,-6.0531,-6.0316,-5.9521,-5.7167,-5.5287,-5.3411,-5.1509,-4.9581,-4.8064,-4.7332,-4.6277,-4.5512,-4.4805,-4.3767,-4.3004,-4.3004,-4.239,-4.1927,-4.1927,-4.1308,-4.0821,-4.0509,-3.9726,-3.9272,-3.9272,-3.8798,-3.864,-3.864,-3.864,-3.8481,-3.8163,-3.7845,-3.7365,-3.6885,-3.642,-3.6258,-3.6097,-3.6097,-3.6097,-3.6097,-3.6097,-3.5612,-3.4783,-3.4115,-3.2278,-3.0093,-7.4748,-7.513,-7.548,-7.5985,-7.6417,-7.6728,-7.6807,-7.7222,-7.7854,-7.8646,-7.9368,-8.0068,-8.0832,-8.1271,-8.1504,-8.1504,-8.1008,-8.0608,-8.0315,-7.9569,-7.8966,-7.8708,-7.8441,-7.8276,-7.8276,-7.8276,-7.7747,-7.6728,-7.5538,-7.4136,-7.2548,-7.1977,-7.1337,-7.0699,-6.9739,-6.9231,-6.9008,-6.8397,-6.8083,-6.8083,-6.8083,-6.8083,-6.8083,-6.8083,-6.829,-6.8601,-6.9118,-6.9463,-6.9773,-7.0222,-7.0084,-6.9773,-7.0222,-7.0829,-7.1266,-7.1318,-7.1151,-7.0599,-6.8667,-6.7802,-6.7086,-6.5156,-6.4524,-6.4188,-6.3766,-6.3049,-6.2351,-6.2116,-6.1613,-6.1015,-6.0287,-5.9645,-5.8467,-5.6103,-5.4221,-5.2341,-5.0576,-4.8453,-4.7038,-4.6743,-4.5555,-4.4654,-4.4201,-4.331,-4.2697,-4.2544,-4.1927,-4.1618,-4.1618,-4.0997,-4.0529,-4.0197,-3.943,-3.9114,-3.9114,-3.8798,-3.864,-3.864,-3.864,-3.8322,-3.8004,-3.7525,-3.7205,-3.6742,-3.6258,-3.6097,-3.6097,-3.6097,-3.6097,-3.6097,-3.5774,-3.5109,-3.4115,-3.3281,-3.1271,-2.8755,-7.5055,-7.531,-7.5545,-7.6262,-7.663,-7.6824,-7.6897,-7.781,-7.8741,-7.9476,-8.0188,-8.086,-8.162,-8.1581,-8.1504,-8.1478,-8.1008,-8.0608,-8.0352,-7.9569,-7.9016,-7.876,-7.8441,-7.8332,-7.8276,-7.8276,-7.7688,-7.6664,-7.4901,-7.4083,-7.3976,-7.2548,-7.1552,-7.1125,-6.9948,-6.9118,-6.8705,-6.8241,-6.8083,-6.8083,-6.8083,-6.8083,-6.8083,-6.8083,-6.8601,-6.9291,-6.9325,-6.9842,-7.0463,-7.0532,-7.0498,-7.0463,-7.0394,-7.0912,-7.1415,-7.0994,-7.0478,-6.9727,-6.847,-6.7292,-6.6173,-6.4685,-6.4188,-6.3766,-6.3194,-6.2585,-6.2116,-6.2116,-6.1284,-6.056,-6.0165,-5.8746,-5.678,-5.4541,-5.2779,-5.0998,-4.9124,-4.7794,-4.6743,-4.6002,-4.5256,-4.4201,-4.3157,-4.2697,-4.2216,-4.1773,-4.1483,-4.1172,-4.1172,-4.0372,-3.9902,-3.9902,-3.9114,-3.864,-3.864,-3.864,-3.864,-3.864,-3.864,-3.8322,-3.8004,-3.7525,-3.7045,-3.6581,-3.6258,-3.6097,-3.6097,-3.6097,-3.6097,-3.5935,-3.5109,-3.4278,-3.3281,-3.2458,-2.9774,-2.6758,-7.513,-7.531,-7.5545,-7.6403,-7.6668,-7.7063,-7.7814,-7.8252,-7.8926,-8.0168,-8.0472,-8.0821,-8.1504,-8.1542,-8.1427,-8.1186,-8.0914,-8.0643,-8.0608,-7.987,-7.9311,-7.9016,-7.876,-7.8495,-7.8276,-7.79,-7.7169,-7.6208,-7.5334,-7.4618,-7.4011,-7.3654,-7.2763,-7.1516,-7.0658,-6.9793,-6.9083,-6.8397,-6.8083,-6.8083,-6.8083,-6.8083,-6.8083,-6.8083,-6.8601,-6.936,-6.9911,-7.0601,-7.1325,-7.1946,-7.1739,-7.1118,-7.0567,-7.0912,-7.1415,-7.1198,-7.069,-7.001,-6.8732,-6.7465,-6.6173,-6.4685,-6.3963,-6.3424,-6.2847,-6.2351,-6.1998,-6.1732,-6.1164,-6.0287,-5.8843,-5.7779,-5.6076,-5.2891,-5.1648,-5.041,-4.7918,-4.6891,-4.6002,-4.5106,-4.4352,-4.3615,-4.3004,-4.2697,-4.2216,-4.1773,-4.1483,-4.1016,-4.0666,-4.0216,-3.9902,-3.9902,-3.9114,-3.864,-3.864,-3.864,-3.864,-3.864,-3.8322,-3.8004,-3.7525,-3.7045,-3.6563,-3.6258,-3.6097,-3.6097,-3.6097,-3.6097,-3.5774,-3.5109,-3.4946,-3.3788,-3.2458,-3.2128,-2.9774,-2.6758,-7.5167,-7.531,-7.5699,-7.6983,-7.733,-7.7739,-7.8734,-7.9281,-7.9778,-8.0506,-8.0903,-8.1194,-8.1465,-8.1504,-8.1388,-8.1128,-8.0882,-8.0646,-8.054,-7.987,-7.9406,-7.9116,-7.8864,-7.8549,-7.8276,-7.7747,-7.6983,-7.6003,-7.5478,-7.4975,-7.4547,-7.419,-7.3583,-7.2656,-7.1152,-7.0218,-6.9797,-6.8613,-6.8083,-6.8083,-6.8083,-6.8083,-6.8083,-6.8083,-6.8808,-6.9842,-7.0256,-7.1084,-7.2119,-7.2533,-7.2153,-7.136,-7.0636,-7.0912,-7.1346,-7.0294,-6.9816,-6.9504,-6.8536,-6.7086,-6.5483,-6.4524,-6.3736,-6.3194,-6.2731,-6.2351,-6.1998,-6.1523,-6.0923,-5.992,-5.8214,-5.6753,-5.4889,-5.2228,-5.0857,-4.9462,-4.7479,-4.6448,-4.5704,-4.4955,-4.3919,-4.3157,-4.2697,-4.239,-4.1927,-4.1618,-4.1327,-4.1016,-4.0509,-4.0059,-3.9745,-3.9588,-3.8956,-3.864,-3.864,-3.864,-3.864,-3.864,-3.8163,-3.7845,-3.7365,-3.6885,-3.642,-3.6097,-3.6097,-3.6097,-3.6097,-3.5612,-3.5271,-3.4783,-3.3952,-3.2623,-3.112,-3.0788,-2.8601,-2.5908,-7.5358,-7.5535,-7.6108,-7.7819,-7.8215,-7.8624,-7.9641,-8.0386,-8.0794,-8.0785,-8.1328,-8.1658,-8.1504,-8.1504,-8.1362,-8.1069,-8.0849,-8.0611,-8.0354,-7.9822,-7.9406,-7.9116,-7.8864,-7.8602,-7.8276,-7.7688,-7.6856,-7.5865,-7.5406,-7.5225,-7.5189,-7.4511,-7.4154,-7.3904,-7.1788,-7.0675,-7.0429,-6.8925,-6.8221,-6.8083,-6.8083,-6.8083,-6.8118,-6.8221,-6.9153,-7.0394,-7.0532,-7.1463,-7.2671,-7.2533,-7.2119,-7.1532,-7.067,-7.0981,-7.1248,-6.9194,-6.8726,-6.8634,-6.8072,-6.6385,-6.4666,-6.4106,-6.3424,-6.2963,-6.2615,-6.2234,-6.188,-6.1313,-6.0681,-5.9521,-5.7578,-5.5578,-5.3572,-5.1698,-4.9771,-4.84,-4.7186,-4.6299,-4.5555,-4.4654,-4.3615,-4.2851,-4.237,-4.2082,-4.1618,-4.1172,-4.1172,-4.0841,-4.0353,-4.0059,-3.9588,-3.9272,-3.8798,-3.864,-3.864,-3.864,-3.864,-3.864,-3.8163,-3.7685,-3.7365,-3.6885,-3.642,-3.6097,-3.6097,-3.6097,-3.6097,-3.5109,-3.4783,-3.4458,-3.2788,-3.1286,-2.9774,-2.9118,-2.7096,-2.4714,-7.6308,-7.6651,-7.7304,-7.8873,-7.9187,-7.9559,-8.0636,-8.0806,-8.1025,-8.16,-8.1708,-8.1658,-8.1504,-8.1504,-8.1308,-8.0817,-8.075,-8.0611,-8.0354,-8.003,-7.9592,-7.9116,-7.9066,-7.8812,-7.8276,-7.7292,-7.6336,-7.5334,-7.5262,-7.5225,-7.5225,-7.5082,-7.4654,-7.3939,-7.2917,-7.1693,-7.0464,-6.9515,-6.8704,-6.8083,-6.8083,-6.8083,-6.8152,-6.8842,-6.9635,-7.0463,-7.1084,-7.1912,-7.2567,-7.1912,-7.205,-7.2257,-7.0843,-7.1194,-7.1782,-6.9704,-6.881,-6.8206,-6.7228,-6.5638,-6.4106,-6.3652,-6.3079,-6.2615,-6.2234,-6.1969,-6.1494,-6.0923,-6.0438,-5.9245,-5.5918,-5.4489,-5.2866,-4.9938,-4.8377,-4.7208,-4.6299,-4.5555,-4.4504,-4.3462,-4.3157,-4.2697,-4.1927,-4.1773,-4.1618,-4.1172,-4.0841,-4.0372,-4.0059,-3.9588,-3.9114,-3.8798,-3.864,-3.864,-3.864,-3.864,-3.864,-3.864,-3.7845,-3.7525,-3.7365,-3.6563,-3.6097,-3.6097,-3.6097,-3.6097,-3.6097,-3.5109,-3.4294,-3.3624,-3.2458,-3.0788,-2.895,-2.8796,-2.7096,-2.4714,-7.7148,-7.761,-7.8344,-7.9801,-8.0105,-8.0493,-8.1557,-8.1538,-8.1524,-8.1862,-8.1736,-8.1581,-8.1504,-8.1362,-8.1128,-8.075,-8.0576,-8.0354,-8.0113,-7.9946,-7.9766,-7.9359,-7.9165,-7.8581,-7.745,-7.6983,-7.6203,-7.5225,-7.5225,-7.5225,-7.5225,-7.5225,-7.501,-7.4545,-7.3376,-7.2395,-7.1658,-7.0,-6.9084,-6.8704,-6.8256,-6.8083,-6.8152,-6.8497,-6.9118,-6.9842,-7.0187,-7.0808,-7.1463,-7.1498,-7.1463,-7.1394,-7.1084,-7.0891,-7.0554,-6.8851,-6.7851,-6.7157,-6.5822,-6.4795,-6.388,-6.3538,-6.3079,-6.2498,-6.2234,-6.1761,-6.1164,-6.056,-5.9521,-5.7961,-5.5181,-5.3547,-5.1812,-4.9389,-4.7941,-4.6891,-4.6151,-4.5256,-4.4352,-4.3157,-4.2851,-4.239,-4.1927,-4.1618,-4.1308,-4.0841,-4.0666,-4.0197,-3.9588,-3.943,-3.9114,-3.864,-3.864,-3.864,-3.864,-3.864,-3.8481,-3.8322,-3.7685,-3.7205,-3.7045,-3.642,-3.6097,-3.6097,-3.6097,-3.5774,-3.5271,-3.4441,-3.3624,-3.2623,-3.0954,-2.9286,-2.7604,-2.6927,-2.5397,-2.3697,-7.8062,-7.8601,-7.9422,-8.0678,-8.1004,-8.1367,-8.218,-8.2085,-8.1875,-8.1886,-8.1658,-8.1504,-8.1504,-8.128,-8.1008,-8.075,-8.0467,-8.0197,-7.9941,-7.9898,-7.9728,-7.9406,-7.9116,-7.822,-7.6728,-7.6728,-7.6203,-7.5225,-7.5225,-7.5225,-7.5225,-7.5225,-7.5225,-7.5116,-7.3729,-7.2957,-7.2633,-7.0694,-6.9601,-6.9222,-6.8601,-6.8256,-6.8118,-6.829,-6.8739,-6.9325,-6.967,-7.0153,-7.0739,-7.1291,-7.1256,-7.0981,-7.0992,-7.0478,-6.9477,-6.7849,-6.671,-6.5745,-6.4604,-6.4188,-6.388,-6.3424,-6.2847,-6.2381,-6.1998,-6.1404,-6.0952,-6.0194,-5.862,-5.678,-5.4649,-5.2754,-5.0857,-4.8957,-4.7648,-4.6596,-4.5853,-4.4955,-4.405,-4.3004,-4.2544,-4.2082,-4.1618,-4.1327,-4.0997,-4.0509,-4.0353,-4.004,-3.9272,-3.9272,-3.8956,-3.864,-3.864,-3.864,-3.864,-3.864,-3.8322,-3.8004,-3.7525,-3.7205,-3.6742,-3.6258,-3.6097,-3.6097,-3.6097,-3.5612,-3.4783,-3.3788,-3.2788,-3.1452,-2.9621,-2.7772,-2.6248,-2.5056,-2.3869,-2.2686,-7.8978,-7.97,-8.06,-8.1633,-8.1932,-8.2068,-8.2256,-8.2085,-8.1875,-8.1886,-8.1658,-8.1504,-8.1504,-8.128,-8.1008,-8.075,-8.0467,-8.0197,-7.9941,-7.9898,-7.9638,-7.9165,-7.8655,-7.7805,-7.6728,-7.6728,-7.6203,-7.5225,-7.5225,-7.5225,-7.5225,-7.5225,-7.5225,-7.5116,-7.4258,-7.3448,-7.2703,-7.177,-7.0532,-6.9256,-6.9222,-6.8739,-6.8187,-6.8911,-6.9222,-6.9463,-7.0843,-7.136,-7.1429,-7.1463,-7.1946,-7.2192,-7.0284,-7.0018,-6.991,-6.754,-6.5759,-6.4493,-6.4106,-6.3993,-6.3766,-6.2847,-6.2351,-6.1998,-6.1433,-6.0952,-6.056,-5.9853,-5.834,-5.6337,-5.4195,-5.2316,-5.0245,-4.7772,-4.6596,-4.5853,-4.4955,-4.3919,-4.3004,-4.2524,-4.2082,-4.1618,-4.1327,-4.1172,-4.0997,-4.0509,-4.0216,-3.9745,-3.9272,-3.8956,-3.864,-3.864,-3.864,-3.864,-3.864,-3.864,-3.8322,-3.8004,-3.7525,-3.7205,-3.6742,-3.6258,-3.6097,-3.6097,-3.6097,-3.5612,-3.4783,-3.3788,-3.2263,-3.0093,-2.9118,-2.7266,-2.4885,-2.4714,-2.3869,-2.2686,-7.9856,-8.0623,-8.1436,-8.1817,-8.2073,-8.2207,-8.2169,-8.2026,-8.1875,-8.1809,-8.162,-8.1504,-8.1504,-8.1099,-8.0817,-8.0716,-8.0315,-7.9988,-7.9898,-7.9898,-7.9638,-7.9116,-7.876,-7.809,-7.7231,-7.6856,-7.6336,-7.5691,-7.5334,-7.5225,-7.5225,-7.5225,-7.5225,-7.5189,-7.4593,-7.4033,-7.337,-7.2359,-7.1157,-6.9911,-6.9463,-6.8808,-6.8118,-6.8428,-6.8842,-6.936,-6.9911,-7.0429,-7.0877,-7.1325,-7.1705,-7.1779,-7.0635,-6.9836,-6.8894,-6.611,-6.4906,-6.427,-6.3849,-6.3508,-6.3279,-6.2731,-6.2234,-6.1732,-6.1313,-6.0802,-6.0043,-5.8648,-5.678,-5.4782,-5.2891,-5.0998,-4.9198,-4.7479,-4.6448,-4.5704,-4.4955,-4.3767,-4.2851,-4.237,-4.2082,-4.1618,-4.1172,-4.0997,-4.0529,-4.0216,-3.9745,-3.9272,-3.8956,-3.864,-3.864,-3.864,-3.864,-3.864,-3.864,-3.8322,-3.8004,-3.7685,-3.7205,-3.6724,-3.6258,-3.6097,-3.6097,-3.6097,-3.5595,-3.4783,-3.3952,-3.2952,-3.1286,-2.9118,-2.7941,-2.6418,-2.4543,-2.3697,-2.3193,-2.2686,-8.0461,-8.1253,-8.1902,-8.1895,-8.211,-8.2266,-8.2134,-8.199,-8.1872,-8.1708,-8.1581,-8.1478,-8.1362,-8.0977,-8.0681,-8.0576,-8.0157,-7.9898,-7.9898,-7.9728,-7.95,-7.9116,-7.8618,-7.7977,-7.7292,-7.6728,-7.6239,-7.5726,-7.5406,-7.5225,-7.5225,-7.5225,-7.5225,-7.5189,-7.4744,-7.4441,-7.4061,-7.3142,-7.1942,-7.0568,-7.0209,-6.9219,-6.8083,-6.8241,-6.8759,-6.9325,-6.9532,-7.0118,-7.0843,-7.1601,-7.1675,-7.1405,-7.0397,-6.8894,-6.7125,-6.4985,-6.4382,-6.4188,-6.3508,-6.3049,-6.2672,-6.2468,-6.1998,-6.1404,-6.0923,-6.0438,-5.955,-5.7706,-5.5578,-5.3708,-5.1787,-4.989,-4.8086,-4.7038,-4.6151,-4.5256,-4.4352,-4.3462,-4.2697,-4.2216,-4.1927,-4.1483,-4.1172,-4.0841,-4.0353,-3.9902,-3.9588,-3.9114,-3.864,-3.864,-3.864,-3.864,-3.864,-3.8481,-3.8481,-3.8163,-3.7845,-3.7365,-3.6885,-3.642,-3.6097,-3.6097,-3.6097,-3.6097,-3.5125,-3.4278,-3.3444,-3.2458,-3.0622,-2.811,-2.7096,-2.5738,-2.4041,-2.302,-2.2686,-2.2686,-8.0837,-8.1435,-8.1902,-8.1895,-8.211,-8.2266,-8.2134,-8.1968,-8.1852,-8.1736,-8.1581,-8.1427,-8.1128,-8.0882,-8.0611,-8.0316,-8.0072,-7.9898,-7.9898,-7.9406,-7.9116,-7.9116,-7.8053,-7.7231,-7.6728,-7.6239,-7.5726,-7.5225,-7.5189,-7.5225,-7.5225,-7.5225,-7.5225,-7.5189,-7.4744,-7.4593,-7.4593,-7.4096,-7.2792,-7.1046,-7.1434,-7.0217,-6.8162,-6.8551,-6.896,-6.9394,-7.0118,-7.0877,-7.1636,-7.2395,-7.221,-7.13,-6.9409,-6.695,-6.4777,-6.4524,-6.4188,-6.388,-6.3134,-6.2555,-6.2116,-6.2116,-6.1642,-6.1073,-6.0316,-5.9948,-5.9052,-5.6882,-5.5022,-5.325,-5.1345,-4.9008,-4.6891,-4.6151,-4.5256,-4.4352,-4.3157,-4.2697,-4.2216,-4.1927,-4.1483,-4.1172,-4.1172,-4.0841,-4.0353,-3.9902,-3.9588,-3.9114,-3.864,-3.864,-3.864,-3.864,-3.864,-3.8481,-3.8004,-3.8004,-3.7845,-3.7365,-3.6885,-3.642,-3.6097,-3.6097,-3.6097,-3.6097,-3.5109,-3.4278,-3.3444,-3.2458,-2.9941,-2.6758,-2.6758,-2.5056,-2.2686,-2.2686,-2.2686,-2.2686,-8.0932,-8.1494,-8.194,-8.2023,-8.2192,-8.2211,-8.1998,-8.1928,-8.1813,-8.1581,-8.1542,-8.1427,-8.1128,-8.0882,-8.0611,-8.0316,-8.0072,-7.9898,-7.9898,-7.9406,-7.9116,-7.9116,-7.8053,-7.7413,-7.7292,-7.6439,-7.5934,-7.5726,-7.5406,-7.5225,-7.5225,-7.5225,-7.5225,-7.5189,-7.5042,-7.4819,-7.4593,-7.4441,-7.3258,-7.1434,-7.1511,-7.0523,-6.9002,-6.9678,-7.0148,-7.0635,-7.1399,-7.1918,-7.2276,-7.2056,-7.1776,-7.121,-6.8732,-6.6459,-6.4524,-6.4188,-6.388,-6.3508,-6.2933,-6.2468,-6.1998,-6.185,-6.1284,-6.0681,-6.0316,-5.9578,-5.827,-5.5604,-5.3978,-5.2203,-4.9318,-4.7895,-4.6743,-4.5405,-4.4955,-4.4352,-4.3157,-4.2697,-4.2216,-4.1927,-4.1483,-4.1172,-4.1172,-4.0529,-4.0059,-3.9902,-3.9272,-3.8798,-3.864,-3.864,-3.864,-3.864,-3.864,-3.8481,-3.8004,-3.7685,-3.7365,-3.6885,-3.6402,-3.6258,-3.6097,-3.6097,-3.6097,-3.6097,-3.4604,-3.3788,-3.3444,-3.1813,-2.9453,-2.6758,-2.6758,-2.5056,-2.2686,-2.2686,-2.2686,-2.2686,-8.1201,-8.1644,-8.1928,-8.2095,-8.2182,-8.2162,-8.1921,-8.1854,-8.1736,-8.1542,-8.1427,-8.1253,-8.0977,-8.0716,-8.043,-8.0157,-7.9988,-7.9898,-7.9898,-7.9406,-7.9116,-7.9116,-7.8053,-7.7413,-7.7169,-7.6172,-7.5655,-7.5655,-7.5334,-7.5225,-7.5225,-7.5225,-7.5225,-7.5225,-7.5225,-7.5042,-7.4819,-7.45,-7.339,-7.1889,-7.172,-7.0726,-6.9376,-7.0183,-7.0727,-7.1106,-7.1712,-7.2264,-7.2586,-7.1864,-7.0906,-6.9727,-6.7567,-6.5745,-6.4382,-6.4075,-6.3622,-6.3164,-6.2585,-6.2116,-6.1732,-6.1375,-6.0923,-6.0438,-6.0071,-5.8899,-5.7194,-5.4649,-5.3027,-5.1254,-4.8209,-4.7038,-4.6299,-4.4955,-4.4352,-4.3746,-4.2851,-4.239,-4.2082,-4.1618,-4.1327,-4.1172,-4.0997,-4.0372,-3.9745,-3.943,-3.8956,-3.864,-3.864,-3.864,-3.864,-3.864,-3.8481,-3.8163,-3.7845,-3.7365,-3.7045,-3.6742,-3.6258,-3.6097,-3.6097,-3.6097,-3.5935,-3.5433,-3.4115,-3.3281,-3.2788,-3.1316,-2.93,-2.6758,-2.6758,-2.5056,-2.2686,-2.2686,-2.2686,-2.2686,-8.1555,-8.1833,-8.1959,-8.2101,-8.209,-8.2057,-8.1905,-8.1796,-8.1658,-8.1542,-8.128,-8.1008,-8.075,-8.0467,-8.0197,-7.9941,-7.9898,-7.9898,-7.9898,-7.9406,-7.9116,-7.9116,-7.8053,-7.7231,-7.6728,-7.576,-7.5262,-7.5225,-7.5225,-7.5225,-7.5225,-7.5225,-7.5225,-7.5225,-7.5225,-7.5225,-7.5153,-7.4368,-7.3331,-7.2332,-7.1837,-7.0807,-6.9555,-7.0363,-7.0832,-7.1211,-7.1572,-7.205,-7.2501,-7.1566,-6.9633,-6.7292,-6.6098,-6.5046,-6.427,-6.4106,-6.3508,-6.2788,-6.2234,-6.185,-6.1375,-6.0802,-6.0438,-6.0071,-5.9578,-5.7834,-5.5814,-5.3926,-5.2178,-5.0103,-4.7603,-4.6448,-4.5704,-4.4805,-4.3767,-4.2851,-4.2524,-4.2082,-4.1618,-4.1172,-4.1172,-4.0997,-4.0509,-4.0059,-3.943,-3.864,-3.864,-3.864,-3.864,-3.864,-3.864,-3.8481,-3.8163,-3.7845,-3.7365,-3.6885,-3.6742,-3.6581,-3.6258,-3.6097,-3.6097,-3.6097,-3.5612,-3.4783,-3.3952,-3.2952,-3.1963,-3.115,-2.93,-2.6758,-2.6758,-2.5056,-2.2686,-2.2686,-2.2686,-2.2686,-8.1697,-8.1872,-8.1995,-8.2215,-8.2179,-8.2056,-8.1918,-8.1809,-8.1658,-8.1542,-8.128,-8.1008,-8.075,-8.0467,-8.0197,-7.9941,-7.9898,-7.9898,-7.9898,-7.9406,-7.9116,-7.9116,-7.8053,-7.7231,-7.6728,-7.6104,-7.5621,-7.5225,-7.5225,-7.5225,-7.5225,-7.5225,-7.5225,-7.5225,-7.5225,-7.5225,-7.5153,-7.4368,-7.3476,-7.2656,-7.1977,-7.1515,-7.1197,-7.169,-7.2096,-7.2485,-7.2777,-7.2414,-7.1566,-6.9727,-6.777,-6.6098,-6.5483,-6.4746,-6.3963,-6.3766,-6.3164,-6.2585,-6.2234,-6.1642,-6.1164,-6.0438,-6.0071,-5.9426,-5.7933,-5.6623,-5.4889,-5.2316,-5.0386,-4.8696,-4.6574,-4.5555,-4.4805,-4.4071,-4.331,-4.2851,-4.2524,-4.2082,-4.1618,-4.1172,-4.0841,-4.0666,-4.0509,-3.9883,-3.9272,-3.864,-3.864,-3.864,-3.864,-3.864,-3.8481,-3.8163,-3.8004,-3.7685,-3.6885,-3.6742,-3.6581,-3.6258,-3.6097,-3.6097,-3.6097,-3.6097,-3.5612,-3.4783,-3.3952,-3.2952,-3.1963,-3.115,-2.93,-2.6758,-2.6758,-2.5056,-2.2686,-2.2686,-2.2686,-2.2686,-8.1762,-8.1911,-8.1987,-8.2262,-8.2123,-8.1969,-8.1901,-8.1736,-8.1581,-8.1504,-8.1128,-8.0882,-8.0716,-8.0354,-8.0072,-7.9898,-7.9898,-7.9854,-7.9683,-7.9311,-7.9066,-7.8915,-7.7997,-7.7231,-7.6728,-7.6239,-7.5726,-7.5225,-7.5225,-7.5225,-7.5225,-7.5225,-7.5225,-7.5225,-7.5225,-7.501,-7.4582,-7.3761,-7.2976,-7.2191,-7.1442,-7.1196,-7.1375,-7.1791,-7.2155,-7.2494,-7.2892,-7.1969,-7.0415,-6.8667,-6.6982,-6.5375,-6.4967,-6.4412,-6.3766,-6.3394,-6.2817,-6.2234,-6.1969,-6.1404,-6.0831,-6.0316,-5.9702,-5.8774,-5.7139,-5.5683,-5.3952,-5.1624,-4.9557,-4.758,-4.6299,-4.5405,-4.4504,-4.3462,-4.3004,-4.2544,-4.2236,-4.1773,-4.1483,-4.1172,-4.0997,-4.0685,-4.0216,-3.943,-3.8798,-3.864,-3.864,-3.864,-3.864,-3.864,-3.8481,-3.8004,-3.7845,-3.7365,-3.6742,-3.6581,-3.6258,-3.6097,-3.6097,-3.6097,-3.6097,-3.6097,-3.5433,-3.4115,-3.3772,-3.2788,-3.1301,-3.0303,-2.8628,-2.6758,-2.6078,-2.4555,-2.2686,-2.2686,-2.2686,-2.2686,-8.1801,-8.1932,-8.2006,-8.2221,-8.2045,-8.189,-8.1848,-8.1658,-8.1504,-8.1504,-8.1039,-8.0716,-8.0716,-8.0237,-7.9898,-7.9898,-7.9898,-7.981,-7.95,-7.9263,-7.8966,-7.8708,-7.792,-7.7231,-7.6728,-7.6239,-7.5726,-7.5225,-7.5225,-7.5225,-7.5225,-7.5225,-7.5225,-7.5225,-7.5225,-7.4761,-7.3976,-7.3155,-7.237,-7.162,-7.0978,-7.0948,-7.1263,-7.1669,-7.1979,-7.2348,-7.2429,-7.1142,-6.9121,-6.777,-6.6385,-6.5077,-6.4493,-6.3963,-6.3394,-6.3049,-6.2438,-6.1969,-6.1613,-6.1015,-6.056,-6.0194,-5.9301,-5.8115,-5.6493,-5.4756,-5.3002,-5.095,-4.8575,-4.6743,-4.6002,-4.5106,-4.4201,-4.3157,-4.2697,-4.2216,-4.1927,-4.1483,-4.1172,-4.1016,-4.1016,-4.0548,-3.9745,-3.8956,-3.864,-3.864,-3.864,-3.864,-3.864,-3.8481,-3.8322,-3.7845,-3.7525,-3.7045,-3.6581,-3.6258,-3.6097,-3.6097,-3.6097,-3.6097,-3.6097,-3.5935,-3.4946,-3.3444,-3.3281,-3.2128,-3.0317,-2.93,-2.7941,-2.6248,-2.5227,-2.3869,-2.2686,-2.2686,-2.2686,-2.2686,-8.1852,-8.1978,-8.2104,-8.2115,-8.1998,-8.1851,-8.1732,-8.162,-8.1504,-8.1504,-8.1039,-8.0716,-8.0716,-8.0237,-7.9898,-7.9898,-7.9898,-7.981,-7.95,-7.9263,-7.8966,-7.8708,-7.792,-7.7231,-7.6728,-7.6239,-7.5726,-7.5225,-7.5225,-7.5225,-7.5225,-7.5225,-7.5225,-7.5225,-7.5225,-7.4761,-7.3976,-7.3155,-7.237,-7.1692,-7.1585,-7.1766,-7.2077,-7.2478,-7.2897,-7.2996,-7.209,-7.0103,-6.777,-6.6385,-6.5375,-6.4493,-6.4188,-6.3622,-6.3019,-6.2701,-6.2234,-6.1613,-6.1284,-6.0802,-6.0194,-5.9825,-5.8955,-5.7505,-5.4756,-5.3572,-5.1926,-4.8453,-4.6869,-4.5853,-4.5106,-4.4352,-4.3615,-4.3004,-4.2697,-4.2216,-4.1927,-4.1483,-4.1016,-4.0666,-4.0059,-3.943,-3.8798,-3.864,-3.864,-3.864,-3.864,-3.864,-3.864,-3.8322,-3.7845,-3.7525,-3.7045,-3.6581,-3.6258,-3.6097,-3.6097,-3.6097,-3.6097,-3.6097,-3.6097,-3.5271,-3.4441,-3.3444,-3.2623,-3.112,-2.9132,-2.8783,-2.7266,-2.4885,-2.4714,-2.3869,-2.2686,-2.2686,-2.2686,-2.2686,-8.1892,-8.2001,-8.2114,-8.2107,-8.2001,-8.1833,-8.1722,-8.1581,-8.1453,-8.1308,-8.0946,-8.0646,-8.0503,-8.0116,-7.9898,-7.9898,-7.9728,-7.9546,-7.9311,-7.9016,-7.8618,-7.8034,-7.7413,-7.6793,-7.6306,-7.5796,-7.5406,-7.5225,-7.5225,-7.5225,-7.5225,-7.5225,-7.5225,-7.5225,-7.5225,-7.4511,-7.3298,-7.2941,-7.212,-7.1085,-7.1513,-7.1765,-7.192,-7.2577,-7.2878,-7.272,-7.1053,-6.925,-6.7497,-6.5991,-6.4967,-6.4075,-6.388,-6.3279,-6.2701,-6.2351,-6.188,-6.1284,-6.1044,-6.0438,-5.9825,-5.9205,-5.7889,-5.6156,-5.3708,-5.1926,-4.9985,-4.7603,-4.6596,-4.5704,-4.4955,-4.3919,-4.3157,-4.2697,-4.239,-4.1927,-4.1483,-4.1327,-4.0997,-4.0509,-3.9726,-3.9272,-3.8956,-3.8798,-3.864,-3.864,-3.864,-3.864,-3.864,-3.8163,-3.7845,-3.7365,-3.6885,-3.6581,-3.6097,-3.6097,-3.6097,-3.6097,-3.6097,-3.6097,-3.6097,-3.5288,-3.4278,-3.3444,-3.2458,-3.0788,-2.8796,-2.7941,-2.6418,-2.4543,-2.3869,-2.3193,-2.2686,-2.2686,-2.2686,-2.2686]}]]